GFSSW_prec_cthk_000.txt.gz
RH
53 53 54 56 63 61 59 55 57 61 60 57 47 43 41 37 34 46 65 60 68 57 62 60 62 70 65 45 39 38 31 27 32 33 36 45 48 49 47 44 40 40 39 38 36
52 58 64 71 68 61 57 52 48 52 55 55 49 45 45 41 39 43 55 58 71 64 66 65 63 70 69 49 39 40 34 26 29 34 40 42 46 45 43 43 40 37 36 37 34
56 59 65 74 74 71 69 63 56 50 46 50 48 43 45 46 46 38 49 59 73 69 71 69 66 69 70 54 41 40 36 27 28 34 36 39 40 41 38 39 37 35 34 36 35
57 65 81 84 80 79 76 64 53 52 49 47 46 42 48 55 52 33 40 58 70 73 75 70 68 66 71 56 41 41 34 28 27 33 33 34 36 36 36 37 36 37 34 35 37
71 79 76 82 79 77 77 78 65 60 55 54 45 45 57 61 47 55 29 56 75 81 77 69 66 66 73 57 40 40 33 29 28 27 32 30 30 33 34 37 36 36 38 36 37
79 75 72 74 77 79 81 78 70 66 63 54 50 58 62 59 38 59 47 46 67 81 81 74 67 68 73 59 40 34 36 30 34 30 27 28 29 30 31 37 38 35 38 38 38
75 77 71 69 70 73 73 71 67 75 75 67 62 74 73 56 40 61 61 51 62 80 81 73 74 72 70 62 38 31 31 32 30 30 29 34 32 29 28 32 32 33 36 38 38
73 74 68 60 58 64 67 69 76 85 76 66 72 83 77 70 57 63 71 72 71 78 78 81 78 73 66 53 35 30 30 33 28 30 28 27 29 31 33 30 31 30 33 36 39
85 82 85 72 65 64 73 84 94 96 81 75 82 77 73 86 86 65 73 77 77 84 82 88 80 71 65 51 35 29 28 31 26 31 27 26 22 25 29 29 31 32 34 35 35
91 92 96 97 95 89 91 95 97 97 87 84 88 90 92 84 89 86 82 85 83 89 90 85 76 65 61 43 32 30 28 30 30 31 27 26 25 21 24 26 28 30 31 31 29
92 89 92 92 95 92 94 99 98 96 95 85 73 78 88 98 98 97 86 91 93 85 86 81 70 58 52 30 30 34 32 28 27 29 25 25 24 24 23 23 27 28 26 25 22
92 93 92 96 94 97 97 98 98 97 98 98 94 96 97 92 96 97 95 94 94 94 83 78 66 51 41 33 32 31 31 29 28 26 21 23 29 27 23 24 25 24 23 22 21
92 94 95 91 96 95 97 96 96 98 98 99 95 97 94 98 98 95 95 92 89 91 81 67 55 43 44 33 29 29 33 37 33 25 23 25 32 28 27 27 25 24 24 23 22
94 94 91 93 95 93 94 96 96 97 95 98 96 97 96 98 96 94 95 86 93 87 69 56 47 42 34 28 25 30 29 33 27 27 34 27 37 30 29 29 29 26 26 23 20
92 95 94 95 89 91 94 94 97 98 98 97 98 98 98 95 96 97 88 83 75 66 57 47 43 33 28 27 28 39 30 27 26 27 30 29 33 30 28 28 26 23 23 23 23
92 90 92 94 94 93 93 95 97 97 98 97 97 97 95 95 93 90 85 73 62 54 47 36 30 27 29 28 27 31 28 27 26 27 32 26 27 30 27 27 24 24 26 26 26
87 90 88 92 89 88 92 95 96 92 97 97 97 95 92 92 90 80 68 59 53 49 39 31 26 26 27 29 28 30 30 39 42 38 36 26 27 26 24 23 24 25 24 25 26
82 86 84 82 83 83 88 93 91 94 93 96 96 95 93 87 83 70 63 58 50 45 38 36 35 31 29 29 30 30 31 45 57 51 38 28 28 23 22 22 24 25 27 30 31
67 76 79 76 76 81 91 91 95 89 91 93 95 95 96 87 79 73 62 58 52 48 47 42 41 35 34 33 31 32 37 35 40 37 40 33 29 29 27 30 32 33 35 36 35
56 67 72 74 74 76 78 83 87 88 89 89 91 90 94 89 81 68 65 63 56 50 49 43 47 42 42 37 34 33 33 37 38 40 39 34 32 35 31 32 32 35 35 37 37
51 59 61 67 68 69 75 80 82 81 82 86 80 85 88 86 79 67 63 62 57 54 49 47 46 48 44 41 39 38 36 35 35 36 43 42 38 36 35 33 33 34 34 34 34
53 60 66 66 67 72 76 74 78 79 78 76 76 76 78 80 78 74 72 68 62 54 51 51 52 53 49 46 44 41 41 41 45 43 43 42 40 32 33 32 32 31 32 31 29
50 62 67 64 71 72 74 75 76 77 74 73 73 72 74 76 77 75 76 75 71 67 66 60 58 61 59 52 47 47 44 41 42 43 49 45 35 29 29 30 31 32 33 34 35
50 60 67 68 63 68 68 71 74 75 74 71 71 70 68 69 68 71 71 73 72 69 65 60 59 58 56 52 49 50 45 42 42 43 37 35 30 27 30 32 33 35 38 43 45
48 51 64 66 64 61 60 57 57 61 65 66 67 65 63 67 67 69 67 67 65 63 60 58 57 54 52 46 42 38 35 32 34 30 38 28 32 30 33 38 44 47 47 48 48
45 46 51 56 55 53 55 57 54 54 54 57 59 59 59 62 61 63 59 56 54 49 47 45 46 41 37 32 30 30 26 28 32 35 38 41 42 43 44 46 45 44 43 43 44
39 40 43 45 46 44 47 45 46 43 44 49 50 48 48 47 48 48 48 46 42 39 37 35 33 33 33 32 37 41 41 43 44 44 43 43 41 41 41 40 38 39 41 43 43

GFSSW_prec_cthk_003.txt.gz
RH
42 45 46 44 43 46 46 54 55 65 69 68 64 58 53 48 44 38 42 56 60 58 57 56 58 57 60 59 55 39 35 30 23 30 34 41 43 48 46 48 45 41 42 44 42
43 45 47 47 47 54 57 54 53 52 62 64 63 60 55 53 51 44 35 47 57 60 59 58 58 58 59 60 58 47 37 33 21 30 32 36 39 42 45 43 43 40 42 41 38
46 43 48 52 59 56 61 62 54 48 46 53 59 58 55 56 58 44 35 42 66 61 61 65 63 61 59 61 60 51 36 34 23 29 31 33 35 41 44 45 41 40 40 39 36
56 53 57 59 74 82 72 67 65 57 49 44 52 58 55 59 55 37 35 36 54 64 61 66 61 61 60 60 61 59 39 34 25 27 31 34 35 36 38 40 39 37 36 36 38
67 63 65 62 62 76 74 74 73 58 50 43 42 56 61 61 50 56 40 33 61 68 65 65 64 63 61 62 64 59 39 35 28 24 29 30 30 32 33 34 37 35 36 36 37
61 65 67 64 65 70 68 74 73 66 55 48 45 52 62 60 46 62 56 33 58 67 69 64 64 64 62 64 63 57 39 33 28 26 28 29 27 29 28 30 36 37 37 37 37
73 62 70 71 69 72 77 78 75 71 60 53 48 55 57 53 47 60 61 48 47 60 74 74 71 70 63 64 63 58 39 32 27 24 27 28 27 23 23 25 30 34 34 32 32
84 75 75 69 69 68 77 78 76 70 63 64 63 54 60 45 50 61 61 61 48 67 64 71 79 72 66 61 56 57 37 32 21 23 25 26 28 27 29 29 30 30 29 28 29
89 88 91 87 67 62 72 79 78 75 74 81 76 72 62 53 52 57 60 67 49 64 90 93 81 77 67 64 59 56 39 29 27 26 28 30 31 26 27 30 31 31 28 27 27
92 92 96 97 98 86 81 94 98 98 90 86 72 74 69 61 52 65 61 71 50 66 84 89 95 74 71 65 61 58 38 30 30 28 30 31 29 23 21 21 24 24 26 29 31
95 97 96 94 94 93 94 98 97 98 88 64 49 61 69 61 64 66 65 80 70 69 83 85 88 78 66 57 59 46 36 28 29 28 29 27 29 22 21 23 23 23 26 29 28
95 96 96 91 92 94 97 97 95 79 74 58 64 72 82 86 79 69 83 87 78 74 79 84 77 72 65 61 47 43 36 30 29 28 28 26 26 23 23 24 24 26 28 27 25
94 96 95 92 91 97 97 95 90 86 91 87 77 81 91 97 92 81 95 84 82 76 79 75 68 67 61 54 48 44 32 31 31 30 26 25 26 23 27 26 27 28 27 26 24
96 94 94 94 97 96 95 93 97 99 96 98 96 97 94 98 93 97 98 89 92 80 84 77 75 62 55 54 49 40 29 28 29 30 34 30 36 26 30 31 30 28 27 26 25
97 96 96 97 95 96 95 97 98 98 97 94 97 94 97 96 95 97 96 93 89 85 84 75 68 59 59 51 40 36 27 27 27 29 33 31 33 29 31 34 32 29 26 25 23
94 96 96 95 94 94 95 97 98 98 98 95 94 94 90 98 95 92 87 92 86 90 73 63 60 56 51 42 35 32 29 29 30 33 39 28 31 29 30 30 29 28 26 25 24
88 91 91 92 93 97 98 98 98 96 96 96 94 91 93 95 89 89 91 93 87 78 67 58 56 49 39 36 30 28 32 42 41 41 39 26 29 24 23 23 23 25 25 24 25
87 85 85 86 90 95 98 99 98 96 94 96 94 94 95 95 90 86 81 81 69 62 59 60 55 39 34 30 24 28 34 46 51 49 40 30 32 25 19 22 24 29 31 32 33
72 78 78 83 85 91 97 96 98 95 94 94 96 96 97 96 83 81 70 67 68 56 51 47 43 34 31 26 27 31 33 35 40 42 44 39 33 26 27 31 34 35 36 35 37
61 71 76 79 80 87 91 96 97 95 94 93 94 92 91 85 77 77 78 71 64 57 49 36 39 34 32 30 29 29 31 37 41 40 39 36 34 36 32 35 37 39 38 37 36
56 65 76 76 78 81 89 92 95 93 92 93 89 89 84 85 80 75 77 68 60 56 50 44 43 41 38 36 35 35 35 33 36 38 43 45 41 36 37 38 38 39 38 36 33
51 62 71 70 74 77 84 84 85 90 88 87 83 80 80 82 74 75 75 65 57 54 54 50 50 50 46 38 38 38 40 39 43 42 45 47 45 39 38 36 37 37 35 34 34
56 67 67 68 76 78 79 82 81 82 86 84 85 80 76 71 69 69 69 62 56 54 53 49 50 58 51 47 46 46 45 45 47 49 50 48 41 33 33 34 35 37 35 35 38
57 69 64 63 70 73 73 78 79 76 77 77 78 79 75 76 70 74 71 67 63 59 55 53 56 51 53 48 50 51 49 48 47 48 42 38 33 31 32 33 33 34 38 45 49
53 65 66 69 68 72 73 73 74 77 75 74 77 78 78 78 76 79 77 75 72 68 64 61 61 57 53 49 46 45 42 40 40 36 38 28 31 34 34 35 37 41 46 48 46
47 61 62 63 61 64 64 64 65 72 72 74 76 75 74 75 72 73 72 71 69 65 61 56 57 51 47 40 34 28 27 27 28 33 41 44 43 41 38 37 39 40 39 40 42
41 49 52 53 54 55 57 55 55 59 65 64 67 70 71 69 68 68 66 61 58 54 50 46 42 39 37 35 33 35 36 43 45 44 37 36 30 29 32 34 35 38 41 43 44

GFSSW_prec_cthk_006.txt.gz
RH
39 41 40 45 49 50 47 42 44 51 55 63 70 68 60 53 46 44 38 41 56 59 56 56 55 56 54 55 54 52 47 30 26 27 30 32 38 47 49 47 42 41 44 44 43
38 41 40 45 50 50 48 49 47 47 52 54 68 74 69 59 52 48 36 39 49 58 57 56 55 58 57 55 55 55 54 34 28 24 30 31 35 38 39 43 42 42 45 43 42
42 44 44 48 50 51 51 52 55 57 52 56 54 71 73 67 58 45 39 35 45 57 57 59 62 61 58 54 53 54 55 40 28 28 28 30 32 34 34 40 44 43 42 42 41
48 51 55 56 55 51 57 59 55 52 55 53 54 59 72 74 65 50 42 39 45 57 59 59 64 61 54 54 54 55 55 49 30 28 28 28 30 32 33 40 40 41 41 40 39
51 54 59 56 53 50 57 60 64 64 61 58 51 50 71 73 62 59 49 41 46 59 60 59 60 60 56 53 57 56 55 53 33 28 26 27 27 29 33 35 37 39 38 37 37
65 61 52 58 58 56 54 57 59 76 66 60 62 54 62 68 63 68 56 47 43 62 57 64 59 60 60 56 59 54 53 54 36 28 26 26 26 26 24 30 33 33 36 36 36
74 76 64 68 64 63 68 71 65 72 84 64 64 61 59 58 62 67 59 53 45 72 80 64 62 63 63 62 61 54 52 54 38 27 26 26 27 23 20 26 27 30 32 35 34
85 83 84 84 71 69 67 76 76 77 78 74 68 70 57 46 62 66 61 55 48 64 69 66 69 75 64 63 60 51 51 55 35 20 22 25 29 24 25 25 24 25 30 30 30
92 94 92 95 83 70 68 75 78 77 79 73 84 77 53 47 58 62 64 57 50 70 71 87 70 70 73 71 62 55 55 54 33 22 26 26 26 24 25 28 28 30 28 27 27
95 98 98 97 94 78 78 85 88 89 86 89 91 87 55 41 49 67 65 62 56 72 88 90 90 83 75 69 65 57 58 49 36 27 30 30 28 27 28 28 25 23 23 25 26
97 96 97 97 98 96 90 97 99 98 90 90 81 71 56 43 52 66 64 67 60 75 81 85 92 84 78 63 60 61 51 48 37 25 27 29 30 29 26 23 19 22 22 24 27
96 97 97 97 97 96 94 98 95 94 94 90 85 75 71 51 59 77 80 79 68 69 76 85 85 77 76 73 63 64 52 46 37 27 28 30 30 26 21 21 22 23 24 26 29
97 98 95 96 95 97 96 96 96 94 81 76 72 71 78 61 65 65 83 82 69 69 76 81 81 86 74 69 67 59 49 45 42 31 28 30 32 23 21 23 27 27 27 30 29
97 98 96 98 96 96 98 98 90 89 84 75 75 79 85 61 77 75 82 89 74 66 73 80 75 76 77 67 62 51 46 43 40 34 35 33 37 25 23 26 30 30 29 28 28
96 98 97 98 97 96 97 97 96 98 98 89 91 88 88 81 73 81 89 89 72 68 68 68 65 74 73 60 53 50 46 42 38 34 32 33 36 28 27 30 32 32 30 29 28
93 98 96 95 96 96 97 98 98 99 97 97 98 98 96 97 82 90 98 92 84 74 70 66 68 73 64 55 53 53 46 43 41 35 38 30 34 29 28 26 31 31 30 27 28
86 94 98 98 98 97 97 98 98 93 86 94 97 95 95 91 88 93 98 97 89 84 82 73 69 64 55 56 54 48 45 51 48 45 38 28 31 24 24 24 24 28 27 28 29
74 83 88 94 99 99 98 98 98 89 87 89 91 94 95 87 96 96 94 87 86 75 74 75 67 67 55 54 50 43 45 50 48 47 37 29 32 24 22 21 24 26 30 33 34
65 70 76 87 94 98 99 99 94 88 86 87 91 96 98 93 90 92 92 82 78 71 61 75 68 56 52 47 42 39 43 37 44 43 43 39 31 23 25 26 29 32 33 37 38
57 69 79 85 94 99 98 97 97 92 86 85 88 92 91 88 86 88 92 79 75 71 69 64 64 57 51 44 37 37 33 39 44 44 44 39 34 31 31 33 34 37 39 42 41
54 66 80 84 91 99 97 96 97 90 91 95 82 82 79 78 79 85 86 82 70 70 64 58 55 55 46 41 37 36 34 32 38 40 41 42 36 30 33 38 40 43 43 41 41
54 64 76 81 85 93 96 96 95 96 98 91 77 77 79 80 81 81 79 77 70 67 66 53 53 49 42 36 36 36 37 35 38 38 42 43 41 37 39 40 41 40 38 39 39
61 70 75 83 84 91 89 92 96 97 93 89 90 85 80 85 86 79 75 70 66 63 64 50 52 52 51 47 43 41 37 38 40 44 47 50 47 38 36 34 34 36 38 39 39
58 73 70 76 78 84 87 84 91 93 90 88 88 87 87 79 75 76 74 70 65 60 57 55 53 47 48 43 43 45 45 45 46 53 50 49 40 34 34 35 37 37 37 39 43
54 70 67 71 75 79 80 78 82 85 89 87 84 81 78 80 78 79 75 68 64 59 55 49 50 48 46 44 46 49 51 52 52 48 42 34 34 33 35 35 36 37 38 42 46
49 66 67 72 71 75 75 77 79 78 79 85 84 79 77 75 75 76 72 69 63 62 61 59 61 57 53 48 47 45 44 41 39 38 37 37 36 42 45 42 39 40 42 44 45
48 56 63 63 61 62 64 61 69 74 74 76 78 78 78 74 70 78 75 71 68 65 65 62 61 56 52 55 51 46 38 35 32 31 35 42 41 33 30 34 38 39 40 42 43

GFSSW_prec_cthk_009.txt.gz
RH
39 39 37 36 38 42 52 52 56 61 60 49 59 67 67 61 56 48 42 35 51 61 60 58 55 54 51 49 46 49 57 51 31 25 30 32 38 35 37 48 48 41 39 40 42
42 38 36 36 35 36 39 42 46 50 53 56 48 60 73 69 62 55 42 38 41 62 60 59 56 58 55 54 51 50 56 56 37 26 30 32 36 38 37 45 42 40 39 41 43
49 45 41 40 38 39 40 43 47 52 59 54 48 51 63 78 70 51 45 41 39 56 60 62 63 62 60 54 51 49 50 57 45 32 29 32 34 34 33 40 37 40 41 40 42
49 47 45 46 46 47 47 47 51 59 66 62 63 58 57 69 73 59 49 45 40 55 60 66 65 63 58 54 51 49 49 54 53 39 30 27 31 30 30 35 36 38 40 40 39
52 54 51 52 50 53 53 53 62 59 60 63 61 66 64 65 66 65 60 48 44 59 59 67 67 59 56 54 54 53 50 53 57 49 30 25 23 28 28 32 33 37 37 36 36
64 66 66 60 54 57 61 56 62 65 70 83 80 72 70 60 55 69 72 56 48 54 61 65 62 58 58 60 57 52 51 53 53 54 37 27 24 24 24 26 28 32 34 35 35
79 79 80 74 66 66 60 60 64 68 67 79 73 77 71 47 51 69 75 63 54 52 60 60 63 63 59 61 58 54 53 51 50 55 42 29 26 23 21 25 26 27 30 31 32
88 85 84 84 77 79 70 70 71 75 74 80 86 86 70 51 49 68 75 69 55 57 69 74 69 64 63 63 59 54 53 52 51 49 35 22 26 23 24 25 25 24 26 27 31
91 89 90 88 86 87 74 79 78 81 73 85 89 88 68 60 47 64 81 73 59 62 77 84 82 75 68 64 67 56 56 52 53 44 34 21 24 23 27 27 25 23 25 28 29
92 93 91 91 91 86 78 72 78 84 82 89 90 93 73 56 44 64 79 76 64 68 85 95 88 78 72 65 69 56 56 54 53 43 38 26 26 26 25 25 26 27 29 28 25
94 96 94 93 95 95 86 90 93 92 85 77 84 75 71 58 50 63 78 75 68 79 91 96 94 77 65 75 58 64 58 53 51 44 40 27 28 28 29 28 28 29 26 23 21
96 97 97 96 97 98 97 92 96 91 91 83 89 86 85 62 55 64 80 74 69 76 90 94 88 72 70 65 67 66 58 55 49 44 42 27 29 29 28 27 26 22 20 22 24
97 98 98 97 97 98 97 96 97 98 95 88 89 86 92 65 54 64 75 76 67 75 80 81 91 84 78 78 73 68 61 59 53 45 43 32 29 30 29 27 23 23 24 27 28
97 98 98 98 98 98 97 97 97 97 96 94 88 81 86 71 58 75 84 83 71 70 76 85 77 81 90 83 75 77 60 62 52 50 49 36 39 31 27 27 26 26 28 31 31
92 99 98 98 98 98 97 98 96 98 92 64 76 79 80 72 60 77 83 90 69 63 83 88 86 79 88 72 72 69 65 55 53 48 43 37 37 31 27 28 28 31 30 31 32
81 91 98 99 97 97 98 98 97 98 98 79 75 75 82 72 72 94 97 96 80 66 75 71 71 77 71 83 73 73 57 55 54 50 49 35 33 30 29 26 30 30 31 31 30
73 83 94 99 98 97 97 98 99 99 96 97 93 85 81 74 85 88 94 94 87 87 79 76 74 71 77 78 72 62 60 65 61 57 52 33 34 22 25 26 29 30 30 30 30
62 75 82 97 99 98 98 99 97 92 97 95 94 95 83 86 78 74 91 97 85 68 70 77 88 68 76 68 60 57 56 61 57 56 46 35 33 22 23 24 24 26 28 32 33
55 64 76 86 97 98 98 97 93 88 87 92 97 97 91 89 88 91 98 87 77 71 65 70 63 62 58 55 57 54 57 53 53 54 57 43 30 22 26 26 24 26 32 33 34
51 61 78 91 95 99 98 97 94 90 86 89 90 96 89 85 95 95 97 86 78 72 66 64 61 61 55 57 57 53 56 54 55 57 55 44 36 32 29 31 31 34 35 36 38
55 62 79 93 97 99 98 97 95 88 89 87 86 90 76 84 93 95 93 86 81 74 71 62 60 67 62 58 57 55 50 46 47 50 48 45 35 27 27 32 36 38 40 43 44
58 67 85 94 99 98 97 97 87 88 93 90 86 79 75 77 90 92 88 82 78 74 73 65 71 73 62 63 58 54 47 42 43 40 44 43 36 31 35 37 43 45 46 45 44
64 75 87 91 95 97 97 96 94 96 92 86 78 79 80 79 91 88 85 77 77 74 73 67 69 82 75 70 60 54 43 38 39 40 43 46 41 37 40 40 41 42 41 40 40
63 73 82 86 92 91 92 97 97 95 92 82 80 79 80 82 81 81 83 79 72 73 75 68 71 63 56 54 50 44 38 36 39 47 46 46 46 47 45 39 37 37 39 39 41
57 72 73 80 82 86 85 92 95 94 90 90 83 77 78 83 76 79 78 76 73 72 72 70 61 61 50 38 42 38 40 43 44 44 48 49 53 45 39 38 36 36 41 41 40
57 68 70 76 74 79 82 87 88 87 87 91 86 83 78 78 76 77 73 67 66 64 64 55 57 52 46 41 43 42 44 50 52 53 54 53 46 40 32 36 47 49 40 41 42
50 66 71 76 74 73 75 79 85 85 87 88 87 87 84 74 70 72 72 71 70 69 64 58 57 53 50 50 47 47 46 46 49 47 40 36 31 34 47 54 42 36 36 38 41

GFSSW_prec_cthk_012.txt.gz
RH
31 33 36 38 36 37 43 47 53 59 59 64 58 60 61 61 61 60 53 41 39 57 66 64 61 59 56 51 49 46 45 53 50 32 26 29 36 36 35 36 50 53 49 43 39
36 38 39 37 37 34 35 36 38 44 53 57 56 63 66 62 65 61 55 50 42 52 62 67 62 63 57 55 52 49 47 46 53 39 30 32 35 37 36 34 43 47 45 43 43
46 48 45 44 42 38 39 38 37 35 37 41 48 54 65 66 63 56 58 56 47 51 64 66 67 68 62 57 53 49 46 44 52 50 37 32 32 36 37 37 42 43 38 42 44
52 53 51 51 48 44 44 47 43 42 42 42 46 53 66 69 66 60 61 56 54 51 64 67 69 68 63 58 52 49 45 44 49 52 45 32 31 33 32 32 36 38 35 41 43
56 55 62 58 52 52 51 49 48 52 51 52 60 72 85 83 59 57 67 63 57 53 65 68 66 66 61 56 54 52 46 46 48 52 54 41 29 30 28 28 32 36 34 39 39
65 66 73 69 62 57 53 50 52 52 53 58 64 71 87 79 59 59 66 74 63 56 63 71 65 62 64 60 58 52 50 47 48 51 53 51 34 32 23 25 28 30 31 34 37
79 81 83 76 74 68 60 54 57 55 56 64 78 80 73 58 68 56 58 75 68 58 64 71 65 64 64 62 57 57 53 50 45 47 53 51 39 24 23 22 24 27 29 28 32
83 87 86 84 83 78 70 68 69 57 60 69 81 84 69 72 73 57 60 74 72 61 64 71 72 68 68 66 59 58 55 52 44 46 49 47 31 19 20 22 24 27 26 27 30
80 84 89 91 89 86 82 78 73 72 70 77 87 85 74 77 63 54 60 75 81 66 68 84 84 74 72 70 65 58 56 51 47 46 45 44 35 19 23 24 26 28 27 26 28
85 89 92 96 92 94 87 77 79 83 84 86 91 98 74 75 66 56 58 82 88 69 79 94 92 79 77 74 70 60 52 52 49 50 44 43 35 23 26 26 28 29 28 29 28
89 94 97 97 95 97 93 90 84 88 91 81 77 80 79 80 71 57 58 86 92 74 84 88 93 85 67 59 56 59 56 55 51 51 43 43 36 24 27 26 26 28 30 32 30
90 97 98 98 97 97 97 90 85 90 93 84 81 84 83 91 79 59 66 89 90 71 85 98 90 78 74 68 70 56 59 57 56 51 43 45 39 25 28 27 27 29 30 30 26
87 95 98 98 98 98 98 96 94 96 96 84 75 84 86 93 78 60 67 86 90 76 84 93 82 80 81 73 68 66 61 64 61 55 47 44 41 25 23 25 28 29 28 26 25
77 91 98 98 98 98 98 98 98 98 98 90 79 78 84 96 79 67 66 87 87 75 82 93 97 89 85 76 70 76 64 68 63 62 55 45 50 31 23 27 30 29 29 29 28
67 83 98 98 97 97 98 99 97 98 97 84 82 84 79 87 65 64 69 88 87 72 87 91 93 96 89 74 69 73 73 71 66 59 52 49 50 33 24 29 29 28 31 32 31
53 77 94 98 97 98 98 98 98 99 95 87 84 86 86 78 72 65 76 89 94 71 83 89 91 90 91 82 77 79 76 68 65 59 59 49 44 35 26 26 27 29 33 34 33
49 65 82 94 97 98 98 98 98 98 97 89 75 83 79 73 76 72 82 92 95 83 85 86 83 76 74 81 81 80 79 73 71 65 57 45 44 32 22 26 28 32 34 36 35
47 61 73 83 98 97 97 98 97 92 96 91 71 75 77 70 81 87 93 95 96 70 71 85 88 84 79 74 83 82 75 68 66 63 52 46 42 28 22 23 23 29 31 34 35
44 59 69 85 98 97 97 98 94 95 95 96 83 74 76 67 79 83 89 94 92 74 68 73 80 74 73 61 84 78 75 64 64 58 58 50 38 29 26 27 28 30 31 35 36
45 58 73 97 99 98 98 98 97 95 93 92 89 78 72 75 97 90 94 92 91 79 63 66 68 64 57 67 72 70 68 67 66 64 60 50 42 38 30 31 32 32 33 36 38
51 69 82 99 97 98 98 97 97 91 86 87 81 77 74 89 90 87 90 91 86 80 72 62 62 71 67 61 70 68 62 60 60 62 58 54 41 32 30 30 37 40 40 40 42
54 72 90 98 98 97 97 97 95 93 90 93 89 82 72 79 84 88 91 86 78 74 71 65 63 70 64 59 64 64 60 58 63 59 56 51 41 29 34 36 41 42 43 46 49
58 79 94 97 99 99 97 95 92 93 94 94 88 85 75 78 83 83 94 86 78 76 71 66 67 78 74 67 61 59 58 60 60 58 53 48 40 33 36 39 42 43 45 47 46
63 80 91 95 98 98 98 96 96 96 96 90 83 79 82 83 87 94 94 87 79 77 73 69 70 65 66 61 64 65 62 60 61 59 48 43 33 35 41 44 48 49 46 42 41
56 69 80 92 94 96 94 96 98 97 93 84 86 80 77 83 86 91 86 85 83 81 80 73 72 69 66 64 65 65 68 61 51 36 40 35 44 47 45 49 48 42 38 39 48
45 61 74 81 83 92 89 95 96 91 90 84 83 83 76 74 74 82 81 79 74 77 78 76 73 68 67 61 54 50 53 45 37 37 39 43 47 50 52 49 45 37 42 51 45
43 63 71 82 82 84 82 90 90 88 94 84 82 83 85 82 77 80 76 76 74 72 73 76 71 64 69 64 57 44 40 51 49 48 49 54 53 54 51 43 40 51 55 46 37

GFSSW_prec_cthk_015.txt.gz
RH
33 33 31 33 33 34 38 45 48 49 62 57 65 66 62 61 53 48 49 48 49 45 49 68 64 61 59 56 53 49 46 42 48 51 36 26 30 32 35 34 41 46 52 51 49
39 39 38 38 36 36 37 36 36 39 45 48 55 59 62 64 60 50 45 52 52 47 51 61 71 65 63 58 56 53 48 42 44 52 45 33 32 35 35 34 37 51 53 50 47
43 45 45 43 44 45 43 43 39 37 38 39 41 47 56 61 60 50 49 45 53 54 50 58 71 71 65 61 58 53 46 44 41 48 52 40 33 34 35 36 34 40 47 44 43
55 53 51 50 52 50 47 43 45 43 40 38 39 43 47 52 53 47 47 45 49 57 51 58 68 78 68 64 58 53 48 45 42 46 51 51 37 31 34 34 34 36 42 43 38
60 57 55 61 60 56 54 51 49 48 47 45 46 48 49 53 44 52 56 54 47 63 55 59 70 76 73 63 61 56 51 49 46 46 49 53 45 35 29 32 33 33 38 36 37
64 65 68 70 71 68 63 56 54 52 48 48 52 58 61 56 53 62 58 56 59 68 62 67 75 74 72 66 63 56 54 51 48 47 48 49 48 40 25 28 30 29 31 33 36
68 75 74 76 77 76 74 68 59 54 50 52 55 60 62 56 63 69 67 59 64 67 65 67 68 76 73 71 63 62 60 54 47 46 46 45 42 48 32 23 21 25 27 30 33
66 75 77 81 83 84 82 75 63 58 54 57 62 67 70 69 69 65 74 73 69 69 68 70 84 84 76 71 66 64 63 59 47 45 43 41 43 46 29 18 23 23 27 30 29
63 75 77 81 85 89 89 83 77 73 67 60 69 76 76 71 72 71 80 77 75 78 74 82 91 92 81 73 67 67 64 54 51 44 43 41 38 41 27 23 25 26 29 29 28
64 76 82 88 91 93 95 97 90 85 78 77 82 93 81 75 73 70 79 76 81 90 85 87 97 95 82 75 78 64 60 54 50 47 44 41 38 41 29 25 26 27 29 30 29
61 74 83 90 93 95 97 97 95 90 84 80 83 84 82 81 74 72 77 74 82 97 84 84 97 94 81 75 66 61 62 55 49 51 46 42 37 40 30 24 27 27 29 31 31
53 69 83 93 95 95 96 95 94 87 90 88 90 88 78 85 86 80 78 73 83 94 87 92 95 90 83 72 67 65 62 56 55 51 49 44 38 39 31 23 25 28 31 30 29
48 62 80 95 96 95 95 97 95 97 97 91 89 83 82 80 86 86 73 68 83 91 83 90 90 87 86 77 73 67 59 59 60 58 54 44 37 40 34 25 24 28 32 31 30
34 54 71 94 97 98 98 98 97 98 98 93 92 76 77 87 86 85 72 71 91 88 79 96 96 88 85 81 70 69 65 61 65 66 61 48 45 42 37 25 25 28 32 31 30
37 43 62 90 98 96 97 98 98 98 98 92 92 76 72 80 88 78 67 78 85 86 84 94 97 83 86 73 70 71 69 70 68 65 56 50 49 41 37 24 25 31 34 32 31
43 45 56 77 94 98 98 98 98 98 96 97 93 80 82 88 91 83 67 81 95 86 84 97 95 89 78 82 78 68 76 70 67 62 57 49 48 43 30 25 25 29 31 33 31
47 49 57 71 86 98 98 98 98 98 94 97 87 83 82 90 92 84 69 86 98 93 89 95 94 97 85 84 81 76 79 92 80 70 58 50 49 38 30 27 27 28 31 35 33
44 47 58 69 84 98 98 98 98 89 95 91 73 84 86 87 86 82 79 92 97 90 80 97 95 91 93 88 90 88 79 78 72 67 56 52 46 32 29 28 26 25 32 35 35
44 45 58 68 89 98 98 98 92 93 96 93 75 79 82 82 80 80 78 92 92 85 71 82 81 80 82 82 87 89 90 74 67 62 60 50 41 35 33 31 32 29 31 34 35
40 47 63 83 98 98 98 97 95 97 97 91 73 67 73 72 82 81 76 87 90 84 72 72 75 70 75 78 83 81 81 83 70 68 63 53 46 43 37 36 37 34 33 35 35
40 56 75 95 96 98 98 97 96 93 96 90 77 67 60 67 83 81 83 92 92 87 76 67 68 69 71 72 70 75 80 80 70 64 58 54 45 40 37 35 35 36 35 37 39
43 60 76 97 96 97 98 96 96 96 93 92 74 65 57 59 80 87 82 90 86 83 76 66 65 77 66 70 72 65 73 70 69 64 62 58 51 40 35 32 34 38 39 42 45
48 66 85 95 96 96 96 96 95 95 92 94 85 61 65 71 87 77 77 82 87 81 73 68 69 76 76 68 65 63 64 67 66 65 59 58 51 42 39 38 36 39 41 44 48
49 71 89 93 98 98 97 96 96 96 96 95 88 77 72 76 78 76 83 84 80 82 75 71 71 66 66 61 62 62 59 65 65 69 60 56 53 45 34 34 40 43 47 50 52
41 61 84 91 96 98 98 97 96 97 96 97 89 83 75 79 83 78 83 85 82 80 77 75 72 66 62 60 58 59 59 58 59 57 61 58 60 35 34 38 43 47 52 54 51
36 53 72 77 86 95 98 98 95 97 94 88 83 77 74 71 72 77 68 81 78 79 79 75 74 69 67 67 65 65 65 62 63 66 65 55 39 30 36 41 47 53 55 51 42
34 41 67 77 85 93 90 93 97 96 91 84 79 77 83 77 75 77 80 81 78 79 77 79 74 73 74 71 69 64 59 60 59 63 50 42 28 39 45 51 57 56 48 43 50

GFSSW_prec_cthk_018.txt.gz
RH
27 32 32 32 32 32 33 40 49 53 59 64 58 62 58 57 58 54 48 40 46 45 49 40 58 63 65 62 56 51 47 44 38 38 48 36 26 26 30 32 33 40 40 43 47
32 35 37 36 37 35 35 35 38 40 46 53 54 56 58 58 58 57 51 46 42 46 48 52 54 68 68 63 61 53 49 44 40 36 44 45 34 30 31 33 34 38 44 50 53
38 42 46 47 46 45 44 43 41 38 36 37 40 42 44 48 56 50 46 48 47 46 51 54 57 68 68 64 62 56 48 47 42 40 42 48 41 32 32 34 35 38 50 54 54
43 48 48 49 49 50 51 48 45 47 44 40 39 39 41 44 45 50 44 44 44 50 49 54 59 67 70 68 63 57 50 49 45 44 41 46 48 35 31 33 39 36 41 47 47
46 51 50 54 60 60 57 52 51 50 48 45 42 43 45 49 47 46 48 44 41 47 55 51 62 68 66 70 66 59 54 51 48 46 43 43 48 47 32 28 37 36 34 41 41
45 52 58 66 68 67 66 63 56 54 55 54 51 51 52 52 41 38 40 40 44 45 58 54 61 69 72 73 69 60 58 54 52 48 46 42 45 46 43 29 31 33 32 36 39
39 52 62 71 74 73 71 69 66 58 56 57 56 54 54 46 46 44 42 41 41 46 50 58 63 79 71 76 75 67 62 60 53 50 47 43 40 45 49 36 27 24 26 28 33
32 49 59 67 73 79 78 78 75 71 62 57 64 63 58 49 47 46 49 48 46 45 53 59 69 88 83 73 75 74 70 65 50 52 46 45 38 43 45 38 26 23 22 25 30
27 44 62 65 69 76 81 83 81 80 77 71 70 73 63 54 51 55 56 55 55 56 56 62 77 91 92 79 80 80 67 62 55 51 48 44 39 40 40 36 31 23 24 27 29
25 38 58 67 75 84 85 86 88 87 89 88 79 80 67 63 63 63 66 66 70 74 73 80 83 91 92 85 81 75 69 54 56 50 44 42 37 39 40 36 28 24 25 28 30
27 33 51 70 75 86 91 91 92 93 93 86 81 77 74 77 74 75 71 77 79 89 90 86 89 90 89 76 72 71 59 59 56 54 47 44 39 38 40 37 30 24 26 27 30
31 32 44 63 74 89 95 93 95 93 94 95 92 90 87 86 84 77 78 75 82 80 96 92 88 82 93 86 71 66 64 59 60 50 48 46 38 38 39 35 31 24 26 27 31
35 35 41 52 72 89 96 97 97 97 97 93 95 96 92 87 77 87 81 70 76 82 97 82 81 89 91 81 76 74 66 61 60 56 54 49 38 34 34 34 32 23 25 29 31
43 40 43 46 62 85 97 98 98 98 97 91 93 94 93 83 78 78 86 77 84 88 97 85 90 90 89 79 71 75 64 64 65 68 64 50 44 35 32 33 33 27 26 30 31
52 50 49 49 64 79 95 97 98 98 96 90 95 95 88 76 80 71 87 81 81 93 97 90 93 95 93 71 72 69 67 66 68 71 64 53 50 35 34 33 32 25 28 31 31
59 57 53 49 62 78 97 98 98 98 94 96 96 96 82 76 80 92 84 81 88 95 91 81 89 93 80 83 80 80 73 72 71 67 62 49 45 37 31 29 29 26 28 32 32
66 62 52 47 62 82 97 98 98 97 92 97 97 92 76 80 87 96 83 91 98 91 96 87 95 90 84 89 86 79 76 90 88 79 57 44 44 37 35 31 29 28 28 30 33
68 73 52 46 61 83 98 98 98 88 94 96 89 82 76 80 85 94 85 86 97 89 91 96 99 96 86 81 82 77 70 67 68 60 52 51 44 35 33 34 33 29 30 31 34
70 75 54 48 68 91 98 98 91 92 96 97 88 79 76 78 80 87 71 83 89 93 95 90 94 97 90 84 83 86 77 69 60 55 50 44 40 35 33 33 32 31 30 32 36
71 77 45 57 76 98 98 97 95 95 97 96 86 66 69 70 74 76 79 77 81 87 91 81 94 95 97 90 86 82 75 79 64 60 56 46 42 40 37 35 35 32 33 35 38
73 69 52 67 87 98 98 97 96 95 96 97 83 63 59 65 67 70 73 82 75 81 88 81 78 86 91 93 84 85 92 82 66 60 53 47 41 38 36 34 33 35 36 39 41
72 71 58 69 90 98 98 97 95 96 97 93 79 54 53 57 63 77 69 82 73 75 82 78 70 76 88 79 80 80 79 77 75 65 56 50 43 41 39 37 34 36 39 43 43
68 77 60 77 93 96 97 97 96 96 95 95 81 57 51 54 63 79 77 76 82 74 73 71 68 73 75 77 75 74 75 75 69 60 60 59 47 42 44 45 40 37 40 42 44
70 80 62 81 95 97 97 97 97 95 94 96 93 70 51 60 62 65 76 80 84 79 74 70 66 58 61 57 57 62 66 65 64 70 59 52 51 46 48 52 45 37 41 44 47
67 74 59 85 91 96 97 96 96 97 97 98 88 69 59 56 72 68 71 79 85 81 81 77 67 63 59 59 55 56 61 60 60 53 59 52 58 51 53 54 40 36 39 43 48
72 60 57 80 87 96 98 96 96 95 95 96 91 76 63 60 70 65 69 72 77 80 80 77 74 67 63 61 59 57 55 57 58 58 52 51 50 50 56 47 37 40 44 48 55
82 61 45 63 79 95 97 96 97 94 95 90 87 82 74 64 69 75 71 81 81 78 78 79 77 74 72 67 65 62 54 53 51 52 50 49 48 57 47 38 35 39 46 55 58

GFSSW_prec_cthk_021.txt.gz
RH
21 24 30 31 31 31 30 32 38 45 55 59 57 57 60 61 62 59 54 49 44 39 38 41 42 49 58 55 58 55 54 49 43 43 39 41 42 28 24 29 31 30 36 37 37
22 29 35 37 39 39 37 37 36 37 44 52 61 60 61 61 60 60 50 51 48 42 41 46 45 48 57 58 57 58 54 47 43 47 44 42 42 42 25 26 31 33 37 39 39
25 34 39 42 41 42 43 42 42 39 38 40 46 53 59 57 56 52 49 45 47 46 42 43 48 55 59 61 58 58 56 50 47 49 47 39 39 45 34 25 30 35 37 39 40
29 37 40 41 42 44 49 50 49 47 47 44 42 42 44 51 49 52 39 38 39 47 49 47 45 51 57 63 65 61 54 54 53 52 48 41 38 41 42 28 32 36 38 41 48
27 38 41 41 49 55 58 58 54 51 50 49 46 47 49 53 47 50 42 41 41 43 50 49 44 50 50 57 69 67 57 57 55 53 48 44 37 38 42 35 30 34 36 42 46
22 35 42 49 56 62 64 65 61 56 53 52 54 52 52 55 46 47 49 43 42 43 43 51 50 49 55 58 63 68 60 58 60 55 50 47 38 37 40 50 30 28 33 33 38
21 28 37 48 59 66 67 68 69 66 59 56 59 58 62 54 50 49 44 41 38 41 50 48 55 57 57 62 60 69 68 63 60 60 54 51 41 35 43 50 38 25 23 28 30
23 23 33 44 58 60 65 69 70 69 68 60 58 70 68 57 54 51 49 48 44 39 39 46 49 57 66 68 69 66 78 72 63 58 52 52 39 37 40 43 40 31 23 24 25
32 25 26 37 56 60 70 71 73 74 73 68 63 70 71 64 59 53 54 50 50 48 44 47 55 56 64 76 82 75 68 67 70 58 52 52 40 36 38 39 40 37 29 26 26
38 32 27 32 49 61 69 74 78 82 83 82 82 83 70 68 63 60 58 55 56 55 55 52 56 59 64 85 86 63 67 68 65 57 54 51 44 39 39 36 38 37 34 28 27
43 37 31 33 46 58 67 73 83 90 89 86 83 79 77 72 72 69 67 67 68 68 69 63 70 69 51 71 65 69 71 68 58 55 57 52 45 37 37 36 39 38 33 26 28
42 39 35 36 46 59 66 70 84 90 90 92 88 85 86 87 84 81 79 76 77 74 72 88 90 59 45 67 87 70 74 62 60 59 58 51 43 38 38 37 38 40 36 27 28
44 40 38 41 47 51 60 68 87 93 94 91 90 90 95 93 90 87 87 82 76 76 79 85 60 61 63 80 94 86 75 59 64 64 57 52 45 38 36 36 37 37 36 29 30
53 45 44 49 53 53 60 72 92 97 95 85 86 88 95 97 92 86 88 84 80 77 82 91 83 91 75 85 86 82 70 64 68 68 63 59 47 41 35 34 33 34 36 33 30
57 52 51 55 65 58 60 75 92 99 95 85 88 89 92 95 86 81 66 88 83 81 92 83 84 93 82 91 93 72 70 69 73 68 69 65 58 37 40 33 32 32 35 36 30
60 62 59 63 64 61 60 77 95 98 94 93 95 95 95 93 79 85 73 88 88 88 97 82 84 88 69 92 91 77 74 78 76 72 72 54 54 40 41 35 31 32 36 35 32
63 68 70 69 63 64 66 78 98 97 90 96 97 96 86 75 70 79 89 91 95 94 98 88 94 92 93 96 95 85 86 95 91 81 58 51 53 46 36 31 29 30 33 34 32
66 72 75 78 65 65 69 87 97 87 91 97 96 92 79 68 70 81 95 96 86 91 99 97 98 97 92 95 88 89 79 69 73 63 52 51 48 41 36 37 33 32 33 34 33
70 74 76 83 70 66 73 92 94 92 95 97 97 95 77 68 77 82 94 83 82 89 98 92 91 94 96 95 88 88 75 71 63 53 54 50 45 38 34 36 34 33 35 35 34
71 76 76 86 72 71 78 96 96 94 96 97 97 84 69 67 73 75 83 74 78 86 93 94 97 91 95 91 88 77 69 75 61 60 55 50 46 45 35 32 34 34 37 37 34
73 78 75 82 78 73 83 97 97 95 96 98 96 84 59 60 64 73 75 73 69 81 94 96 98 98 91 95 87 87 77 70 60 56 54 51 46 42 37 35 34 34 35 37 37
75 78 78 80 79 70 94 97 96 95 97 97 88 74 56 57 59 66 73 70 71 78 93 93 94 98 94 88 82 78 72 67 62 61 52 49 49 41 38 36 34 36 38 41 41
76 77 79 83 68 78 97 97 97 97 97 96 87 68 53 56 59 67 70 68 84 80 83 85 82 98 98 92 87 82 79 71 67 61 57 54 52 44 42 40 39 36 39 42 43
77 79 79 84 63 88 97 97 97 96 96 94 87 65 53 51 52 64 70 71 79 76 84 83 76 71 75 76 82 76 75 73 68 65 59 55 56 51 47 46 43 42 41 42 44
77 75 79 76 75 93 97 96 97 97 96 93 96 71 53 50 52 58 63 71 76 81 80 81 71 64 60 63 64 70 72 73 74 68 61 57 56 54 54 55 50 51 49 43 42
75 72 83 71 66 91 97 96 97 96 97 97 97 70 55 47 48 61 70 75 77 78 75 78 72 67 64 59 58 58 56 59 58 59 55 54 52 57 51 51 54 52 50 42 43
76 77 80 55 60 86 94 96 96 96 94 94 92 82 62 54 57 71 70 72 77 81 79 81 77 71 71 62 60 60 51 48 48 48 51 50 48 52 48 51 53 49 45 41 42

GFSSW_prec_cthk_024.txt.gz
RH
15 18 22 28 30 29 30 32 34 37 45 53 55 61 60 58 55 53 52 52 51 45 42 39 41 38 43 52 53 55 55 55 50 48 45 43 42 38 34 23 28 29 30 38 34
16 19 26 33 35 35 34 35 35 35 40 45 51 54 57 59 60 55 48 48 51 51 43 42 45 45 39 49 56 54 54 45 47 48 48 46 45 38 40 33 23 32 33 37 34
18 22 31 35 36 36 36 38 40 40 38 39 45 49 52 62 59 54 48 42 49 50 49 48 46 50 50 47 56 54 51 46 42 47 51 50 46 41 39 42 26 28 37 36 36
18 22 32 34 33 35 40 44 46 46 46 46 43 42 43 47 53 51 45 43 42 51 52 52 50 49 54 54 54 57 50 48 42 49 55 52 46 43 37 37 39 29 34 35 34
20 21 30 33 34 41 46 51 52 53 50 50 49 46 47 49 48 50 43 41 41 43 46 50 54 51 52 53 56 57 56 52 49 47 52 56 50 43 39 34 44 32 29 32 35
23 21 26 32 37 45 50 52 55 56 54 55 55 55 51 55 49 49 48 46 46 47 45 51 54 53 52 53 54 59 59 56 55 51 50 53 49 46 38 36 38 42 29 29 34
28 24 22 30 34 46 51 54 56 58 57 54 60 63 65 54 53 52 54 53 49 47 47 50 52 61 55 54 55 57 67 64 53 52 52 53 49 46 39 38 34 44 35 24 28
30 28 25 27 31 39 49 53 57 60 63 61 59 60 61 58 53 54 55 49 46 43 43 49 57 56 59 64 59 66 65 65 43 52 50 55 51 45 45 42 34 40 39 28 25
34 36 32 26 31 32 44 54 58 60 67 67 64 66 61 57 58 55 56 54 51 50 48 43 47 54 55 66 73 63 63 54 55 53 52 51 50 44 45 40 35 38 41 33 30
37 41 42 31 35 38 42 54 57 57 65 72 77 78 67 67 66 62 63 63 62 58 59 58 54 57 57 61 58 55 64 53 56 50 56 53 50 48 46 42 35 34 37 37 33
43 38 45 38 35 42 45 53 59 58 62 70 72 71 74 75 71 69 66 65 68 66 67 68 67 60 48 49 40 46 58 67 57 55 59 54 49 50 49 43 37 34 36 38 37
46 41 47 40 39 50 51 52 57 56 63 71 75 76 78 81 79 77 76 75 76 76 74 77 76 46 51 51 51 52 59 69 70 60 61 56 50 53 48 42 35 32 35 39 36
48 50 45 40 45 52 54 53 54 63 71 71 73 78 81 85 86 84 85 84 80 81 79 82 58 71 69 62 63 53 61 61 76 63 65 66 55 52 44 38 35 33 36 41 36
55 53 50 43 49 53 57 62 61 70 76 71 77 81 87 91 89 89 90 92 91 84 84 84 67 74 79 71 67 62 43 69 87 77 76 68 62 47 42 37 34 34 35 39 36
67 57 55 48 55 66 68 62 69 75 81 74 82 85 87 92 90 86 86 93 95 89 86 86 74 75 81 77 68 49 46 77 85 89 77 76 69 48 44 39 36 34 33 37 36
68 66 61 57 58 65 71 66 70 80 79 80 88 91 92 94 93 87 86 89 92 93 89 83 82 93 70 69 63 53 72 88 80 83 90 70 68 52 44 38 38 35 33 35 37
70 70 64 62 65 68 75 71 79 79 67 93 94 94 93 94 85 80 82 84 85 96 89 84 89 82 91 86 70 75 93 98 99 97 89 56 65 53 42 40 37 34 34 35 37
76 69 66 69 72 78 82 76 78 55 82 95 96 94 96 89 76 69 83 89 77 83 90 91 79 85 86 86 68 79 98 94 88 92 70 56 65 51 45 39 37 34 33 34 37
79 71 69 74 79 82 83 77 67 67 94 97 97 98 97 85 68 68 75 77 78 86 96 98 96 93 84 90 88 94 98 89 68 52 56 56 51 45 44 42 38 36 35 36 36
80 72 69 80 83 85 82 79 64 87 96 97 97 93 90 76 69 84 84 76 78 85 89 93 98 95 91 94 93 91 85 84 70 67 68 63 55 47 43 38 36 37 38 38 38
77 75 70 81 86 84 79 76 76 95 96 97 95 88 80 71 67 83 91 73 79 87 91 93 96 95 97 92 94 98 94 78 61 58 69 66 59 46 40 36 34 35 38 41 41
77 79 71 84 86 81 83 68 92 97 96 96 92 86 76 61 66 72 77 70 72 83 94 92 98 99 98 90 91 88 79 72 65 67 66 57 55 45 43 38 37 37 40 41 40
79 77 79 83 81 83 82 79 97 97 96 97 97 82 70 67 63 64 73 72 75 76 81 96 98 97 95 91 96 93 77 70 65 62 69 61 59 49 44 41 40 39 40 43 43
85 79 83 83 81 87 78 86 98 97 96 96 93 81 71 66 56 66 69 73 75 76 80 93 96 98 98 78 76 81 77 72 71 68 63 59 55 53 48 45 43 41 42 43 44
81 78 76 81 86 88 78 93 97 98 97 96 90 80 71 59 54 61 72 77 80 80 84 90 94 92 84 80 79 76 74 74 69 62 63 62 55 55 55 49 45 45 47 49 49
80 79 78 80 89 84 84 94 97 97 97 96 90 76 68 57 50 58 70 74 75 80 80 81 89 79 70 76 77 76 75 73 68 67 63 63 59 57 55 56 53 57 54 53 53
81 75 77 81 91 79 64 93 96 96 95 92 91 84 64 59 55 77 63 66 80 77 78 83 85 76 77 65 67 68 60 62 66 62 60 64 57 61 60 60 56 52 52 52 53

GFSSW_prec_cthk_027.txt.gz
RH
17 16 18 22 27 29 28 27 27 30 34 43 48 55 57 54 54 53 48 48 46 45 42 38 37 39 38 42 49 51 56 49 43 46 43 49 47 43 37 34 27 30 33 37 34
19 17 19 25 30 32 32 31 30 29 31 37 46 48 57 56 55 51 45 48 50 47 45 44 42 45 44 40 49 53 54 47 40 41 44 48 50 45 40 37 36 27 34 38 35
19 19 20 27 31 30 31 32 32 34 34 33 35 42 47 52 52 43 43 44 47 53 47 46 45 47 48 46 47 48 51 47 42 42 44 49 54 48 42 39 37 33 33 41 37
23 20 21 28 30 29 33 38 38 40 40 41 41 39 40 46 51 49 47 41 46 52 52 49 47 51 50 53 47 53 47 49 45 44 43 46 50 48 44 40 37 41 33 35 34
27 23 21 27 31 30 36 43 44 44 44 45 46 45 46 47 46 47 45 45 43 44 45 51 54 55 51 49 51 53 51 50 43 44 42 46 47 46 46 43 41 34 41 31 30
30 29 23 24 32 33 36 44 46 46 44 43 44 48 51 55 45 44 45 46 47 45 45 48 52 53 56 53 53 51 51 48 49 47 45 47 46 44 42 44 42 36 32 38 31
36 30 26 24 28 32 35 42 48 51 48 47 46 50 54 53 45 49 53 54 51 51 49 47 52 58 60 54 50 49 50 47 44 49 50 53 47 45 37 46 42 37 32 36 39
41 34 30 25 27 30 32 36 41 48 53 51 50 48 51 50 47 51 50 51 55 51 49 48 50 53 59 59 53 53 52 54 49 49 50 61 48 44 39 45 43 39 36 34 37
39 40 38 34 28 31 31 33 41 50 50 52 50 46 48 50 51 49 55 53 53 54 50 45 52 54 53 61 63 62 63 62 55 54 58 59 51 44 44 46 45 42 38 34 35
49 45 40 44 34 36 35 35 43 50 53 54 53 55 52 55 56 55 59 64 64 62 61 58 53 52 54 62 64 60 63 59 58 45 59 58 52 44 42 44 44 43 39 36 35
53 55 45 45 43 36 42 42 46 52 53 51 48 45 49 57 61 62 62 66 71 70 69 65 64 62 57 57 57 55 57 62 53 55 58 51 56 44 42 46 46 43 39 37 33
50 55 54 51 46 35 45 46 46 50 51 47 49 55 56 63 67 72 75 76 75 76 74 73 64 65 59 55 64 60 60 54 47 55 65 57 55 40 43 44 46 45 40 39 34
50 59 59 56 51 40 46 49 53 54 60 57 53 57 63 73 80 81 81 81 82 87 86 80 67 68 71 70 68 65 66 50 47 53 61 66 63 50 43 44 46 46 42 40 35
60 60 63 59 52 45 50 53 60 64 65 58 59 64 69 81 82 85 86 88 87 88 91 86 78 79 83 79 74 72 53 52 49 61 73 71 76 53 47 39 45 46 42 39 37
68 65 63 63 54 52 51 59 64 64 68 58 63 64 77 84 82 83 87 92 95 92 95 90 82 81 84 69 84 65 63 62 61 61 73 75 84 54 46 43 43 41 41 37 36
76 72 69 64 61 69 64 61 67 70 68 64 65 76 88 86 88 88 89 90 89 95 98 94 90 90 74 71 78 67 78 70 64 68 88 69 85 67 47 39 37 39 40 38 38
86 79 76 69 66 72 68 64 74 72 57 68 71 87 89 88 89 88 86 80 82 88 92 96 89 82 84 84 80 82 93 88 84 80 69 65 86 78 43 38 37 42 40 39 38
94 89 81 76 75 73 73 72 73 55 64 67 81 90 93 87 87 82 74 76 79 81 87 89 85 77 75 64 74 77 87 84 78 58 51 78 98 57 47 43 42 43 41 41 40
99 97 89 73 79 80 75 73 61 63 69 75 94 96 92 84 84 74 71 70 71 78 84 91 91 81 80 77 78 75 92 55 76 79 78 77 71 51 46 45 47 43 42 40 38
99 98 83 83 88 84 78 67 65 73 76 89 98 95 89 86 81 74 67 63 71 74 78 90 95 85 92 96 89 82 74 80 91 96 98 80 58 46 43 46 46 42 40 40 38
99 98 85 92 90 84 73 68 71 75 78 96 97 96 89 88 74 69 66 66 70 80 86 96 99 94 98 90 71 82 88 79 88 84 96 78 58 47 48 45 45 42 40 41 40
97 90 81 98 87 80 72 73 79 79 90 97 96 97 89 83 78 67 66 68 72 85 95 93 93 91 94 88 90 88 83 80 87 98 92 66 55 47 48 43 39 38 38 40 41
86 93 85 97 89 74 74 78 84 85 97 97 97 97 86 77 77 64 61 59 79 86 92 96 97 97 94 94 96 96 88 83 92 90 74 64 58 52 49 45 38 40 42 41 42
90 89 98 95 76 74 81 82 87 92 97 97 97 93 88 77 71 69 63 65 74 80 87 94 98 99 99 95 92 95 96 95 91 86 76 65 58 52 48 45 42 42 43 44 44
86 93 92 81 76 74 85 88 82 97 97 97 97 97 86 77 70 65 63 71 80 81 88 96 98 98 88 89 85 88 85 84 88 81 73 65 62 56 50 46 44 44 46 46 47
87 91 72 79 78 87 88 87 81 97 97 97 97 94 85 71 58 58 68 77 86 82 85 91 98 96 94 80 79 81 76 78 79 77 74 73 65 59 54 50 50 50 51 56 57
90 80 95 85 78 88 93 88 80 90 95 96 96 91 79 61 55 63 68 74 77 83 78 83 91 95 92 88 78 78 70 69 69 66 68 71 64 58 58 57 57 57 57 58 57

GFSSW_prec_cthk_030.txt.gz
RH
21 19 18 20 25 26 28 29 28 26 30 36 43 50 51 50 47 47 45 49 46 42 41 38 34 33 36 35 44 48 53 47 39 38 37 45 47 44 40 39 38 32 32 33 36
25 21 20 22 28 30 31 31 32 30 29 31 42 45 55 56 56 53 44 51 48 45 42 41 39 38 38 39 43 51 54 46 34 34 34 45 50 50 44 41 39 36 33 34 37
29 24 21 24 28 30 29 29 31 31 31 30 30 39 44 47 48 43 40 38 41 48 46 44 43 44 43 42 43 47 48 43 36 34 36 40 47 52 47 44 42 39 39 36 36
33 28 23 23 28 28 28 32 35 37 38 37 35 34 36 41 42 45 45 42 41 51 50 48 48 47 46 47 46 46 42 46 42 38 40 40 44 48 45 44 46 41 41 42 36
38 32 27 23 27 29 29 34 38 40 40 40 39 40 41 44 40 44 45 44 43 48 49 50 52 50 50 44 44 48 43 42 43 43 43 43 44 47 42 45 49 46 42 42 40
38 38 33 26 24 31 31 34 37 40 42 41 41 40 40 44 38 38 46 46 46 46 47 47 47 50 54 52 48 44 46 45 45 45 45 45 42 47 43 43 47 48 44 41 37
42 40 39 32 25 29 33 34 36 42 46 45 43 43 46 42 39 39 40 42 46 51 49 48 50 53 55 54 52 50 49 47 45 46 49 51 45 42 43 43 43 45 44 40 37
36 45 44 35 28 28 31 33 34 36 43 48 48 43 39 38 41 42 43 46 48 50 51 53 51 51 55 56 57 57 54 56 44 47 47 55 44 41 41 41 41 42 44 41 38
48 44 44 41 35 30 32 32 32 36 44 47 47 43 36 36 38 41 46 49 52 52 51 54 56 55 57 63 66 64 64 58 55 46 52 52 42 43 44 44 41 40 42 44 40
48 53 58 49 46 37 35 36 35 38 46 50 49 47 42 42 42 42 43 49 54 56 56 56 59 62 63 65 61 58 60 58 57 53 52 53 47 47 43 43 41 41 41 44 41
47 46 60 60 57 50 39 43 42 44 46 44 44 43 40 41 43 50 49 53 58 62 63 63 68 67 63 61 58 57 60 60 55 57 60 58 54 51 48 45 42 39 39 43 44
58 48 51 62 61 60 47 46 42 45 45 42 43 46 46 51 52 52 55 60 64 70 71 75 74 66 61 60 60 63 64 57 54 52 58 61 57 52 45 39 41 39 41 45 45
73 53 56 63 61 59 52 49 50 49 49 49 47 52 55 56 60 63 66 70 74 77 78 78 68 65 68 67 66 61 65 63 61 50 47 54 50 50 38 40 41 39 40 46 44
79 63 57 66 65 57 56 52 60 61 61 52 51 56 58 63 65 69 73 78 81 81 82 84 78 75 78 77 79 72 63 64 62 63 65 64 63 48 43 41 42 36 38 42 45
98 88 71 65 63 56 53 57 66 68 64 51 56 59 60 62 67 72 82 85 87 85 87 86 82 84 83 77 85 75 74 72 72 69 66 53 71 46 45 42 39 34 34 42 44
97 95 87 81 62 56 57 65 73 72 69 58 58 61 65 67 74 80 85 88 89 90 89 88 88 89 80 80 85 84 88 87 86 82 87 49 58 42 42 38 38 35 35 41 46
98 99 97 84 81 61 67 74 74 75 57 64 63 66 65 73 80 87 89 87 81 78 73 77 80 84 90 92 87 87 94 97 98 97 71 50 59 36 37 33 37 37 38 40 45
98 98 93 88 81 72 73 76 75 57 63 60 65 67 70 78 85 85 82 75 68 69 73 75 69 74 79 85 86 88 88 95 95 94 63 66 67 39 27 33 44 39 39 45 46
97 98 98 94 89 80 80 76 65 63 62 66 74 75 81 88 86 82 77 67 59 65 72 73 72 65 65 70 80 86 96 63 94 86 90 62 49 33 31 37 48 41 43 44 47
92 99 99 94 92 81 84 73 66 68 68 76 73 80 87 89 87 83 72 50 57 57 61 72 89 81 88 91 85 73 78 95 97 96 88 65 54 29 25 41 50 44 43 51 49
98 99 96 98 97 89 86 74 74 67 74 80 78 88 94 92 80 77 62 49 57 64 76 84 96 94 96 96 93 97 88 86 72 72 81 77 55 29 32 46 44 49 53 51 48
93 98 99 98 97 86 78 76 65 74 81 84 83 94 95 94 83 77 61 54 64 74 94 94 98 98 93 87 89 83 86 73 78 69 65 83 64 42 41 43 47 55 55 52 50
97 98 99 98 94 87 80 78 73 79 87 88 94 96 94 93 85 71 58 57 67 78 96 97 98 97 97 98 92 92 72 63 65 69 79 94 75 57 51 53 56 54 52 50 49
98 98 98 98 91 88 88 78 78 83 89 92 96 97 96 86 75 74 66 61 64 78 89 97 98 97 97 94 92 97 91 83 77 88 78 94 89 66 52 52 51 48 47 46 47
99 97 83 82 82 87 91 84 79 88 92 95 96 97 95 88 74 71 65 68 75 86 94 97 98 98 97 96 98 89 91 90 83 81 84 76 90 67 55 50 47 48 50 50 50
97 96 88 77 77 88 85 77 84 94 88 97 97 96 95 86 70 58 61 66 81 90 96 96 98 98 99 94 97 96 94 92 93 94 97 86 74 61 56 50 49 50 50 50 53
98 83 79 88 94 91 80 83 90 91 85 91 95 97 90 80 68 60 68 75 81 87 93 95 98 99 94 92 96 98 96 95 97 94 89 80 65 58 54 52 54 54 55 57 62

GFSSW_prec_cthk_033.txt.gz
RH
33 26 23 22 22 27 29 29 29 28 28 30 33 41 50 52 50 49 45 46 46 43 41 40 37 33 33 33 40 44 50 45 37 36 29 35 39 43 44 40 39 39 39 35 32
35 31 25 24 24 30 31 32 31 32 30 29 33 39 46 53 51 53 49 51 47 45 42 41 40 38 35 36 38 48 49 41 37 36 33 36 41 45 46 46 43 43 42 37 35
40 35 30 26 27 30 31 30 29 32 33 30 29 37 44 45 49 46 41 43 46 50 46 44 41 41 40 39 41 45 46 41 40 40 38 37 40 43 45 48 47 46 45 41 39
42 38 35 28 32 31 30 31 33 36 39 37 34 32 33 41 41 40 41 40 39 45 48 48 47 44 46 47 44 47 41 44 44 45 45 41 39 42 43 43 48 49 49 46 44
38 41 39 33 26 32 31 32 37 39 43 42 41 40 38 42 38 41 41 40 41 46 52 52 52 52 51 48 45 50 46 44 43 45 46 46 42 44 41 44 46 49 50 49 46
38 39 40 40 34 26 33 33 38 38 42 43 42 41 40 41 34 33 40 40 40 46 47 49 50 53 56 55 51 47 45 44 46 45 44 45 42 44 38 41 42 43 49 49 47
43 36 41 41 39 30 30 36 39 38 42 44 44 43 43 38 37 34 34 37 40 42 43 46 50 54 58 57 55 52 50 45 45 43 45 42 38 35 36 39 42 40 41 48 48
53 46 43 47 44 35 29 37 39 36 40 44 44 42 40 35 34 34 36 39 38 41 45 49 51 51 54 57 59 59 57 55 40 40 43 46 34 35 35 33 36 39 39 41 47
64 50 52 47 47 40 33 36 37 36 38 46 47 45 37 33 33 33 38 42 45 47 49 52 53 53 54 59 64 62 62 59 52 43 46 49 40 37 36 38 33 33 35 38 42
70 61 51 63 58 46 39 42 40 37 40 49 50 47 37 36 36 37 36 41 46 47 49 51 54 57 58 63 61 59 63 64 60 52 53 49 44 45 43 44 41 36 35 36 36
79 71 60 57 66 62 53 47 43 42 42 45 47 43 40 40 37 39 38 41 46 50 54 54 58 58 56 60 61 61 64 64 61 57 56 53 53 46 44 44 40 38 37 36 36
76 80 77 57 63 64 60 58 49 47 45 43 47 46 46 46 45 44 45 47 50 54 56 60 60 58 59 61 66 69 69 67 61 59 56 50 45 43 41 38 40 37 33 34 36
74 88 86 75 65 64 61 59 57 57 53 43 42 47 48 48 51 50 50 51 55 60 64 65 57 57 64 68 72 71 70 70 65 58 53 54 39 32 30 33 33 32 31 30 32
58 85 88 89 79 67 64 61 56 61 65 56 56 52 51 54 55 53 56 57 63 66 71 72 68 69 70 72 78 76 70 72 70 75 73 54 54 35 31 29 30 29 29 31 31
39 89 99 83 79 72 60 68 59 62 71 54 60 59 60 60 57 61 63 63 67 71 75 73 73 73 76 73 79 77 79 83 84 82 77 57 68 41 33 28 28 34 31 28 29
37 64 99 99 89 75 74 66 67 71 70 61 62 63 63 63 63 61 67 69 74 82 81 72 70 69 66 68 75 82 89 92 97 91 92 64 69 42 32 28 27 29 32 30 32
43 77 98 99 94 94 70 66 78 75 56 62 59 61 60 63 64 68 71 77 82 83 73 70 63 62 65 64 66 74 97 97 98 98 82 69 73 43 30 29 29 29 32 34 35
66 85 96 99 97 91 82 69 74 54 61 60 62 67 71 67 65 72 77 84 78 72 67 66 61 59 63 62 64 67 86 95 96 91 83 70 72 42 32 24 22 27 35 37 37
69 95 97 98 97 96 95 79 61 52 57 60 64 72 72 67 71 81 85 78 64 61 65 69 63 56 61 64 74 81 86 70 93 95 97 75 50 37 34 31 27 31 32 35 37
81 97 98 98 98 98 95 74 62 55 56 59 71 72 72 75 81 89 84 62 54 53 57 62 72 62 71 88 83 85 76 93 95 93 95 74 68 42 33 26 17 20 36 41 42
86 98 97 98 98 98 85 80 66 65 59 68 74 79 80 77 86 91 74 55 48 51 64 70 80 79 91 93 92 96 97 84 80 89 89 79 52 45 42 28 21 26 38 44 48
87 96 98 96 98 97 86 77 70 71 70 73 74 81 83 84 91 90 75 58 49 56 75 81 90 92 89 92 87 88 92 92 85 73 68 80 53 45 50 36 34 38 48 50 55
92 91 96 99 97 97 87 79 68 77 78 77 81 84 89 93 92 88 70 55 57 62 74 90 95 94 94 97 98 97 97 97 88 72 66 64 39 41 46 42 34 49 60 61 62
96 96 99 98 98 91 88 79 77 80 80 78 87 91 95 92 91 82 70 56 58 63 75 90 97 97 94 92 98 98 96 89 90 80 63 55 46 48 48 56 55 60 64 65 63
95 98 94 93 98 92 83 85 82 83 80 85 91 93 95 94 90 73 68 66 67 71 85 94 95 98 97 96 97 98 95 90 80 66 74 65 72 68 66 70 71 74 68 63 62
95 98 94 93 94 96 96 89 85 87 82 87 93 93 94 94 80 73 62 65 64 80 92 97 96 98 97 95 97 95 95 91 86 78 78 87 79 71 75 75 73 72 63 59 57
97 94 96 97 97 96 88 91 90 83 86 92 90 92 93 93 82 74 67 68 73 88 96 98 98 98 97 99 98 98 95 86 87 83 78 93 80 76 70 65 62 65 61 57 56

GFSSW_prec_cthk_036.txt.gz
RH
44 39 36 27 23 24 26 27 29 30 29 29 31 37 46 55 50 46 42 43 43 42 39 38 36 33 31 33 36 42 48 43 37 36 31 30 34 35 38 40 38 39 39 38 38
48 45 39 32 25 27 29 29 30 32 33 31 34 37 42 53 58 52 49 46 45 44 41 41 41 39 37 36 39 46 51 42 36 34 32 34 36 40 40 43 44 44 42 40 40
45 48 42 38 31 26 31 30 30 32 34 34 32 38 41 50 50 46 43 48 49 52 50 48 45 42 41 42 42 46 47 40 37 39 38 37 36 40 41 42 43 48 48 46 45
44 48 45 42 37 28 30 31 31 34 38 40 37 34 37 48 45 38 38 39 41 46 53 54 52 47 46 43 42 45 42 40 40 40 41 42 41 41 40 38 43 45 49 48 46
54 50 48 46 43 35 30 32 35 37 41 43 44 42 40 40 39 42 43 42 40 43 47 52 52 51 52 48 45 48 44 42 41 39 37 40 42 42 39 38 41 43 46 49 48
64 56 53 46 46 43 31 33 35 40 41 42 43 45 43 43 40 37 41 40 43 49 54 57 54 52 53 53 52 51 48 45 43 42 41 40 38 41 32 36 38 40 43 44 50
71 68 61 58 44 48 40 31 36 42 41 43 43 44 45 41 39 38 35 39 38 39 43 47 49 47 50 53 53 54 54 49 44 40 41 40 38 37 32 31 34 37 39 43 42
82 75 70 70 59 48 47 34 39 42 41 43 46 44 43 42 39 38 37 34 36 37 40 41 44 46 49 48 52 56 57 57 45 41 39 42 38 34 33 31 29 32 35 38 38
76 84 74 74 66 58 49 39 42 42 37 40 45 46 41 37 32 32 33 35 37 38 42 45 48 49 50 50 50 51 57 57 53 49 49 48 44 36 35 33 33 34 33 33 36
57 81 81 77 71 73 59 48 48 44 40 43 48 46 40 38 36 36 35 39 42 43 46 47 49 52 53 54 58 56 61 54 53 49 50 50 49 41 39 39 37 35 33 34 35
32 66 81 84 78 75 72 62 54 47 44 42 47 43 42 42 40 40 38 37 42 44 46 47 51 53 50 51 49 55 60 63 58 54 57 54 47 40 37 38 36 34 34 33 31
23 55 90 93 89 79 73 70 56 47 45 41 44 45 44 44 43 42 40 40 45 49 49 53 54 49 49 51 56 59 62 59 55 54 53 49 42 40 35 33 33 33 31 30 32
34 34 86 97 96 83 73 73 58 60 55 46 41 43 45 48 50 47 45 45 48 54 55 54 47 47 55 58 62 63 68 66 63 61 57 56 40 31 27 25 25 26 28 29 28
42 34 71 98 99 91 81 80 64 61 63 56 55 49 45 50 48 43 47 49 53 56 58 59 54 58 62 66 70 69 67 71 73 78 74 64 55 36 32 28 26 23 24 26 28
55 37 54 88 98 98 86 88 71 59 72 57 62 62 62 56 54 55 54 57 59 61 61 59 62 65 70 70 76 75 73 78 81 86 87 71 80 40 37 33 28 26 27 25 25
65 43 33 74 98 98 94 92 75 70 68 61 61 64 65 64 63 63 63 62 64 64 65 63 67 70 71 69 70 72 74 77 83 90 88 63 80 42 38 32 29 25 23 23 26
70 48 39 75 99 98 97 96 89 77 55 62 60 61 60 63 64 63 64 68 68 73 74 72 74 71 64 60 58 64 73 77 78 78 63 60 78 44 35 35 34 31 24 22 24
71 52 43 84 99 99 97 98 86 64 61 57 58 61 61 60 63 67 67 68 71 77 79 78 65 56 54 53 55 62 67 74 77 74 65 63 68 39 34 35 34 29 26 26 28
69 64 49 68 98 98 98 97 78 59 53 56 62 63 67 67 65 68 68 67 65 79 84 75 62 48 49 50 57 68 74 68 91 77 89 66 56 46 35 36 34 37 33 24 30
78 73 64 67 97 99 98 91 79 63 52 51 57 58 63 66 68 71 71 64 71 68 66 62 66 48 50 58 64 73 83 97 98 96 93 69 65 55 42 41 38 34 30 30 37
84 77 70 84 98 99 98 91 77 75 61 57 60 66 62 65 68 72 69 72 71 60 57 62 66 63 72 77 81 96 97 98 92 93 93 82 49 46 53 58 51 44 32 27 29
88 86 83 94 98 98 97 88 84 81 67 61 58 62 68 69 71 72 78 81 73 61 63 63 76 76 71 71 81 86 95 92 98 93 89 87 48 41 58 59 58 50 37 29 37
89 93 97 98 96 95 92 91 87 84 73 71 69 68 75 76 79 76 83 81 73 67 65 66 79 82 75 83 90 97 97 97 93 96 84 86 48 33 42 53 65 56 47 38 51
91 98 98 96 98 95 93 91 89 81 77 76 78 76 80 80 81 87 89 83 68 63 65 71 80 85 88 83 91 98 97 98 98 97 81 70 50 37 45 67 57 52 52 62 72
90 94 96 88 98 96 93 87 88 85 77 80 79 77 80 84 92 93 88 76 66 65 71 79 85 95 92 93 96 98 97 98 98 86 80 54 52 53 60 56 56 55 71 78 76
97 99 98 93 95 98 93 94 86 83 83 81 79 79 79 90 94 93 81 72 65 72 79 87 95 97 94 93 97 98 97 95 95 86 66 57 57 53 52 58 59 68 79 81 79
98 98 99 97 94 96 92 89 87 83 86 79 80 81 88 92 95 94 83 71 65 72 84 97 97 97 90 95 97 99 98 96 95 89 80 80 76 78 74 68 69 74 75 78 78

GFSSW_prec_cthk_039.txt.gz
RH
53 51 47 44 36 28 27 28 29 29 29 29 30 32 38 47 52 48 43 44 45 40 37 34 32 29 30 31 33 39 45 40 34 33 29 29 30 32 32 33 37 36 39 40 40
50 53 49 49 43 36 29 31 30 30 31 31 31 33 39 49 53 50 49 48 47 45 42 42 42 38 34 33 37 43 47 38 33 31 31 31 31 32 34 34 36 37 38 40 41
64 48 55 52 49 40 30 30 32 30 31 33 33 34 40 44 52 50 55 48 49 53 49 47 43 42 40 39 40 45 42 37 36 36 37 36 33 34 34 35 34 37 38 40 41
66 66 50 62 53 45 35 31 32 32 34 36 36 36 37 45 47 41 42 41 46 55 59 54 52 49 45 41 41 44 39 40 37 37 39 37 36 36 35 30 35 37 39 41 43
66 66 65 60 66 47 41 33 34 36 41 41 42 43 42 40 46 44 43 42 40 42 50 56 55 54 51 46 44 46 40 39 38 37 35 35 34 33 33 30 34 39 39 40 42
58 59 67 63 66 61 45 43 34 38 43 43 43 44 46 46 42 40 46 47 48 48 50 51 52 53 51 52 51 49 48 45 41 39 39 39 34 37 27 27 28 34 38 38 40
25 45 64 71 68 69 54 45 37 41 46 45 43 43 47 47 45 42 43 45 46 50 52 54 57 52 51 53 53 52 52 48 45 42 41 39 37 34 29 31 30 28 31 36 37
24 33 58 75 77 74 70 50 46 44 51 48 46 45 45 47 47 45 41 40 42 43 43 43 47 49 48 48 48 50 49 51 44 43 42 40 34 31 30 31 32 30 28 29 30
26 21 44 68 83 80 79 71 48 50 53 47 45 45 41 40 39 41 41 37 37 41 43 44 45 46 47 47 48 46 49 53 46 42 43 45 42 36 35 33 32 32 31 29 28
33 24 33 63 83 87 80 82 63 50 52 46 49 45 39 37 36 36 35 37 39 41 46 48 49 48 48 49 51 51 56 54 52 42 43 42 40 38 36 34 33 34 33 31 30
35 34 25 65 88 94 91 78 76 60 50 40 45 43 40 40 39 40 38 41 45 48 50 50 50 49 46 47 47 51 55 54 48 46 47 42 37 34 33 33 33 32 30 30 30
45 42 34 58 95 96 93 77 71 58 51 40 46 47 45 43 43 44 43 43 45 49 49 52 51 46 47 49 51 52 55 53 49 47 49 46 36 34 31 28 28 26 26 27 26
57 55 41 31 86 98 91 86 78 68 62 49 41 46 46 45 47 45 44 44 47 52 51 51 45 44 49 53 56 57 59 58 58 54 52 50 36 28 26 26 27 27 28 26 23
66 70 57 35 65 91 98 95 85 79 79 58 52 44 46 50 48 45 47 46 51 52 54 55 50 52 56 59 60 62 58 61 65 70 65 58 50 33 30 28 28 27 26 28 25
77 71 63 45 60 98 97 98 93 77 71 58 63 62 55 50 45 49 50 50 54 53 55 54 56 60 62 59 63 63 63 67 70 75 76 65 77 34 36 33 31 32 30 26 25
75 72 63 46 74 91 98 98 96 87 77 63 64 68 67 63 62 60 59 60 60 60 61 58 58 60 60 63 66 67 70 69 68 69 68 46 61 32 27 23 24 27 31 31 26
91 71 57 52 68 84 98 99 98 88 63 63 59 64 65 66 67 65 68 67 66 68 66 62 61 63 66 70 66 64 68 68 68 71 58 44 58 32 22 22 23 26 30 33 31
87 70 57 45 59 94 98 98 96 71 70 59 57 61 63 62 64 64 62 65 64 67 69 67 65 65 63 55 50 55 58 62 67 66 57 56 53 36 31 31 26 26 27 36 36
87 72 56 39 63 94 98 98 88 72 66 61 64 63 65 61 62 62 64 62 60 63 71 74 69 59 53 50 53 59 66 55 70 65 80 57 47 38 32 34 31 38 31 36 34
90 75 66 50 80 97 98 98 85 71 65 65 63 63 64 64 67 68 66 58 61 63 64 70 75 52 51 56 55 63 67 83 92 95 93 70 64 46 40 36 36 39 37 40 34
91 78 65 62 83 99 98 98 84 77 69 65 62 62 61 66 67 68 64 60 60 62 68 74 68 54 60 65 65 79 89 97 97 97 92 81 57 46 43 38 47 52 49 47 41
91 98 70 74 93 97 98 95 90 84 76 67 60 59 62 66 67 65 65 67 65 66 77 75 67 66 58 58 67 76 83 92 97 95 95 91 60 53 50 51 56 69 59 56 48
93 98 79 67 86 93 94 96 93 85 80 73 65 60 62 65 71 68 68 69 70 75 81 68 72 73 64 72 83 92 87 89 97 97 94 96 56 53 52 52 56 69 71 64 57
91 96 90 69 85 89 92 94 93 87 84 73 68 62 65 72 75 74 74 75 76 81 72 64 76 76 80 71 80 96 98 98 96 90 83 86 59 57 54 58 64 69 74 73 60
99 98 91 90 89 85 92 87 91 94 88 78 75 71 74 77 77 79 78 83 84 74 65 71 79 85 87 88 93 97 97 98 94 79 81 64 65 55 55 67 71 71 78 74 63
98 99 99 96 95 95 92 89 87 90 86 81 77 80 75 77 78 84 87 87 74 69 69 80 88 91 92 88 92 98 97 98 85 74 76 70 69 63 59 66 75 77 77 70 71
96 96 97 97 97 94 93 91 89 90 83 80 78 76 77 80 79 85 89 88 78 74 80 85 93 94 87 81 87 88 97 98 88 77 73 78 71 67 68 67 74 77 83 85 82

GFSSW_prec_cthk_042.txt.gz
RH
52 52 52 67 55 45 36 28 28 31 30 30 29 32 36 34 41 46 44 41 35 31 29 27 32 32 31 32 34 34 31 28 25 24 24 27 25 26 27 28 30 31 32 33 35
50 55 58 54 59 62 47 34 29 34 32 32 31 32 37 42 52 52 51 50 45 40 37 35 39 35 31 32 36 35 35 27 28 29 28 28 27 28 28 28 29 31 32 34 34
36 53 52 64 61 59 52 47 31 35 33 33 33 32 39 43 52 49 53 53 51 50 48 46 47 46 39 36 38 38 36 32 34 31 32 34 31 30 27 28 29 32 34 34 36
37 45 49 57 67 65 61 52 37 35 35 34 35 34 36 44 42 42 46 55 53 58 53 53 48 47 43 41 40 39 34 37 37 38 36 35 35 33 29 25 32 33 34 34 36
20 31 56 55 64 69 70 59 47 34 36 39 41 40 37 41 46 42 42 43 42 52 57 62 58 54 49 44 42 42 37 38 38 37 34 34 33 33 33 29 29 32 35 36 38
20 19 35 56 59 65 72 71 56 39 39 43 43 43 46 45 43 43 48 46 45 47 52 55 63 60 55 52 48 45 42 39 36 35 36 35 31 34 27 24 26 27 30 34 37
25 24 20 34 55 63 72 74 62 47 39 45 45 43 46 47 47 46 50 52 55 56 55 56 57 54 55 53 52 48 47 42 40 38 38 38 33 30 25 27 26 27 25 28 33
28 26 22 22 33 56 67 84 75 55 44 48 48 47 46 46 50 50 49 54 53 60 62 59 60 61 54 52 49 47 45 42 39 38 38 39 30 29 30 29 29 29 29 28 27
28 32 32 23 30 54 77 82 82 66 51 57 52 49 45 43 50 53 55 52 53 54 52 53 53 51 48 45 43 41 35 39 38 36 37 38 35 33 35 34 32 29 30 31 29
32 34 33 34 25 52 81 87 88 77 63 58 54 51 44 42 44 45 48 51 50 51 50 47 45 44 42 45 38 36 41 39 38 36 36 34 33 31 32 32 33 32 31 30 29
41 43 47 41 32 43 85 97 89 81 72 50 45 46 44 43 44 43 42 45 44 45 47 49 49 45 41 42 42 41 43 43 39 36 35 29 27 28 26 27 26 28 30 28 27
50 58 56 47 38 46 84 95 78 77 78 57 50 51 50 47 48 46 45 46 48 48 51 52 49 41 41 42 45 47 45 41 39 36 37 34 24 27 26 25 25 25 24 25 24
72 77 66 62 48 35 89 98 96 84 75 69 52 50 53 51 50 49 47 48 48 50 47 44 42 40 45 47 49 48 47 44 44 44 43 41 28 24 22 21 22 23 22 23 24
84 80 70 68 49 49 90 99 98 93 93 78 62 47 51 52 49 48 48 48 47 46 48 48 46 46 48 48 48 49 47 50 52 54 53 49 39 26 24 22 22 22 23 23 24
87 87 69 72 59 62 96 98 99 97 95 72 75 63 53 48 47 52 51 50 49 47 48 49 50 53 54 49 52 53 53 55 57 60 59 52 65 22 20 20 19 20 21 25 26
91 93 86 63 57 70 89 97 98 98 89 75 73 69 62 52 51 55 55 54 53 53 51 48 51 52 52 54 57 59 60 61 62 67 62 38 50 21 15 15 17 18 20 22 24
89 97 93 67 55 71 80 98 98 96 76 79 66 70 66 63 61 55 58 58 57 63 61 57 57 57 59 60 62 66 71 65 63 65 47 33 38 25 19 22 23 23 24 21 22
94 91 78 54 57 68 93 99 97 84 77 70 65 68 73 63 69 66 64 65 59 60 59 59 57 57 60 60 59 64 59 49 50 45 33 45 41 25 28 30 29 33 32 27 24
93 94 69 53 63 80 98 98 95 77 78 71 69 67 70 71 66 68 66 63 61 62 63 60 62 55 57 58 54 55 60 50 61 55 61 45 37 34 39 36 36 38 36 33 27
95 90 67 53 57 75 97 92 94 81 75 72 68 61 60 64 62 63 63 56 57 57 57 62 68 56 60 57 52 54 54 67 76 78 72 55 51 48 50 50 50 45 43 33 31
96 86 81 70 72 93 98 96 93 85 76 74 69 65 59 59 61 63 61 57 56 58 62 64 64 66 60 54 50 65 73 78 83 86 81 77 49 55 56 58 57 55 49 43 39
94 98 69 77 90 96 95 98 90 87 81 73 69 64 62 61 63 61 61 59 59 60 66 64 70 72 55 50 53 57 70 81 96 90 93 89 53 63 64 69 62 61 57 56 48
97 88 72 88 89 97 96 98 93 88 82 77 71 61 63 62 64 61 61 61 63 62 64 70 79 67 57 68 70 81 81 84 94 94 88 92 60 64 68 73 67 61 51 48 55
98 98 87 99 94 91 97 98 95 91 86 81 72 66 66 68 64 66 67 67 68 68 69 76 72 65 64 59 72 92 94 96 98 95 79 71 55 59 65 71 66 56 51 65 71
99 92 69 96 94 87 89 89 93 93 87 79 75 63 60 64 65 68 67 68 71 74 77 73 72 70 74 78 80 88 92 96 98 94 83 53 62 57 54 55 59 66 74 76 80
98 94 94 85 86 85 85 83 84 91 84 83 71 70 67 65 62 68 68 72 76 77 76 69 74 78 86 76 81 88 93 97 96 91 82 73 67 61 60 64 73 80 81 83 77
97 99 94 89 86 88 83 81 85 82 84 76 72 70 70 70 69 68 73 78 80 78 71 76 83 88 84 77 80 88 93 97 93 82 72 77 70 72 76 83 86 82 78 74 75

GFSSW_prec_cthk_045.txt.gz
RH
35 44 51 54 61 61 65 51 40 29 30 30 30 30 35 42 35 32 37 41 40 29 29 33 30 33 32 31 33 35 37 30 27 21 22 27 28 25 25 25 27 26 27 34 33
21 28 37 44 52 65 64 63 52 34 32 32 31 31 34 43 46 41 38 47 41 35 35 36 35 31 32 34 37 40 31 27 23 25 29 29 29 26 27 24 26 27 29 31 33
16 20 28 30 48 51 65 66 60 50 34 33 33 34 35 42 50 49 49 51 48 46 45 43 43 35 30 29 37 40 33 29 30 33 33 32 31 28 27 27 26 28 33 31 33
18 18 22 30 42 48 58 68 62 55 40 36 36 36 37 48 50 47 46 50 53 63 59 50 47 44 37 36 36 38 32 32 37 36 34 32 33 33 28 25 29 32 35 34 31
24 18 18 21 34 43 53 58 73 58 44 39 41 41 40 49 50 45 44 49 55 61 67 61 55 51 47 42 42 42 38 35 35 36 37 34 30 34 35 29 26 29 32 33 34
27 28 21 18 21 51 51 60 68 70 55 40 44 46 49 46 44 49 45 47 52 58 61 61 60 59 52 46 44 42 40 38 38 35 36 33 29 33 26 23 25 26 27 28 33
28 26 27 24 19 25 49 65 69 75 66 48 44 48 55 53 49 47 47 52 50 51 64 63 68 65 62 54 52 48 46 41 34 34 35 33 30 27 22 25 24 23 23 23 26
36 32 29 28 25 21 40 65 69 76 75 57 46 53 54 49 52 50 51 55 57 58 57 63 64 61 57 56 51 48 46 42 36 37 36 37 30 25 26 26 25 23 23 23 23
40 36 33 28 33 28 24 49 77 90 76 71 56 54 55 47 51 55 53 59 64 63 69 69 65 63 59 54 49 48 42 40 38 37 37 38 34 29 31 30 28 28 26 25 24
46 43 36 32 41 35 27 37 69 91 80 85 70 60 50 47 49 56 60 61 64 62 66 71 68 61 56 52 47 42 41 36 33 34 34 32 30 28 29 28 27 29 30 28 28
51 51 49 48 57 45 37 47 85 99 94 75 62 47 52 48 48 51 57 63 66 64 60 59 57 52 45 42 41 41 38 38 35 32 30 28 26 24 22 20 20 21 22 22 24
61 60 68 77 67 52 46 63 94 99 98 80 76 55 52 49 51 51 51 56 55 61 56 58 53 45 45 44 42 41 38 35 31 30 31 28 22 22 19 17 18 18 19 19 20
68 71 82 88 77 56 47 58 95 99 98 88 84 61 53 53 53 49 51 53 53 51 52 53 46 44 45 45 43 40 38 37 38 36 33 32 24 18 17 18 18 18 18 20 21
69 78 83 90 70 68 55 70 96 98 99 92 85 72 56 57 57 54 54 54 54 53 53 51 46 42 42 44 42 42 39 39 40 42 44 39 38 22 19 19 20 19 18 20 22
63 83 93 90 81 68 60 86 97 99 97 85 86 77 59 52 56 57 56 56 53 50 51 52 47 48 47 43 44 46 44 44 45 50 55 44 53 22 19 16 16 18 18 18 19
76 85 85 94 91 68 59 85 98 98 97 90 85 77 68 53 55 57 57 54 53 51 52 52 48 48 47 46 47 48 49 51 55 60 64 41 43 21 17 17 17 16 17 18 18
88 92 93 89 80 70 68 91 98 97 91 89 80 77 74 58 56 58 59 58 54 63 59 52 49 47 47 50 51 56 61 64 69 68 50 29 31 26 18 19 23 26 28 25 22
89 97 94 86 74 69 76 97 97 97 88 78 77 76 78 64 61 56 57 60 53 50 53 56 60 51 56 55 58 60 61 57 60 47 38 35 34 23 23 26 31 34 35 32 30
98 93 91 76 63 70 88 97 95 92 81 78 81 79 79 70 67 63 56 54 49 51 59 56 59 53 57 57 55 62 66 49 59 48 48 32 25 26 32 36 37 37 38 39 40
97 91 94 65 61 79 91 89 98 89 80 74 76 68 71 71 68 63 67 57 56 54 55 58 66 54 56 58 57 54 52 63 68 67 56 35 37 44 48 50 50 46 43 44 48
97 93 96 75 63 84 92 96 98 87 84 77 67 62 60 64 63 64 64 60 59 58 60 58 57 59 59 62 55 57 58 59 59 67 67 63 44 51 54 54 47 44 46 52 55
99 98 95 77 67 89 92 98 96 90 85 77 71 61 58 59 65 67 63 61 57 56 57 58 60 62 65 58 51 51 61 68 84 77 84 81 51 57 58 53 48 47 50 58 65
97 86 84 88 95 94 91 98 96 89 87 79 76 65 61 62 65 63 60 59 57 57 58 58 64 67 70 56 56 64 71 78 85 89 86 93 57 60 57 60 54 53 53 60 59
96 83 86 88 96 91 95 97 93 93 84 77 73 69 68 66 61 61 61 62 61 59 58 60 62 72 61 62 65 88 82 85 98 94 77 73 67 59 62 61 63 60 63 62 62
91 92 88 93 92 95 84 97 92 89 86 80 75 73 69 69 66 63 62 66 65 64 64 65 76 64 58 67 74 79 83 86 97 96 92 67 78 66 71 72 74 71 71 67 68
85 98 98 84 83 94 88 97 92 88 86 77 71 67 63 62 59 63 65 65 66 68 69 72 71 63 77 75 75 79 80 83 90 94 86 82 75 66 69 70 79 82 78 80 83
96 91 91 86 83 86 81 80 82 86 87 78 70 65 63 61 61 62 65 66 68 69 75 77 74 76 74 70 67 81 81 88 94 83 80 78 68 70 71 86 93 94 94 91 89

GFSSW_prec_cthk_048.txt.gz
RH
15 20 22 30 36 40 46 63 58 54 43 31 32 30 31 35 36 37 29 32 40 37 34 33 33 34 32 29 28 29 36 34 29 27 24 22 26 36 30 28 26 27 26 33 43
19 18 18 23 26 34 39 49 63 59 54 39 34 33 32 36 41 42 33 37 46 40 34 34 33 34 37 33 32 35 37 35 26 24 28 28 29 30 29 27 24 26 25 30 32
21 21 20 19 25 28 31 46 56 60 57 50 41 34 34 37 43 35 41 36 44 46 37 36 38 38 34 35 36 34 35 29 24 28 31 31 32 28 30 30 25 26 26 29 27
26 26 23 20 20 26 30 43 50 58 60 53 46 41 36 42 47 45 42 50 56 61 52 49 39 43 40 38 34 35 36 31 30 34 36 34 34 33 32 28 27 28 29 32 30
27 27 26 23 23 21 24 42 48 56 63 61 47 46 42 45 47 47 44 45 60 72 64 62 49 44 43 40 39 38 35 32 32 34 37 37 38 34 32 30 24 24 27 32 33
33 32 32 27 24 27 26 31 44 57 70 66 52 44 51 47 46 45 45 45 51 63 72 74 66 57 53 50 49 47 41 37 34 32 32 33 31 32 27 21 26 26 27 27 29
37 34 36 30 28 25 28 28 39 56 69 74 63 49 51 51 47 42 47 46 56 56 66 72 71 67 59 56 53 50 45 42 37 33 35 33 33 30 23 24 23 23 23 23 24
47 44 40 38 30 26 23 26 28 55 67 76 72 59 53 46 52 47 46 49 51 58 67 69 67 65 68 60 56 51 49 49 31 31 32 37 35 28 27 25 23 22 22 22 21
50 48 49 48 40 33 30 30 24 46 71 83 81 71 54 44 48 52 50 54 59 61 63 69 72 65 64 61 58 52 48 45 40 38 37 39 37 31 32 27 26 24 23 22 21
55 52 54 50 47 43 43 41 29 36 77 97 84 80 55 45 43 48 51 59 68 71 75 75 71 66 61 60 56 50 51 45 43 44 41 39 36 32 31 29 29 28 26 24 23
58 65 62 59 68 62 60 56 33 48 79 88 82 72 52 46 44 48 54 60 67 75 75 78 73 69 62 59 55 52 51 50 43 40 37 34 30 25 23 22 21 21 22 22 23
67 67 69 72 82 81 80 70 52 72 87 97 98 87 66 53 50 52 55 64 68 71 70 70 69 63 55 55 53 48 51 49 41 35 33 30 25 21 18 16 15 15 15 16 17
65 71 82 90 90 85 82 63 58 92 98 97 98 87 67 54 50 51 53 60 68 75 73 70 62 53 54 51 51 49 48 43 40 35 33 30 24 19 17 16 15 15 16 17 17
69 69 73 94 95 96 91 82 64 97 98 98 97 94 75 62 55 53 57 58 58 67 65 65 61 53 51 50 46 46 42 40 38 40 45 37 45 21 16 15 16 16 16 17 18
75 75 74 89 90 87 92 84 83 94 97 97 98 95 78 58 57 58 57 60 61 59 60 62 54 54 50 45 44 44 42 41 44 45 47 37 46 25 17 17 16 17 17 16 16
73 85 89 85 87 90 81 86 96 95 96 98 96 94 79 68 63 57 62 58 59 58 60 58 50 48 47 44 43 46 46 46 48 50 57 41 42 29 20 18 17 16 16 16 16
76 85 93 96 94 89 76 88 95 98 98 97 95 93 80 73 63 59 60 60 60 67 65 52 51 47 46 47 47 50 52 64 69 69 58 32 42 29 19 19 18 19 19 23 24
84 93 91 90 92 78 81 86 96 90 99 95 94 92 79 76 67 60 63 62 55 51 59 57 58 49 47 48 55 57 58 67 63 63 51 39 38 24 18 19 23 27 29 31 32
90 91 90 79 87 69 69 82 84 99 95 97 94 93 85 81 71 61 61 54 51 49 54 57 60 52 53 54 56 62 66 53 60 49 57 36 23 22 25 28 34 36 38 40 42
90 96 90 78 75 64 75 74 87 97 92 90 92 81 82 79 71 58 59 51 49 49 51 55 65 55 61 58 59 59 52 63 66 67 61 41 35 38 42 45 45 47 50 52 50
98 98 89 78 78 77 80 91 92 96 90 87 78 74 68 76 68 63 57 53 48 49 52 55 58 63 63 63 61 61 63 57 57 60 71 68 51 48 51 54 55 56 56 54 52
93 98 91 75 81 91 92 86 98 97 88 77 70 67 65 70 73 64 60 59 54 57 59 63 65 72 63 57 56 59 55 57 66 70 78 83 62 53 56 56 56 54 55 55 52
82 81 83 76 84 93 92 97 98 97 89 79 72 64 62 67 73 67 65 63 62 62 63 63 67 63 64 62 56 56 56 61 72 82 80 88 65 59 50 57 64 68 66 62 59
79 88 93 94 94 93 95 99 97 94 88 79 72 64 65 69 69 69 71 67 65 63 61 59 63 67 76 66 66 67 65 73 85 91 80 74 67 56 57 64 67 70 80 78 72
80 86 92 92 96 89 94 97 94 89 83 77 77 71 69 68 66 65 67 66 63 63 60 62 69 65 64 62 56 63 76 83 90 85 91 69 68 63 70 68 72 80 87 88 84
88 98 94 96 97 93 94 98 93 88 83 76 77 76 67 66 62 59 59 61 62 63 64 65 71 66 67 53 58 77 76 80 81 85 91 82 72 71 64 72 74 83 89 94 93
90 93 88 88 93 94 94 93 88 83 82 75 70 66 67 66 61 61 58 58 61 63 66 70 70 74 64 60 71 79 75 77 83 91 89 87 77 71 67 72 81 84 87 88 86

GFSSW_prec_cthk_051.txt.gz
RH
20 21 20 19 19 22 28 35 43 56 60 61 46 32 29 30 31 34 34 26 28 35 36 34 32 31 30 28 29 31 40 38 30 27 23 20 28 30 33 29 28 27 26 35 37
25 23 24 22 21 21 21 28 37 46 57 61 60 42 33 30 31 34 30 33 32 36 38 36 33 34 36 30 32 35 39 35 27 26 25 25 29 32 32 29 28 27 28 31 35
31 28 26 26 25 26 24 23 30 39 55 58 59 48 42 33 35 27 30 35 39 44 41 37 37 38 38 35 34 35 37 31 28 24 28 30 27 33 32 30 27 27 29 30 30
35 35 33 29 28 26 28 25 23 32 48 62 57 51 43 44 44 43 39 39 40 51 50 39 40 47 40 38 35 38 35 34 30 26 34 33 32 32 32 30 28 26 29 29 29
40 39 38 35 31 31 29 32 29 32 49 60 59 55 45 47 42 44 47 47 52 62 62 54 47 45 45 36 35 38 34 36 34 30 35 33 33 33 31 32 27 25 27 29 33
41 43 42 41 38 35 34 29 31 24 48 57 68 58 52 48 44 43 47 47 54 68 71 72 65 54 44 42 42 41 40 37 35 34 37 34 31 30 29 29 27 27 26 28 31
42 46 51 50 44 43 40 32 30 26 39 57 74 70 56 44 48 48 46 49 49 60 80 79 80 68 57 46 47 47 48 39 35 31 34 33 31 29 24 22 23 24 21 25 30
48 51 52 51 49 48 43 36 33 27 33 52 72 65 59 51 47 50 47 50 53 55 62 79 92 82 70 59 50 48 48 50 36 34 32 36 34 25 23 26 25 22 20 20 23
52 53 55 55 58 55 46 42 40 32 26 53 75 71 63 57 47 46 55 49 56 60 61 68 79 82 73 66 61 52 55 49 43 35 37 38 36 26 28 28 27 24 22 20 19
59 63 64 68 65 57 64 60 43 43 29 53 75 85 67 61 52 48 57 60 57 62 69 70 76 74 67 69 74 60 57 48 46 43 41 40 39 30 29 29 27 25 24 22 20
67 65 72 72 70 70 82 74 61 59 38 61 78 63 64 66 58 49 54 68 67 66 69 69 72 73 68 63 62 56 54 52 47 44 40 38 36 31 28 26 24 24 23 22 22
65 66 69 73 81 82 86 81 74 77 53 64 92 80 71 76 58 54 56 62 72 76 71 75 74 70 69 66 65 62 58 54 50 45 41 37 32 28 22 20 17 17 16 16 17
64 65 69 75 82 91 90 94 88 71 64 69 84 95 88 74 61 54 54 58 62 71 69 75 69 69 69 68 63 59 57 55 51 44 39 34 27 22 19 18 17 15 15 15 14
71 76 75 81 81 88 85 96 92 66 81 91 93 98 88 88 67 62 61 60 63 67 69 71 67 63 65 66 59 58 52 49 47 45 47 37 47 28 18 16 15 15 15 15 15
64 66 78 83 90 87 87 95 83 70 95 96 97 97 93 81 63 70 67 58 61 63 67 68 67 64 63 59 58 56 50 48 45 45 47 40 44 27 21 17 16 15 14 15 15
59 73 90 95 92 97 81 97 79 87 93 98 95 95 93 85 64 68 70 58 56 59 62 65 63 64 61 55 54 50 47 45 46 49 57 40 40 30 22 18 16 15 15 14 16
63 79 96 96 93 91 76 78 84 92 96 98 99 92 89 85 69 71 67 61 61 70 72 63 63 58 54 54 51 49 50 61 60 63 56 40 46 32 24 20 18 17 17 19 20
82 88 89 86 92 82 68 79 93 84 87 98 97 93 95 84 74 73 67 65 57 55 68 69 68 56 50 52 52 53 50 60 66 67 57 41 46 28 20 20 22 24 27 29 29
86 93 84 76 81 67 74 91 86 97 97 97 98 98 98 84 72 78 66 60 55 52 58 63 62 54 52 50 51 57 61 56 62 57 62 44 30 20 23 29 32 33 34 36 37
83 88 80 82 69 69 83 94 95 95 98 97 97 91 92 82 77 74 61 56 52 50 53 56 65 57 58 55 56 59 54 65 66 60 62 47 37 32 37 41 42 43 43 44 45
82 79 78 65 71 78 87 94 91 97 97 97 89 83 78 79 77 69 57 54 48 46 52 53 55 68 64 63 60 63 64 59 58 60 63 65 47 43 45 47 51 48 49 52 55
77 75 76 84 83 91 94 95 98 98 97 92 84 79 76 80 81 67 58 53 48 45 53 53 58 70 66 58 57 59 62 58 64 56 66 72 61 50 53 54 48 47 54 58 59
68 73 75 78 91 94 95 97 98 95 90 80 73 70 72 76 79 68 60 54 52 51 53 56 64 66 67 61 59 62 61 59 61 68 73 81 68 53 53 49 50 59 61 64 71
70 78 84 90 96 98 98 97 98 93 88 74 69 66 68 75 76 74 66 63 61 61 60 60 65 65 68 63 61 63 60 63 69 86 77 74 67 53 54 52 56 62 68 76 78
74 84 91 93 95 97 97 97 97 91 82 74 73 73 75 79 77 74 70 70 69 66 66 64 69 65 64 64 63 67 65 69 77 76 84 63 72 59 63 68 64 70 78 82 87
79 89 89 96 95 94 98 98 97 86 83 77 76 70 68 75 69 68 67 67 67 66 63 64 68 66 66 57 59 60 61 76 77 79 76 78 74 78 75 70 79 84 82 84 92
72 76 81 89 97 98 98 95 89 84 83 81 79 76 70 68 63 59 58 58 61 61 61 66 68 71 67 57 58 69 78 78 80 79 79 88 80 76 75 78 84 84 82 83 83

GFSSW_prec_cthk_054.txt.gz
RH
35 34 31 28 26 23 21 22 29 34 44 52 59 62 49 39 30 31 31 27 24 28 32 37 37 35 32 32 33 32 40 39 30 28 22 20 25 28 29 25 25 26 25 22 25
38 40 36 33 34 30 25 26 23 26 39 47 57 59 60 45 37 28 28 30 32 32 37 35 36 35 36 32 33 34 40 35 27 25 24 21 25 30 30 30 26 27 28 28 28
37 37 37 37 34 36 33 32 25 23 31 45 58 62 61 55 44 27 27 30 33 39 39 45 39 40 40 35 35 35 37 29 29 26 26 26 27 29 33 31 28 29 31 31 31
46 45 40 41 42 39 33 33 33 26 25 37 50 65 58 57 53 45 36 30 37 41 49 49 44 43 43 41 35 37 33 31 28 26 28 28 28 30 32 32 29 30 31 35 36
46 46 44 42 42 42 41 34 36 33 24 31 49 69 59 54 46 52 52 42 43 53 61 48 44 44 40 39 38 38 35 33 30 28 31 30 32 29 28 28 29 29 32 30 29
47 44 43 47 53 47 42 42 38 35 28 28 52 67 66 52 54 44 56 61 48 54 63 59 52 46 43 38 37 40 35 34 33 32 31 32 32 31 25 29 28 27 27 29 31
46 45 51 49 50 52 51 48 43 37 33 25 55 65 73 59 49 47 55 58 64 63 67 66 68 61 51 43 41 41 44 41 36 32 34 32 29 30 28 28 30 27 27 28 27
53 52 55 56 54 58 60 56 45 42 34 26 51 77 69 58 56 49 56 59 54 64 75 80 82 74 69 55 46 46 46 48 37 33 31 32 29 26 24 25 25 25 24 24 25
51 57 63 65 68 69 66 61 56 46 37 33 44 70 61 75 58 55 52 60 60 64 77 91 91 92 79 71 63 55 54 48 40 36 36 35 33 23 23 26 25 21 20 19 18
54 60 63 66 67 67 70 71 71 55 44 41 40 70 76 67 62 57 52 65 67 67 73 82 94 94 97 85 76 63 58 50 46 38 38 36 39 30 29 29 27 24 23 21 19
61 62 58 61 70 78 84 77 75 71 68 44 42 64 68 77 73 65 55 65 76 76 76 78 77 79 85 81 71 63 56 55 45 41 38 36 36 29 28 29 26 24 23 23 22
56 54 59 67 77 73 85 88 89 89 77 51 62 71 82 79 76 69 60 67 76 78 81 78 77 70 68 70 67 64 66 56 47 44 42 38 36 30 28 27 24 21 21 21 21
57 65 64 67 74 75 82 90 96 89 76 45 60 76 81 83 81 69 61 69 71 82 72 74 69 70 66 62 65 61 58 54 53 49 46 42 32 27 21 19 18 17 16 17 15
56 60 64 77 86 82 82 87 96 93 82 54 91 93 98 73 87 70 68 69 80 82 80 76 69 72 69 68 64 65 57 56 54 51 52 40 44 28 22 20 18 18 17 17 16
55 58 68 80 90 94 94 87 93 85 75 80 88 85 92 81 74 72 72 70 71 74 75 83 75 70 71 68 64 62 55 54 52 53 51 43 46 28 22 19 17 17 17 15 14
62 74 95 97 96 94 89 94 82 79 80 98 94 98 91 85 79 74 72 68 70 71 73 71 69 70 66 61 61 58 57 56 55 54 57 42 43 31 25 21 18 17 16 14 13
73 92 97 93 91 90 77 80 78 93 90 98 98 97 95 85 79 75 72 72 71 80 81 73 72 70 68 64 59 56 58 64 62 64 50 42 50 35 25 22 21 19 18 18 19
91 94 85 78 88 78 68 82 93 96 96 98 98 95 93 86 84 76 74 73 62 63 74 74 80 67 62 60 59 55 54 58 55 65 58 43 47 31 25 21 22 25 26 26 26
89 75 75 71 74 69 79 89 97 98 98 99 98 99 98 88 79 76 74 68 63 59 61 66 67 63 58 54 51 55 58 50 59 58 63 47 35 24 26 31 32 33 34 34 34
69 64 66 70 71 75 90 96 97 98 98 99 95 94 93 90 79 74 73 68 60 57 55 56 69 61 57 53 51 51 52 62 64 54 58 45 41 32 33 38 39 42 41 41 37
61 56 62 66 80 88 95 97 95 96 98 98 90 83 88 86 77 73 71 59 56 55 56 53 56 69 60 58 59 61 63 61 60 61 62 62 39 35 41 43 47 50 50 49 47
54 60 72 78 83 91 97 98 98 97 92 89 77 81 83 78 72 71 65 58 52 52 55 51 56 69 65 59 58 61 63 60 64 55 65 64 55 48 50 51 52 49 49 49 52
64 71 76 86 94 95 95 98 97 89 90 83 77 75 77 77 76 69 55 50 49 49 52 49 55 65 65 62 61 62 60 61 61 63 66 71 64 53 56 56 56 57 56 56 58
65 74 78 84 90 98 98 99 96 88 83 76 73 72 75 79 75 70 57 55 52 49 51 50 56 61 65 61 60 63 61 62 64 72 69 76 60 63 62 59 57 63 66 72 71
70 76 76 81 85 97 96 97 90 82 73 67 70 72 73 80 76 73 62 60 60 59 57 59 68 68 66 64 63 61 62 62 64 68 77 67 67 64 66 66 68 71 76 75 70
67 71 75 83 86 83 90 93 89 83 79 81 83 81 80 81 73 71 68 66 64 66 69 67 71 66 67 60 61 64 62 60 67 73 73 71 74 69 68 71 78 82 78 77 76
61 67 78 76 82 86 87 88 86 84 83 80 77 77 80 81 74 69 67 67 66 66 70 68 70 72 68 62 59 66 58 68 74 77 75 81 76 73 74 81 86 82 82 79 75

GFSSW_prec_cthk_057.txt.gz
RH
33 36 38 39 33 34 33 31 24 20 28 37 44 52 56 60 54 40 37 27 28 30 31 33 41 41 44 42 46 44 50 48 37 34 26 24 25 27 31 28 28 27 23 23 23
39 38 40 38 39 39 37 36 35 30 22 30 43 52 53 56 56 51 31 30 31 35 38 34 36 42 43 40 40 41 46 41 32 28 26 25 25 26 28 30 28 29 27 26 26
41 41 47 48 45 39 42 38 36 35 30 22 36 50 51 61 52 51 42 29 30 37 43 41 43 44 45 39 38 38 39 32 30 27 27 27 26 26 26 29 28 28 30 32 33
41 47 49 48 47 44 44 44 40 39 38 26 31 48 62 66 51 46 54 39 30 40 48 59 49 46 45 44 38 38 34 32 29 27 28 28 26 25 26 27 28 29 34 37 39
49 51 49 45 46 48 50 51 44 42 41 36 26 45 62 58 46 47 65 56 34 43 50 55 52 46 42 42 41 39 37 34 30 28 27 27 27 27 24 22 29 28 32 35 36
51 51 52 54 53 53 50 49 49 48 46 41 32 43 58 62 60 57 47 72 47 47 59 58 56 48 45 40 41 41 36 35 33 30 28 28 28 26 21 21 27 28 29 31 32
52 54 48 57 59 62 60 60 60 52 47 45 42 42 60 60 64 54 45 64 66 58 58 67 67 52 49 45 41 41 45 38 33 32 32 30 27 26 23 22 22 25 27 29 30
45 42 54 55 62 63 69 71 70 62 56 47 51 46 55 66 69 58 48 65 81 79 75 76 72 67 60 52 48 49 45 49 37 33 33 32 28 26 25 22 21 22 23 26 27
47 53 51 58 57 60 66 70 71 65 71 60 56 52 61 56 51 70 55 56 78 87 85 90 86 84 75 65 60 55 54 47 39 36 36 36 35 25 22 21 22 21 21 23 23
55 56 53 52 56 65 75 76 76 73 75 66 62 60 66 55 73 72 61 55 73 81 97 99 90 94 83 73 70 65 58 48 42 34 34 37 41 29 27 25 25 22 19 18 18
57 52 55 58 64 74 79 78 82 77 83 71 62 48 63 68 83 85 66 58 72 84 80 91 90 86 96 81 71 70 65 58 48 41 38 35 35 27 25 26 26 23 21 20 19
58 66 65 63 64 78 79 83 91 95 82 73 64 54 86 78 74 94 71 62 69 86 80 85 97 95 86 95 94 79 73 66 54 46 42 38 37 28 25 25 25 25 23 22 22
61 65 70 74 79 83 87 85 91 89 89 72 56 45 88 82 89 86 68 62 71 92 86 78 78 83 87 90 91 86 74 63 55 48 45 42 35 29 24 23 21 20 20 19 18
61 65 67 76 85 93 92 91 90 93 98 68 58 54 90 86 85 83 74 67 82 96 90 83 72 75 75 68 70 72 56 54 54 53 56 47 46 31 23 21 20 21 20 17 16
55 62 83 98 99 99 96 96 93 88 91 66 62 86 98 98 83 88 76 73 78 83 84 86 77 73 71 63 58 60 57 58 58 60 55 49 50 29 23 21 20 19 20 17 16
64 94 99 97 93 92 90 87 90 90 97 65 68 89 96 87 85 83 80 78 83 87 86 84 71 68 68 68 67 65 63 62 61 56 59 45 43 28 25 23 22 22 20 19 18
88 85 75 77 86 87 78 75 80 96 72 72 85 98 84 82 84 86 83 78 91 92 91 84 83 76 72 72 68 66 68 68 60 64 53 48 49 33 27 26 24 22 22 21 20
67 65 67 71 74 71 72 84 96 96 98 97 97 97 94 78 86 91 83 79 79 81 91 84 83 75 74 70 71 68 63 61 51 64 58 50 52 34 27 24 23 25 26 26 26
55 60 54 64 72 77 88 95 93 98 95 98 99 96 94 86 82 87 79 69 71 66 75 74 76 72 69 67 67 68 66 56 61 58 62 48 39 28 29 28 30 32 33 33 33
58 58 65 74 80 85 91 96 99 98 98 98 92 88 86 88 89 84 73 74 70 70 65 63 78 70 68 67 64 57 55 59 60 55 51 41 42 31 32 37 38 39 38 38 40
56 69 80 85 84 87 96 98 99 99 92 83 76 76 87 85 80 72 72 71 66 66 61 62 65 78 69 65 63 60 60 56 57 59 58 59 33 36 37 43 44 44 47 49 48
58 72 78 83 84 87 95 91 95 93 88 86 82 82 82 76 70 69 71 65 62 62 63 60 65 74 66 60 57 56 57 56 62 59 67 64 47 40 48 50 53 56 54 55 55
62 68 74 84 86 84 87 86 86 86 85 82 80 80 81 79 70 69 69 61 57 57 61 57 60 69 68 61 60 61 61 59 60 61 66 64 50 52 52 54 59 58 57 60 58
60 68 72 85 93 86 83 87 85 84 79 75 77 76 77 79 69 70 64 57 54 55 57 52 55 56 59 55 60 65 62 61 61 68 63 62 58 57 56 61 62 63 68 69 63
54 65 74 84 90 90 83 80 77 81 75 71 75 75 79 84 80 75 63 56 55 56 56 54 59 60 60 62 62 62 60 63 61 60 62 64 67 65 65 64 65 67 71 72 66
56 67 71 72 81 83 84 82 80 76 73 75 76 77 79 81 79 74 60 58 56 57 55 54 68 68 67 62 62 63 62 61 61 61 73 73 73 67 70 68 71 76 74 75 73
59 69 72 71 75 76 82 81 80 78 80 80 81 82 83 84 75 69 65 64 62 64 66 66 72 73 71 63 59 59 54 55 59 68 74 80 73 73 74 73 80 78 79 75 70

GFSSW_prec_cthk_060.txt.gz
RH
40 44 43 42 43 43 40 39 39 40 36 24 27 40 48 57 55 62 55 38 32 37 33 34 44 48 55 61 55 53 55 51 42 38 33 31 30 29 27 25 29 31 29 29 28
46 44 44 51 51 52 51 48 47 42 40 39 26 39 46 50 49 49 56 53 39 40 43 39 44 50 51 53 55 55 55 49 39 37 34 33 30 29 28 27 29 30 31 28 28
51 49 50 52 54 52 49 48 48 46 48 42 39 36 45 55 48 38 50 57 47 41 51 45 46 51 49 47 47 49 49 44 42 39 37 35 31 30 29 27 28 31 33 32 32
51 53 53 54 52 49 46 49 53 55 51 47 43 34 46 56 51 44 43 48 49 47 52 53 47 53 53 50 44 43 43 41 37 40 39 35 31 28 28 25 27 30 34 36 36
56 53 51 52 52 43 46 49 52 53 60 57 52 41 44 57 43 54 53 50 47 53 52 56 52 53 54 48 44 43 39 37 34 34 34 33 31 29 25 22 24 28 32 35 37
56 59 48 41 40 45 53 58 64 62 60 63 60 52 49 54 47 66 54 48 53 57 54 57 60 53 53 46 44 42 38 37 34 31 31 31 29 27 21 19 21 24 28 36 37
62 50 42 46 49 50 52 58 64 71 73 65 66 61 55 48 56 53 56 54 59 57 60 51 61 61 52 49 46 45 45 39 33 33 33 31 29 26 19 21 20 19 25 30 38
58 48 52 59 58 53 52 57 60 63 66 67 77 66 62 40 51 62 64 55 63 63 69 57 73 71 62 52 49 48 46 50 37 33 31 31 30 26 23 23 19 17 17 24 29
51 52 57 59 57 57 60 69 68 70 71 81 91 80 60 42 53 64 72 63 69 78 83 81 85 81 73 59 57 55 55 49 43 37 35 34 35 28 25 24 22 20 17 17 20
52 55 60 67 65 68 68 78 74 76 77 76 93 90 52 48 55 69 75 68 72 86 98 97 97 93 85 70 59 55 52 48 42 31 35 37 39 31 27 26 25 23 20 17 17
58 62 72 70 71 70 74 82 82 77 81 79 73 63 62 52 61 87 82 70 73 87 95 91 97 90 76 74 63 58 57 52 44 38 35 35 35 29 25 25 24 22 19 18 17
58 58 67 72 79 85 87 89 90 89 85 84 73 69 65 75 71 71 90 72 68 80 93 97 98 94 87 89 75 65 66 64 57 48 43 38 37 28 23 23 22 23 22 21 21
52 56 62 71 76 82 83 95 93 86 88 87 71 77 85 77 75 86 84 66 62 74 89 95 96 95 94 97 95 80 73 72 65 56 50 44 36 28 23 23 21 22 22 22 19
66 74 82 86 92 87 96 98 95 95 88 83 70 91 80 80 96 88 79 68 65 75 91 92 92 97 93 97 96 99 86 74 61 57 60 48 51 33 27 24 22 22 21 20 19
71 78 84 86 87 98 97 87 87 89 96 72 75 94 87 86 90 96 89 77 71 88 93 95 90 91 90 87 89 85 78 74 64 61 56 51 52 31 26 24 23 23 24 25 22
68 62 61 65 78 77 74 74 85 93 93 73 86 97 92 93 87 91 84 77 83 88 90 91 85 87 83 84 79 73 71 68 63 59 61 48 46 30 28 26 26 25 26 24 23
56 62 58 52 61 64 73 85 88 96 81 81 89 93 90 90 97 94 80 77 81 91 97 93 92 83 82 85 77 69 68 70 59 65 56 51 51 36 31 29 27 28 27 25 24
56 61 65 72 73 77 88 93 97 86 86 83 87 95 99 84 92 86 83 82 85 81 91 93 95 84 79 78 76 74 68 67 52 63 54 53 52 36 30 28 29 28 27 27 27
56 64 70 71 76 89 93 93 88 91 88 92 96 95 95 91 88 95 85 84 93 83 86 86 90 79 79 76 73 75 74 62 66 61 64 51 41 32 32 32 31 29 31 32 33
54 61 70 74 86 95 92 85 89 88 90 93 97 86 86 90 93 92 82 76 82 79 79 78 90 79 78 74 75 68 67 68 65 61 52 39 39 30 34 34 34 35 35 36 39
57 65 71 77 82 84 84 81 90 94 92 88 78 75 75 78 84 83 76 71 66 71 70 68 68 81 75 75 74 72 73 63 59 57 54 53 31 33 35 39 40 42 42 43 46
61 69 82 73 74 84 87 84 90 87 84 77 81 80 77 77 79 73 68 66 64 68 69 64 70 79 76 71 69 66 64 57 58 58 64 64 45 37 39 41 43 47 50 53 55
60 68 80 74 73 81 86 83 82 80 79 72 78 77 74 74 74 69 66 66 66 64 64 63 69 77 76 66 64 63 59 56 56 59 65 59 41 44 47 48 48 53 54 58 60
55 67 81 82 74 74 81 79 74 76 74 75 78 78 76 69 64 68 69 65 61 60 62 59 62 60 63 58 62 66 64 61 60 66 62 60 50 48 48 50 57 59 60 64 63
55 66 77 87 78 75 73 76 76 75 73 74 78 78 78 76 67 72 72 62 60 61 60 59 62 59 58 61 63 63 63 64 62 59 61 54 61 62 61 62 65 65 69 68 67
61 67 71 81 81 80 78 81 80 75 73 79 81 81 76 78 74 77 64 58 56 59 60 59 64 63 64 62 65 66 63 62 61 61 59 62 72 66 69 69 68 73 72 68 69
61 68 70 70 79 81 83 82 82 79 79 80 78 80 84 84 76 67 60 59 59 59 61 60 63 72 71 68 65 63 57 56 58 56 60 79 72 70 72 74 74 73 72 71 69

GFSSW_prec_cthk_063.txt.gz
RH
74 66 59 52 48 50 50 53 52 48 43 40 37 30 38 42 45 42 43 53 46 38 36 34 47 52 66 70 65 57 54 45 38 35 30 29 29 30 29 27 26 26 29 31 31
69 69 62 56 54 57 55 53 54 52 47 46 43 42 32 43 44 38 45 56 61 44 41 42 47 53 59 64 69 63 57 47 38 35 32 32 32 33 32 30 28 26 29 31 31
68 60 60 59 59 59 59 58 52 49 50 52 53 51 45 39 45 34 41 43 62 60 45 47 52 54 58 55 59 63 56 48 46 40 38 37 37 35 34 31 28 27 31 34 32
68 67 64 60 59 54 55 53 45 47 48 48 54 54 56 45 52 40 34 37 54 62 56 53 55 62 58 53 51 54 55 53 48 47 45 42 39 37 34 28 28 29 32 35 35
68 63 66 64 51 46 45 45 49 57 56 56 53 62 67 48 44 56 65 50 51 56 50 71 55 61 59 55 51 53 49 49 50 47 46 44 41 39 32 28 27 28 32 33 36
65 62 62 55 46 52 53 50 53 52 53 59 61 69 74 60 41 61 73 63 56 52 51 71 66 57 63 56 51 48 48 44 44 41 41 42 41 39 30 27 25 25 26 31 33
59 56 53 52 55 60 61 56 53 51 52 61 73 80 81 50 44 54 66 70 61 51 46 64 77 64 54 56 52 49 48 44 39 37 38 36 35 32 28 26 23 23 22 25 30
56 56 53 54 56 61 62 60 60 61 62 66 73 86 74 53 47 56 58 66 62 59 45 61 86 81 67 56 54 54 52 52 38 34 36 34 30 26 26 25 22 20 19 19 24
51 53 56 61 63 65 65 64 66 68 71 73 87 98 80 66 50 58 61 70 67 63 56 71 94 90 84 66 60 60 56 52 44 38 35 33 34 27 26 27 25 23 19 18 16
47 56 63 62 70 73 73 67 72 76 77 71 78 92 75 66 51 72 67 73 74 76 75 89 96 94 92 78 59 55 54 51 43 37 39 38 36 31 28 27 25 22 20 18 18
46 50 59 65 69 78 86 85 81 79 82 77 79 73 76 69 66 64 77 86 79 88 81 93 97 93 80 78 59 53 48 47 43 37 34 37 39 33 29 24 23 21 20 19 18
61 66 80 95 78 74 81 80 84 87 82 82 84 77 74 74 76 65 84 86 77 88 89 98 96 90 92 85 76 58 55 53 47 42 37 38 37 30 27 24 23 22 22 21 20
58 58 61 71 92 91 96 94 96 97 91 83 86 77 79 76 89 73 86 81 76 85 89 98 96 97 96 92 90 78 65 63 55 49 46 43 37 30 26 23 22 21 21 21 20
53 51 54 62 59 72 80 87 88 93 96 85 86 86 83 83 86 93 89 79 75 88 94 98 96 95 98 97 94 90 76 70 65 62 59 48 47 36 28 25 24 24 23 22 21
52 55 56 61 70 70 70 74 86 96 95 92 88 91 90 91 94 95 82 85 74 81 94 97 97 96 95 97 97 97 93 79 69 63 56 51 50 36 28 27 28 28 27 27 24
53 55 71 77 80 82 85 86 91 90 92 90 90 90 90 87 78 94 92 83 76 75 88 93 94 96 91 95 94 89 85 84 75 65 61 51 49 33 31 29 28 30 29 29 27
58 61 66 90 96 94 98 90 93 92 91 80 79 90 97 99 83 89 79 82 80 88 94 98 96 88 91 90 83 81 83 83 76 74 56 54 53 36 33 31 30 31 32 30 29
59 63 72 82 87 87 82 79 88 88 87 85 83 89 99 98 94 88 89 88 84 80 95 96 97 93 91 87 84 80 76 76 58 61 51 54 52 35 34 32 34 34 34 33 32
59 65 70 79 74 71 72 78 94 87 85 95 95 94 91 90 88 95 90 84 87 89 92 91 96 88 84 83 82 79 76 68 66 61 59 49 43 36 37 37 36 35 34 33 35
63 71 65 72 69 71 72 79 88 88 87 87 98 86 89 98 95 84 83 84 82 80 75 80 93 87 86 80 79 74 71 72 68 61 50 38 38 36 40 39 39 38 37 38 41
59 72 63 76 66 67 76 80 84 82 77 86 87 81 89 90 84 81 77 83 80 79 76 77 83 88 80 81 81 78 75 70 62 57 49 43 29 31 38 39 38 39 39 41 44
55 69 64 74 74 71 78 80 86 82 81 71 69 74 75 76 77 77 75 75 75 72 79 74 76 88 85 78 76 71 72 66 65 62 59 58 37 34 37 36 37 39 41 44 48
52 63 65 62 79 76 74 75 75 74 80 71 68 67 72 77 80 76 71 68 64 66 68 62 68 76 75 70 70 74 71 64 58 56 59 50 37 38 39 40 40 40 46 51 54
52 60 70 65 71 78 76 76 72 69 73 75 73 70 73 77 72 69 68 65 66 65 62 59 62 64 68 61 66 71 67 62 57 59 56 56 48 45 44 42 46 50 54 58 58
54 63 77 71 68 72 77 75 76 74 70 73 76 73 63 65 65 70 68 67 67 61 60 59 66 62 58 61 62 62 62 60 60 58 57 51 52 46 47 52 57 59 62 63 63
59 65 71 78 77 77 78 81 77 78 77 79 80 78 71 67 66 70 65 62 59 60 59 61 68 60 60 59 62 65 62 63 60 58 57 55 56 58 62 65 67 72 69 67 64
58 64 66 66 75 78 81 81 79 75 79 80 80 80 81 79 70 70 63 57 55 54 59 60 63 60 68 67 68 69 62 60 60 60 58 63 62 63 68 70 73 74 72 68 68

GFSSW_prec_cthk_066.txt.gz
RH
65 74 73 74 74 70 67 64 61 56 55 54 50 42 39 34 36 45 43 36 48 47 46 43 47 53 60 65 67 57 46 40 40 39 35 33 33 31 29 28 27 25 26 30 31
70 76 74 70 70 72 74 70 70 68 65 62 59 58 54 46 35 35 38 37 40 51 50 51 51 55 66 60 69 64 52 37 32 35 35 32 30 31 29 28 28 26 25 28 32
78 76 75 73 71 71 70 67 67 67 65 62 61 56 57 54 45 28 33 34 39 53 55 51 55 58 69 65 61 64 56 48 45 39 35 35 33 33 32 33 30 29 28 30 31
79 77 73 72 72 71 65 56 51 54 54 51 56 53 57 60 46 50 43 34 50 59 62 58 57 61 67 63 56 59 60 62 53 48 44 41 40 36 35 35 34 31 30 29 36
69 68 57 55 58 54 49 51 55 50 57 54 58 55 59 61 49 58 67 56 53 66 70 62 62 61 59 64 61 54 59 60 61 56 52 48 46 42 37 38 35 32 30 30 34
62 56 46 48 49 51 52 60 60 61 68 58 60 57 63 61 37 54 78 74 57 52 73 58 68 64 67 61 59 54 56 56 60 58 57 53 50 47 40 38 34 31 29 29 31
51 43 47 50 58 58 65 65 63 58 58 58 60 63 65 48 50 56 73 91 73 54 63 60 69 77 65 67 60 60 55 54 52 54 54 54 49 42 41 39 34 29 26 26 29
45 44 49 52 61 64 70 68 68 64 64 69 73 71 65 64 65 64 66 88 88 61 75 61 69 81 83 69 69 65 60 56 42 44 50 47 38 39 36 35 33 29 25 24 24
47 45 49 57 63 64 70 75 71 65 72 75 80 80 66 75 71 65 60 85 87 73 72 57 75 92 87 69 69 67 51 46 50 40 42 41 37 37 33 31 33 30 25 22 20
47 53 60 69 83 78 67 75 76 69 71 78 81 82 68 73 73 71 60 93 92 88 79 64 80 94 94 84 66 51 48 50 49 42 39 38 36 37 31 29 28 28 25 23 19
50 60 66 70 86 85 91 73 77 75 78 76 77 77 75 74 71 70 79 92 90 95 77 67 80 95 92 79 70 56 55 53 46 39 41 39 39 34 33 29 25 23 22 21 21
54 59 59 62 68 67 80 85 92 87 85 84 82 84 77 75 78 81 73 86 77 86 73 78 76 84 91 86 80 63 59 51 48 44 37 39 37 33 30 27 25 23 22 20 20
57 64 72 71 65 66 73 84 94 96 93 90 87 82 71 76 80 96 74 77 76 89 73 70 78 89 94 93 85 73 57 50 47 44 41 38 36 33 29 26 25 23 22 21 20
60 65 77 85 77 77 73 79 90 91 92 89 92 78 72 84 93 97 86 89 82 96 82 83 86 92 91 96 88 86 68 58 51 50 49 41 38 33 29 28 26 25 25 24 22
60 65 70 80 90 93 91 86 91 92 93 97 93 87 75 89 97 89 96 80 84 98 84 96 96 97 98 95 92 94 78 64 60 57 54 49 44 35 30 30 31 31 30 26 25
57 60 64 69 73 80 86 91 94 93 94 92 89 94 89 84 88 98 92 81 87 96 97 97 97 97 95 97 93 95 87 75 65 61 65 49 46 35 31 30 31 32 32 30 28
56 56 63 63 68 69 75 78 84 85 86 83 93 94 98 95 92 94 83 79 81 96 98 98 98 97 95 98 98 96 94 93 83 74 56 50 50 35 34 32 33 33 34 32 30
59 56 59 60 63 63 62 63 72 87 95 94 89 90 97 95 95 94 86 83 75 70 86 96 97 97 97 91 89 89 82 76 72 65 50 54 45 36 35 33 36 36 34 34 34
56 57 60 60 66 63 65 67 96 86 90 98 96 98 89 90 91 84 88 86 80 72 78 91 98 96 95 88 83 82 86 71 67 65 56 45 42 37 36 37 37 36 35 36 36
53 58 60 58 63 65 67 73 82 83 87 89 93 79 80 79 84 80 82 82 76 84 79 86 95 90 86 89 84 82 75 72 72 63 52 37 37 36 39 40 41 40 38 39 40
50 56 63 59 62 64 69 75 81 81 83 80 76 78 77 80 81 76 75 76 75 78 74 73 75 89 84 83 79 79 78 69 59 53 40 31 27 31 38 41 40 40 40 42 44
49 62 59 63 68 67 74 76 76 79 81 75 73 76 74 71 66 67 73 70 75 74 76 74 78 88 83 79 78 75 71 64 64 61 52 48 32 33 38 39 40 40 42 45 47
49 58 55 63 70 69 67 69 71 67 63 62 64 69 71 69 70 66 71 73 73 72 73 70 73 81 82 74 72 74 69 64 59 58 60 43 35 38 40 40 40 41 43 46 50
49 63 59 60 69 69 71 68 69 71 68 65 62 63 66 69 67 68 67 66 64 66 64 59 60 66 61 60 62 73 67 62 67 63 49 44 38 39 40 40 41 45 49 53 56
52 61 66 72 63 70 68 69 64 70 73 72 69 67 67 68 64 65 63 62 63 63 62 59 65 62 61 63 64 65 66 63 63 53 54 41 43 42 42 45 49 52 57 60 62
54 59 62 64 72 73 73 74 71 72 73 75 75 71 59 59 59 61 62 62 62 62 59 61 69 64 67 61 65 67 63 62 61 56 52 50 48 41 47 53 58 62 66 65 63
51 58 59 59 64 71 77 76 75 74 76 75 76 76 72 67 64 64 63 59 56 54 58 60 61 58 61 60 62 60 56 56 56 54 52 55 48 50 53 57 63 67 70 70 65

GFSSW_prec_cthk_072.txt.gz
RH
54 59 63 64 66 68 74 75 73 76 82 86 89 86 86 81 64 50 41 34 42 37 34 43 38 48 66 65 69 75 80 71 64 69 57 59 61 60 55 44 37 34 35 53 50
59 64 58 61 54 51 49 49 55 59 60 63 71 80 92 85 77 61 50 43 39 42 41 40 42 45 66 69 76 76 72 57 45 51 57 58 63 64 58 48 38 36 37 40 42
56 53 45 46 43 42 46 46 46 51 49 48 50 52 61 83 88 72 56 46 38 42 48 49 48 48 57 72 75 71 62 55 45 50 60 66 62 64 56 49 39 34 35 33 38
49 43 41 48 43 45 48 49 52 56 57 58 58 57 58 73 77 88 81 55 47 42 57 70 49 52 57 64 69 64 52 59 59 65 60 64 61 58 54 44 40 36 34 32 34
46 43 43 44 47 50 51 53 61 63 64 64 63 71 76 76 59 85 93 79 59 55 60 77 61 51 52 62 72 72 53 53 68 73 58 53 55 52 50 46 43 39 36 36 37
47 46 47 48 51 57 64 62 70 71 62 63 71 88 89 77 72 71 76 84 83 62 61 72 72 49 56 63 70 77 75 59 68 76 66 55 53 51 42 48 43 41 38 34 34
47 49 49 56 67 73 85 87 82 69 63 69 75 82 83 76 73 66 58 73 80 81 65 69 82 69 53 57 64 70 82 72 63 67 72 70 58 50 46 51 49 40 39 36 33
44 52 54 64 71 74 85 93 93 77 66 70 77 84 82 71 62 53 50 61 71 78 71 71 83 84 66 60 63 73 82 90 73 61 70 70 66 58 55 53 51 42 38 37 34
49 54 58 63 60 67 82 88 93 92 70 72 80 82 82 79 68 56 47 50 65 74 76 81 91 85 79 68 76 77 88 85 75 63 63 63 64 63 60 56 53 50 42 38 34
48 53 57 56 59 68 74 69 75 91 80 74 72 83 78 76 73 63 56 52 71 76 80 87 93 88 85 79 77 66 72 64 66 61 57 54 61 65 64 55 52 51 46 41 35
48 54 50 56 59 67 78 74 81 83 95 76 72 74 78 73 69 60 57 55 77 97 80 89 95 86 62 59 63 77 76 67 61 56 61 49 50 55 59 60 55 49 48 44 40
48 53 49 53 59 71 70 75 82 90 98 91 89 80 75 73 67 58 55 54 71 95 94 88 93 75 75 75 74 80 80 74 67 72 61 54 45 47 50 53 56 50 46 44 42
49 50 48 51 61 71 72 77 82 85 83 78 79 81 83 73 67 60 64 63 55 94 99 83 69 81 81 74 70 71 77 75 70 74 67 54 48 42 43 47 51 48 42 41 39
49 51 47 53 61 64 71 67 73 85 95 94 98 87 83 75 65 60 61 74 80 81 88 83 73 87 84 74 70 73 73 79 73 75 75 56 50 36 37 45 45 45 37 36 36
47 52 51 56 59 60 67 70 73 85 93 91 83 80 85 72 68 65 72 95 95 94 91 96 89 81 85 78 79 74 85 77 84 76 69 60 54 35 37 42 41 34 38 37 38
43 48 50 56 55 58 64 66 77 92 96 97 98 95 93 85 96 86 94 98 98 93 93 91 86 80 77 71 81 90 88 92 87 80 91 62 53 42 37 40 44 31 33 33 35
45 47 50 56 54 54 62 66 73 92 89 89 94 89 89 95 92 89 96 98 97 95 93 85 88 82 76 80 87 97 98 98 98 96 85 59 65 41 37 35 45 39 34 35 33
43 47 51 53 54 59 63 71 74 84 86 89 84 88 87 85 83 85 90 95 91 89 84 80 81 77 79 80 83 92 96 96 89 90 71 61 66 45 36 37 44 44 41 39 39
42 46 51 50 52 57 66 66 80 83 84 81 78 97 98 95 96 98 97 91 96 94 80 83 80 77 82 86 88 95 96 92 85 69 77 64 52 44 39 39 40 47 42 40 38
39 47 53 50 54 59 61 70 79 78 80 80 83 79 88 84 92 86 80 83 82 79 80 77 89 93 95 95 96 97 90 94 95 88 79 62 52 45 42 39 40 40 42 41 39
39 51 50 51 53 57 65 69 75 75 74 71 68 74 71 69 68 64 70 71 72 72 75 79 86 98 98 98 97 97 98 83 80 76 82 69 52 41 39 38 39 39 39 39 41
41 55 51 54 59 61 61 62 66 69 72 66 68 65 63 61 63 58 66 62 67 64 66 73 79 93 86 83 83 80 85 80 88 79 78 78 59 47 43 44 43 43 41 43 44
42 48 53 54 63 62 62 65 58 60 63 64 62 62 57 56 57 57 58 60 65 69 70 64 72 81 77 75 75 77 76 75 76 81 81 80 62 53 47 49 46 45 46 46 46
48 49 51 55 64 63 62 63 63 61 58 56 59 57 53 53 53 56 57 58 64 65 63 61 64 73 77 72 73 78 76 75 81 84 75 66 54 52 45 44 42 43 45 46 47
53 53 56 60 62 67 67 62 63 67 70 64 59 58 57 56 55 58 56 58 59 61 59 61 64 59 59 59 59 66 68 72 75 70 73 58 51 48 44 42 41 44 45 47 49
61 63 56 58 55 60 63 70 71 66 69 71 71 63 58 61 61 59 55 57 58 53 54 57 66 59 64 56 56 59 60 61 67 68 65 60 55 44 43 43 44 46 49 54 55
52 62 63 57 54 55 62 65 73 73 71 69 70 73 68 60 56 55 54 55 54 54 57 60 63 64 70 57 58 64 57 58 60 59 59 62 54 49 48 45 47 49 55 58 59

GFSSW_prec_cthk_075.txt.gz
RH
54 51 49 45 43 44 44 41 41 42 50 54 56 68 85 90 89 90 61 38 31 48 44 41 36 33 58 56 57 71 75 84 82 78 69 74 74 70 66 53 45 43 42 47 56
54 47 40 38 43 43 40 41 41 41 42 43 44 51 57 64 80 84 81 56 40 40 49 47 42 35 60 65 67 74 79 63 64 67 70 76 79 76 74 62 50 48 45 46 54
41 44 38 37 41 43 44 44 45 47 48 49 48 49 50 51 60 63 85 81 50 44 48 49 50 38 56 70 80 73 57 49 64 62 75 76 79 76 75 63 58 54 44 41 43
40 44 43 42 45 46 48 50 52 55 59 60 63 58 59 64 56 60 77 91 72 54 44 55 59 51 45 62 70 75 64 58 63 70 73 71 68 72 77 63 60 56 45 36 37
42 42 42 46 50 53 61 69 69 67 72 72 72 68 68 70 52 70 77 80 91 66 46 60 71 59 48 49 62 65 73 68 67 77 63 59 58 68 68 64 62 56 48 41 39
41 44 46 49 54 62 71 78 85 85 81 76 77 75 75 72 73 67 74 81 96 86 55 64 79 73 56 45 52 56 69 73 75 70 69 64 56 58 65 63 60 54 54 45 42
42 42 47 48 55 62 70 76 89 96 91 73 74 76 76 84 86 82 77 76 88 94 68 72 93 90 68 51 51 61 71 76 76 66 69 67 60 53 59 64 59 55 52 49 43
45 45 47 53 60 64 66 68 87 93 93 72 73 83 86 75 81 82 76 77 80 91 77 78 92 89 78 59 55 64 74 89 81 69 66 62 62 53 55 61 56 54 50 45 42
45 48 48 53 59 57 60 70 72 85 93 77 83 78 78 77 67 62 63 64 77 91 86 83 89 96 86 82 67 67 79 76 85 80 59 54 55 61 58 56 52 47 49 42 40
43 46 51 56 52 54 51 59 68 73 87 82 81 73 76 81 79 70 60 56 64 75 94 81 90 98 93 86 65 56 65 71 68 67 67 53 48 58 67 58 52 50 50 49 41
40 47 52 51 48 49 45 55 64 73 88 87 74 66 71 76 78 69 64 59 73 80 98 87 93 94 71 70 68 64 62 66 70 69 75 69 57 48 57 67 60 52 48 50 45
41 45 53 48 49 49 47 53 60 65 76 72 76 81 73 70 66 63 64 62 64 74 95 93 94 95 85 78 80 73 67 62 63 72 73 71 59 50 49 56 63 60 56 50 50
41 43 50 46 48 49 48 59 68 67 75 78 71 74 75 71 66 59 61 64 62 81 90 96 93 96 91 80 79 76 74 73 71 70 72 69 66 56 43 46 53 56 57 53 48
42 44 45 46 46 52 52 59 76 78 86 91 86 81 78 70 69 57 55 56 66 80 92 89 87 91 91 81 79 80 69 78 82 80 86 71 70 52 40 37 46 47 49 54 48
38 39 43 47 46 49 57 65 72 87 96 98 91 79 67 69 69 60 53 59 73 88 81 75 88 97 88 77 79 85 85 83 85 87 76 72 70 46 39 36 33 42 46 49 49
39 40 41 47 50 48 56 63 69 80 90 92 97 97 91 86 90 63 65 87 89 94 94 91 83 91 91 89 80 75 75 84 93 96 97 71 69 50 42 30 32 36 45 47 47
39 43 42 47 48 51 56 56 63 82 83 95 98 96 96 94 88 90 94 97 94 95 96 89 91 86 89 92 85 76 81 97 98 98 89 74 72 44 41 32 33 35 44 45 40
39 45 44 48 46 50 54 55 61 76 83 89 95 96 92 92 95 95 97 97 94 97 98 95 98 90 89 85 80 87 91 88 89 90 82 70 73 53 43 38 34 37 46 46 38
38 43 45 45 50 48 51 59 70 72 75 82 86 99 90 90 89 98 98 98 95 89 90 93 91 86 85 80 74 78 91 94 94 74 78 69 59 53 50 43 42 41 46 51 45
39 46 46 48 50 50 52 62 69 67 74 78 81 82 96 94 96 96 94 89 79 74 75 80 82 81 77 78 79 77 79 98 95 95 85 69 66 61 52 51 44 42 45 55 49
39 47 49 50 53 55 60 63 68 65 64 76 75 75 73 78 76 75 80 80 82 75 70 69 69 76 78 81 83 89 91 90 89 97 88 76 63 54 50 50 48 46 47 49 55
38 47 49 51 54 60 64 63 56 62 64 65 72 66 64 61 66 64 70 77 74 75 79 77 81 86 90 89 88 88 90 84 90 92 85 83 64 52 51 51 48 48 47 46 49
41 49 51 49 60 63 61 62 65 60 59 63 66 63 60 59 64 60 61 68 67 69 71 73 85 91 91 87 84 82 84 83 82 83 83 85 67 58 56 56 52 50 49 48 48
41 52 54 51 53 63 67 61 62 66 67 63 61 62 59 57 58 59 59 65 67 66 64 62 68 71 76 70 76 81 77 82 82 86 80 72 63 64 62 55 53 54 52 51 51
37 51 62 64 57 57 62 64 63 64 71 70 63 64 63 60 62 60 57 59 59 61 61 61 66 61 59 62 65 69 73 77 77 75 76 68 65 63 56 50 46 47 50 51 52
24 37 51 69 63 53 58 63 68 67 67 73 75 71 65 66 65 63 55 56 58 57 56 56 64 57 60 54 56 59 62 67 72 72 70 68 61 54 59 53 47 45 47 48 49
16 22 27 48 68 61 58 62 67 71 73 73 71 72 73 68 61 59 57 57 58 54 53 55 61 64 68 58 59 64 58 59 62 61 64 67 60 57 56 56 53 52 52 51 56

GFSSW_prec_cthk_078.txt.gz
RH
31 38 42 36 35 39 44 42 40 41 37 35 40 45 53 72 85 86 88 78 48 43 47 46 42 40 43 56 67 63 74 72 64 59 52 62 70 75 72 62 48 44 42 43 49
33 37 43 41 39 40 42 44 44 43 47 47 45 42 42 48 61 68 79 91 72 45 51 47 48 40 44 57 71 72 70 60 51 56 56 75 77 84 76 68 55 52 48 51 56
34 40 42 42 42 43 47 50 52 57 57 57 55 56 51 47 44 47 58 77 88 64 55 53 54 47 41 54 65 67 54 47 55 68 76 86 80 86 82 75 63 57 54 57 64
37 40 39 41 43 47 58 62 69 72 72 74 72 68 66 58 57 52 65 70 87 80 54 58 62 60 48 57 58 63 53 52 60 74 88 86 82 86 87 76 63 64 51 51 55
35 39 41 41 45 49 54 61 68 84 95 88 87 82 72 65 57 74 76 71 71 91 62 54 62 68 50 52 57 64 64 55 68 73 75 77 81 82 81 80 72 63 66 53 50
38 40 41 46 50 48 54 51 65 84 98 95 87 90 85 73 67 65 69 76 78 94 76 61 61 68 56 45 59 61 71 73 67 67 69 75 76 79 79 84 75 67 66 63 54
38 41 44 47 45 48 50 59 60 81 98 96 89 90 84 71 75 71 70 82 76 89 90 70 74 81 68 47 44 63 69 81 81 70 66 73 74 71 75 81 77 74 67 68 64
37 38 45 48 45 43 47 51 52 69 94 96 83 85 81 77 78 82 72 79 81 84 95 70 79 85 85 59 46 57 73 75 73 75 68 73 63 68 72 74 71 70 68 68 60
36 39 46 45 46 42 50 50 47 63 83 81 80 81 76 82 74 77 75 81 88 90 96 73 85 90 93 79 59 56 65 65 62 62 64 68 61 65 66 73 69 67 66 61 56
36 39 44 45 43 45 55 57 54 63 70 77 78 70 73 82 73 67 71 77 86 88 96 79 97 97 95 89 63 60 58 66 67 66 67 68 62 59 63 63 63 69 64 59 56
36 39 43 44 42 46 49 52 64 62 64 71 73 69 70 82 78 75 65 70 79 87 98 86 98 98 83 83 67 64 59 60 68 71 75 71 65 58 58 63 58 54 54 54 53
38 37 42 42 43 47 48 51 55 61 65 61 63 67 69 75 76 69 71 66 72 87 98 89 92 96 90 85 79 66 61 60 67 66 73 74 67 62 54 49 56 57 53 52 50
38 34 38 42 43 50 50 52 56 67 75 74 68 65 69 67 62 64 67 67 70 79 95 92 77 91 97 88 86 82 68 64 59 62 67 68 68 68 54 47 46 52 57 55 52
36 34 36 42 45 48 51 55 55 66 82 94 83 76 67 68 64 56 61 62 66 78 90 96 79 86 96 89 85 92 82 74 69 67 72 62 68 54 52 50 43 42 51 57 54
36 37 37 41 44 48 51 56 57 71 90 99 94 79 67 60 63 56 57 57 58 74 85 88 84 89 98 87 82 87 85 86 81 84 74 71 72 53 49 51 40 33 40 55 55
35 39 40 44 48 48 50 54 60 67 91 98 98 95 86 64 56 58 52 53 67 80 85 94 92 97 95 95 87 85 84 81 87 92 89 76 77 53 44 37 39 34 31 48 52
33 40 40 44 49 48 49 53 56 74 81 97 98 98 98 90 77 68 67 75 84 88 93 97 98 93 94 96 95 90 92 97 97 94 83 72 75 45 39 37 38 34 30 37 46
32 38 43 45 46 48 49 51 60 69 79 92 96 96 97 97 97 94 86 92 94 91 94 97 99 98 98 89 89 86 85 86 81 85 75 71 68 48 44 40 38 37 35 34 46
30 38 43 46 49 49 49 57 65 69 73 85 92 91 93 98 98 98 98 90 90 89 98 95 97 90 95 94 87 89 90 81 79 71 75 68 55 46 47 47 44 42 42 40 43
31 38 41 46 49 52 50 59 66 64 70 74 82 80 92 92 98 98 99 91 91 96 92 80 94 91 93 91 87 85 80 90 89 92 80 65 58 55 55 56 51 47 44 43 46
30 36 40 44 46 50 61 60 61 63 64 69 71 73 69 72 81 91 85 86 86 80 80 82 83 92 87 85 86 85 83 83 88 89 87 78 59 48 54 55 55 54 48 48 49
29 38 40 40 46 54 59 61 62 57 65 68 68 70 62 61 65 73 90 88 81 75 78 73 72 76 74 69 69 74 69 70 80 84 84 75 62 50 55 58 56 56 54 52 50
22 29 36 41 50 53 52 59 60 65 63 61 64 62 60 58 64 63 74 82 81 82 77 71 76 74 79 80 83 82 78 78 77 79 80 80 65 56 56 60 58 57 57 56 53
23 25 26 33 45 57 52 52 61 58 67 70 63 58 61 60 60 62 66 75 76 75 79 79 85 80 83 75 81 87 84 86 82 83 74 75 63 63 63 60 65 58 58 55 52
18 22 24 28 33 38 61 53 52 63 64 71 71 69 66 64 62 60 58 64 71 67 69 67 71 72 69 70 71 78 77 78 80 74 77 68 66 64 65 64 63 54 55 57 55
19 21 23 28 33 37 36 59 57 57 68 72 72 76 69 66 66 64 58 57 55 57 60 64 67 60 61 55 59 61 65 72 73 72 73 71 68 63 65 63 54 50 53 55 55
18 23 25 23 29 36 38 39 62 61 61 76 77 73 74 70 66 65 61 59 58 58 58 58 60 62 67 59 60 63 54 59 63 65 69 72 65 61 61 61 62 49 48 49 50

GFSSW_prec_cthk_081.txt.gz
RH
31 34 41 38 37 40 38 39 42 45 42 43 45 45 44 46 58 73 86 90 90 60 55 48 44 42 44 47 55 62 73 65 62 57 57 65 66 65 62 61 54 49 47 48 40
29 36 36 37 40 40 38 47 54 58 57 60 58 52 53 48 44 52 70 94 90 84 66 53 50 48 42 46 57 63 60 56 50 55 51 61 62 69 71 67 58 52 53 52 46
27 31 37 40 40 38 41 50 60 75 82 76 75 69 68 63 52 38 43 73 91 93 73 71 61 58 47 50 58 59 52 54 56 57 57 62 67 70 75 68 64 62 62 65 53
32 36 40 40 41 45 49 57 63 68 92 98 88 91 79 70 64 56 67 70 87 90 84 78 64 69 51 49 54 61 60 58 55 62 61 65 67 65 80 71 69 66 65 73 67
32 35 38 38 41 48 52 48 50 63 79 98 95 91 87 77 67 68 77 68 72 89 90 75 74 79 58 43 54 60 63 68 67 62 63 64 70 65 69 80 72 71 69 69 72
30 33 38 37 41 45 40 38 44 54 86 95 95 88 85 80 73 68 72 79 74 80 94 83 75 75 65 46 52 61 65 67 70 63 60 65 75 66 72 83 81 72 69 70 70
30 33 37 38 44 45 40 42 41 44 80 92 94 89 80 74 75 79 73 82 82 73 92 89 73 84 76 53 46 65 69 72 66 60 59 66 74 62 77 81 87 74 70 74 75
31 33 37 41 44 42 39 40 43 48 66 81 84 81 74 72 69 78 77 77 85 79 91 95 69 89 85 67 46 68 68 72 68 63 56 64 60 67 79 84 90 79 74 75 74
33 34 36 40 42 40 40 42 48 57 60 63 74 71 70 73 72 72 72 75 85 83 91 92 74 86 91 79 59 68 69 66 72 74 64 63 59 64 75 82 86 81 78 77 79
33 34 37 37 39 39 42 44 53 60 63 64 70 71 68 77 69 69 69 71 87 85 90 94 80 93 97 88 65 53 63 65 67 72 74 69 61 61 68 74 79 76 76 73 73
34 35 37 40 40 38 41 49 55 63 65 63 62 71 72 76 77 73 69 70 83 90 92 95 86 97 98 84 63 47 48 62 60 63 72 71 68 64 67 73 76 76 77 71 71
34 34 35 39 41 40 41 46 53 62 71 71 66 66 70 73 77 79 76 73 82 92 95 97 82 92 95 90 78 64 48 53 54 58 64 70 71 72 76 72 71 71 72 73 73
32 33 35 37 41 43 43 48 55 62 75 81 73 60 70 68 67 68 75 78 83 89 95 85 77 91 98 94 87 79 56 52 51 56 64 70 73 71 62 61 67 66 63 60 56
31 34 38 38 42 45 46 50 55 62 80 91 84 63 57 63 60 61 66 70 75 88 93 89 85 97 98 94 87 85 63 59 58 61 68 61 72 58 60 59 56 51 53 53 53
31 35 39 40 41 44 47 49 56 66 85 96 96 68 50 53 57 55 61 63 69 78 87 90 85 93 98 90 90 87 74 67 64 67 63 61 67 51 49 52 45 42 43 45 50
30 33 39 41 43 42 46 48 58 66 85 95 97 95 65 55 51 52 55 56 64 74 71 93 94 90 96 96 94 91 89 82 78 77 74 58 62 50 41 37 41 43 43 38 45
30 34 38 40 44 46 45 49 55 75 78 93 94 97 97 78 61 50 50 52 60 73 82 97 91 92 92 98 95 93 93 98 94 91 77 61 68 49 42 39 39 39 39 38 36
29 35 37 40 44 48 46 46 59 66 80 89 91 95 95 96 87 76 64 64 69 76 89 97 94 92 93 95 91 89 89 85 84 82 80 65 67 48 42 39 37 35 36 38 34
29 34 37 41 44 47 48 54 63 65 70 78 89 92 97 95 97 94 92 88 82 83 96 96 98 93 98 94 89 94 91 82 83 77 81 65 51 41 42 43 42 38 36 37 37
27 34 36 38 42 46 51 58 61 59 65 71 76 81 84 97 95 97 98 91 87 75 93 85 96 96 97 95 94 88 85 87 90 90 78 57 53 48 41 44 46 46 44 43 44
24 29 32 36 37 42 51 57 58 56 60 69 70 77 72 78 95 97 94 94 96 92 91 85 85 95 91 96 91 92 89 83 80 80 75 70 51 46 44 44 48 50 48 48 49
21 27 27 28 32 39 43 47 53 56 59 64 69 68 67 66 75 89 92 94 88 88 88 83 88 94 90 86 85 83 79 77 78 76 71 76 58 47 46 47 54 55 55 54 55
20 23 25 26 30 31 32 39 49 51 54 60 65 62 61 63 67 77 84 82 83 83 87 83 85 94 92 86 85 81 73 68 70 72 76 76 58 48 51 51 60 61 59 61 58
19 25 22 26 31 36 41 40 43 54 54 58 62 64 62 61 64 70 82 91 84 79 79 74 77 69 68 59 64 69 66 68 73 72 65 65 58 54 56 58 59 65 66 63 62
18 27 28 26 29 39 44 44 52 60 69 63 68 71 68 68 65 67 76 80 80 81 78 75 82 68 61 63 72 74 74 78 77 71 74 65 64 58 59 59 63 67 73 70 65
17 22 22 25 33 40 46 51 57 59 72 81 79 78 78 70 68 70 67 72 76 77 78 78 79 79 81 75 74 75 82 84 83 80 75 69 67 62 61 63 67 62 61 63 63
20 22 26 26 30 34 43 45 48 55 72 85 86 87 80 78 70 67 70 67 65 64 66 70 73 68 67 62 61 62 60 66 67 68 70 72 66 67 64 67 66 62 58 59 59

GFSSW_prec_cthk_084.txt.gz
RH
24 27 32 34 36 38 37 39 44 53 59 60 61 57 51 58 49 57 72 89 87 75 83 79 65 47 46 47 60 63 67 55 52 46 36 49 64 63 58 60 56 50 47 44 47
27 28 32 35 33 36 39 42 43 49 60 76 86 85 73 64 57 47 49 67 95 88 90 87 72 64 48 50 57 65 60 54 46 45 43 48 61 66 62 63 63 54 53 54 54
28 29 32 31 34 40 42 44 42 44 48 70 92 96 91 80 69 58 51 38 64 94 96 92 84 72 53 51 54 60 58 54 49 47 50 53 58 68 70 68 67 61 58 56 67
27 30 29 31 35 38 39 39 38 37 47 68 89 95 93 85 69 69 76 66 55 80 96 88 87 78 64 52 49 61 58 53 53 52 53 55 58 63 68 61 66 62 64 56 58
27 29 31 33 36 39 40 37 37 39 45 66 83 86 86 80 70 62 70 79 68 74 97 95 92 85 71 51 49 58 62 57 54 54 55 56 56 60 63 68 70 68 66 61 57
27 29 32 32 38 38 36 38 37 40 44 61 72 84 81 76 74 74 71 79 75 73 96 96 90 91 85 59 51 50 66 60 58 56 58 56 55 59 59 63 74 74 69 65 60
30 30 33 32 37 37 32 35 38 39 50 59 72 80 79 73 73 79 82 90 82 75 84 98 89 88 91 71 49 57 59 63 63 62 66 59 59 54 54 60 69 74 74 70 69
31 31 33 32 36 35 32 36 44 45 54 57 63 71 72 74 69 73 85 85 89 75 73 89 92 92 98 80 56 63 63 66 63 65 65 59 50 53 53 55 61 77 78 72 73
32 32 33 34 37 35 34 38 51 48 49 53 53 57 65 70 70 74 75 79 83 77 73 90 95 95 93 94 70 65 73 63 64 67 61 59 53 49 55 56 58 67 77 77 74
34 32 34 36 37 34 35 39 49 55 52 56 52 54 60 66 68 68 70 75 75 78 81 97 93 94 98 98 79 69 75 60 61 63 61 59 52 48 52 59 65 71 81 79 75
35 34 35 38 38 36 37 40 49 56 58 59 59 55 58 66 67 68 69 70 74 84 89 98 94 87 94 91 79 62 69 67 59 58 66 63 61 54 58 65 72 71 83 85 77
35 34 38 37 38 37 37 40 45 52 63 67 66 64 58 61 65 70 75 76 76 93 91 98 85 77 86 95 91 68 67 64 57 56 66 72 71 63 60 60 63 64 75 81 81
31 34 36 37 39 41 38 41 46 52 66 76 73 63 62 61 62 60 66 73 80 92 95 93 78 81 93 97 95 76 55 57 51 57 60 66 72 67 62 65 64 63 66 74 75
29 35 37 39 41 44 43 44 51 55 71 86 88 69 60 58 57 56 56 68 80 92 87 97 88 88 91 98 95 84 60 50 48 55 66 59 68 62 62 63 60 56 55 60 68
30 34 36 40 42 46 49 48 53 60 76 89 94 85 60 58 55 56 55 63 77 86 91 87 90 90 95 95 94 85 77 65 54 60 59 64 70 53 53 57 49 52 57 57 66
30 32 35 40 44 47 49 50 56 61 71 85 90 92 73 63 53 52 54 56 78 81 83 88 89 88 96 98 94 88 85 83 70 65 70 58 64 52 49 42 45 49 49 53 61
29 32 35 39 44 48 48 51 56 65 67 79 88 93 95 74 63 52 51 54 71 75 81 96 92 90 95 99 97 93 88 95 92 80 65 53 63 49 41 36 37 40 43 48 48
26 31 33 38 41 44 46 50 59 58 66 75 86 92 94 93 82 66 48 52 63 75 86 95 98 94 93 98 98 97 85 83 82 79 71 62 64 43 35 38 36 38 38 39 44
24 28 32 34 38 41 46 51 53 63 63 70 75 85 91 97 98 90 80 62 55 65 78 88 96 94 92 93 97 97 95 76 78 75 74 63 53 36 37 40 39 36 36 36 38
23 26 29 31 34 39 42 45 52 60 68 71 73 76 83 91 98 98 95 79 69 66 71 79 97 92 90 92 95 93 86 90 83 83 78 61 55 46 35 35 37 39 40 39 38
22 26 27 28 31 36 39 41 44 53 69 80 79 77 76 83 93 97 94 93 76 73 81 89 90 98 94 98 98 90 90 85 79 80 77 72 54 41 39 39 39 41 40 41 42
22 26 26 27 29 33 34 35 40 50 65 85 88 88 79 72 84 97 97 96 95 76 87 87 89 94 97 91 94 85 81 78 79 79 76 74 59 41 45 43 43 46 45 47 49
20 21 25 26 32 34 34 36 42 53 59 74 89 90 85 76 78 86 93 87 91 93 87 83 88 93 96 90 88 87 81 78 75 75 75 72 57 40 48 49 49 51 51 52 54
19 22 20 25 35 39 45 40 45 44 53 67 87 90 88 79 76 85 98 87 88 92 91 82 86 83 82 71 72 82 80 77 74 76 65 61 51 45 48 48 56 58 60 63 64
17 26 27 26 27 35 44 46 49 53 56 65 81 97 93 88 82 77 89 94 89 84 89 88 88 80 77 75 77 77 75 74 72 66 65 53 54 48 48 51 55 58 64 68 73
21 22 26 31 31 36 44 58 54 58 59 74 86 99 95 94 88 80 82 87 87 87 81 80 84 78 77 69 67 62 67 68 63 57 64 61 56 55 58 59 60 64 68 70 74
27 28 33 34 37 41 48 47 51 55 40 60 82 98 95 94 89 85 78 81 85 85 83 80 86 78 75 70 70 69 67 72 77 75 70 70 58 61 64 67 65 69 68 66 65

GFSSW_prec_cthk_087.txt.gz
RH
26 27 27 35 30 32 36 36 38 42 39 43 52 82 74 72 60 55 50 66 85 83 74 74 77 71 71 60 55 63 72 58 46 52 40 45 45 55 51 51 54 52 46 48 41
27 28 27 31 29 32 34 37 36 38 36 38 50 84 95 88 73 61 52 45 76 90 80 86 91 88 75 63 62 64 61 49 48 50 44 45 42 55 62 57 57 57 51 51 49
27 27 28 30 30 31 33 38 36 35 33 38 50 68 86 87 76 64 61 59 48 92 94 79 93 90 84 65 61 64 53 49 52 51 50 40 39 51 63 64 57 56 58 54 59
27 27 28 29 31 31 35 35 34 37 36 40 51 63 80 83 68 64 78 78 64 63 98 97 93 95 89 74 58 64 55 53 55 54 48 45 39 44 55 61 63 63 59 61 61
29 29 29 30 32 33 32 32 36 37 38 42 57 63 72 73 66 59 60 71 76 63 83 95 96 96 93 77 63 60 56 56 57 60 52 45 41 42 47 66 64 68 66 62 64
31 30 30 31 32 33 31 30 34 38 41 48 56 65 63 66 67 63 64 64 82 73 67 89 91 90 95 86 70 54 54 56 60 60 62 48 44 44 43 57 68 69 69 65 64
31 30 31 32 32 33 31 32 37 43 48 53 57 60 61 58 63 63 67 72 76 75 72 82 95 97 93 90 73 67 59 62 66 60 57 51 49 41 43 54 63 67 71 69 68
32 31 31 33 34 34 32 35 40 48 51 54 49 54 56 61 63 65 70 74 84 76 66 77 94 93 98 95 76 73 62 68 64 61 56 49 45 42 43 48 59 64 69 71 69
30 33 33 34 36 35 33 36 40 48 52 54 52 53 60 58 62 64 66 70 77 76 71 78 92 95 97 98 90 72 78 61 63 62 58 53 51 46 43 46 52 60 69 71 68
28 33 34 35 36 36 33 36 40 46 55 58 56 56 60 58 63 62 63 66 74 78 77 82 88 94 96 99 90 71 77 66 52 55 60 59 51 46 41 45 48 53 61 74 70
25 30 35 36 36 36 34 37 42 45 56 62 64 58 58 57 59 66 65 63 70 77 87 79 85 93 89 95 89 67 70 67 57 55 56 54 53 48 45 45 48 50 56 62 70
25 30 33 34 35 37 36 38 41 45 55 67 71 67 58 57 56 62 65 70 69 81 86 86 80 88 89 95 95 73 67 68 63 58 60 61 54 49 45 43 44 49 55 60 65
26 31 32 34 36 40 40 40 44 48 58 71 79 76 59 58 58 54 60 64 73 85 90 88 87 89 95 93 99 86 70 66 58 63 62 60 57 51 49 44 45 46 54 60 62
26 30 33 35 38 42 42 41 46 51 61 72 86 84 62 55 55 53 57 69 78 90 91 89 84 89 98 97 98 91 76 65 62 64 68 58 58 49 49 51 46 46 49 55 56
25 30 33 35 38 40 42 44 48 54 69 74 89 93 77 57 54 50 60 69 81 84 90 93 96 91 91 94 97 96 76 67 69 66 64 60 60 42 44 49 55 52 51 53 61
24 29 34 34 37 38 41 44 50 60 68 78 87 92 92 68 55 50 60 72 78 88 79 82 81 85 83 89 95 97 85 74 71 69 74 58 60 45 41 40 47 50 52 53 56
23 29 32 32 34 36 39 42 49 59 63 79 86 94 96 89 63 48 59 67 70 79 78 79 78 84 82 89 95 99 87 92 89 82 68 54 59 42 37 35 38 43 46 50 54
23 28 31 31 33 35 38 40 47 47 63 76 86 90 94 97 89 57 49 59 59 72 81 85 88 85 87 92 98 93 82 77 79 76 69 63 61 38 29 34 36 36 38 39 44
22 27 30 30 32 36 38 42 43 56 60 72 86 88 91 98 98 91 63 56 55 71 86 87 92 87 90 96 98 97 91 74 76 73 69 58 50 32 32 29 38 38 36 37 38
21 27 32 31 31 36 38 37 45 54 60 68 86 89 90 96 98 97 94 69 60 65 83 85 94 94 96 95 97 99 86 82 80 81 75 63 56 39 33 36 38 40 39 35 35
21 27 32 32 33 37 39 42 42 44 56 77 80 96 93 92 93 98 98 82 63 69 70 84 90 96 96 93 97 98 92 81 76 78 70 67 53 44 43 38 36 37 37 39 38
19 27 30 35 34 39 40 42 38 48 64 70 82 95 96 90 87 99 99 98 71 70 84 87 90 95 90 88 88 90 86 80 81 84 77 72 59 49 45 44 42 41 41 41 40
21 26 31 33 40 44 34 35 48 47 46 72 82 92 95 90 89 95 99 94 83 73 90 88 88 95 95 85 84 88 86 83 80 79 79 74 61 50 46 46 47 48 47 46 46
23 27 26 32 36 36 42 47 52 48 60 84 86 91 95 90 83 94 98 94 95 94 94 87 87 82 82 73 75 82 81 78 77 82 75 72 59 48 43 44 46 47 51 51 53
23 30 30 32 32 38 44 50 41 42 45 61 82 95 98 95 86 89 98 97 95 93 95 93 96 85 80 77 79 75 76 79 79 74 73 64 60 48 44 45 42 39 49 57 57
26 29 33 36 37 37 41 48 53 47 51 48 74 87 96 97 97 95 93 98 98 93 93 89 89 86 87 80 76 76 73 74 72 71 71 67 60 49 50 49 48 47 54 57 60
30 32 33 35 35 36 44 50 52 52 51 50 57 78 90 95 95 93 91 92 91 94 92 87 90 86 83 77 72 64 61 66 68 66 65 67 55 57 54 53 53 54 57 60 60

GFSSW_prec_cthk_090.txt.gz
RH
25 25 26 26 27 28 29 30 34 36 34 32 32 40 56 82 83 66 55 57 63 80 75 69 60 58 59 75 75 75 75 69 51 49 42 48 46 49 45 44 45 55 48 46 41
25 25 25 27 28 31 29 29 34 34 32 31 32 39 53 72 81 72 62 52 49 69 88 75 68 72 66 67 81 65 67 56 60 52 56 53 49 54 53 48 48 48 53 50 49
26 26 25 26 28 31 28 29 29 33 34 33 36 42 55 71 75 67 57 70 55 61 91 78 79 77 75 73 77 64 53 52 67 64 61 54 50 51 56 53 46 49 51 58 53
27 27 27 28 28 30 28 27 29 34 36 35 39 49 56 66 64 65 59 75 70 62 78 91 90 90 92 72 70 71 55 60 69 63 58 49 53 47 51 52 51 53 52 51 60
28 28 27 28 28 29 30 26 29 32 36 40 46 53 58 66 65 61 56 56 74 67 75 97 87 96 95 87 74 70 69 65 59 61 55 54 48 47 47 54 52 53 52 53 53
28 29 28 29 29 30 31 28 28 33 42 46 49 56 61 60 61 63 64 59 67 80 66 97 90 87 93 92 87 69 70 69 61 56 56 47 46 46 42 51 54 55 56 56 55
27 30 30 30 31 33 31 30 31 36 43 51 52 52 55 55 56 62 62 61 65 81 76 79 98 97 97 93 89 80 67 72 67 51 54 55 52 38 46 46 53 55 57 57 58
26 29 31 33 33 35 30 32 34 39 45 54 54 53 54 53 54 60 65 64 65 72 80 68 88 98 97 95 90 81 69 66 71 61 55 57 43 43 46 43 43 55 57 58 62
26 29 31 34 35 34 31 34 37 40 44 55 61 60 58 51 51 57 62 67 68 74 80 75 81 91 96 96 93 85 71 57 66 65 62 50 45 49 44 40 39 42 55 58 60
25 28 30 33 33 32 33 34 38 40 46 56 65 70 61 55 51 57 61 66 72 85 88 83 88 86 92 99 94 74 73 66 64 69 67 54 45 47 42 41 39 37 42 56 67
23 27 29 32 31 32 34 35 41 43 48 57 69 72 63 57 51 55 64 68 69 81 91 86 92 84 75 92 94 69 74 69 56 66 63 48 46 44 43 42 38 36 38 47 59
23 27 27 29 30 32 35 35 38 42 51 59 73 79 68 59 53 54 58 71 71 80 88 89 86 77 84 91 96 84 67 73 65 65 63 54 45 44 44 42 37 35 36 42 56
21 26 28 29 30 33 35 36 39 43 52 61 75 87 77 62 59 52 55 65 69 77 89 91 83 79 86 95 97 86 68 68 70 68 64 56 50 41 40 40 39 36 37 41 48
21 25 28 28 32 35 36 37 38 45 56 64 82 87 85 65 58 52 59 70 78 86 89 82 74 74 88 94 96 90 74 75 69 65 62 53 44 36 38 38 37 37 35 40 50
20 25 28 29 31 35 39 39 39 46 66 69 86 90 92 72 57 53 65 73 82 83 95 81 81 88 96 89 96 98 83 72 64 62 68 67 59 37 35 37 39 37 36 38 47
21 25 28 30 32 33 38 38 40 56 63 70 81 93 93 87 58 58 67 76 76 90 90 84 96 95 91 96 96 98 86 79 76 75 74 56 54 36 33 31 32 36 39 38 43
21 25 28 31 32 33 37 39 50 56 52 65 72 95 97 96 72 55 60 61 66 88 92 84 92 94 90 95 97 99 92 97 95 89 62 52 58 43 34 28 26 30 39 45 46
23 25 29 33 33 35 39 42 48 51 52 49 65 93 95 98 94 63 56 54 59 71 83 83 91 92 90 88 95 98 95 75 66 64 55 62 55 40 26 28 29 29 33 43 47
25 26 30 33 33 37 40 49 48 54 48 57 74 91 95 97 98 92 66 50 47 61 77 79 89 83 85 85 91 98 95 75 73 69 62 51 45 34 26 25 28 31 30 35 40
25 29 33 34 34 38 43 46 46 38 48 71 93 89 97 95 98 98 94 55 55 61 75 86 89 86 92 91 97 98 94 83 82 74 58 58 47 28 29 30 29 30 32 32 34
27 30 32 34 34 39 49 44 34 49 65 82 76 91 97 96 95 97 97 69 56 66 80 88 86 94 98 95 93 95 96 83 74 75 59 60 51 42 36 33 32 31 34 34 33
26 29 30 35 35 40 34 34 46 53 55 67 80 98 96 93 93 98 98 84 56 63 84 82 96 96 97 89 83 88 85 79 79 81 70 65 54 48 43 40 39 38 37 37 38
27 30 31 28 37 34 32 36 45 41 56 71 91 96 97 96 89 94 99 94 65 75 80 90 95 96 97 95 96 95 87 75 76 75 75 61 55 54 54 48 47 44 42 41 42
27 30 25 31 34 36 41 41 37 36 53 59 79 89 90 94 89 92 99 96 76 79 95 91 87 83 77 74 78 86 79 77 83 84 74 67 57 54 53 49 44 43 43 46 46
29 31 26 29 33 36 41 41 39 38 40 54 66 80 93 91 91 96 99 98 97 91 94 86 88 79 77 74 76 74 76 80 82 77 80 64 62 53 51 47 43 42 41 46 50
32 30 29 31 33 34 37 39 42 44 41 44 55 70 88 86 86 88 97 99 99 96 98 90 88 81 79 76 76 74 72 73 76 75 70 65 60 57 50 45 43 43 43 43 45
36 30 28 31 33 35 38 42 43 46 44 40 47 67 83 82 77 82 87 92 95 97 91 85 84 79 80 73 68 66 65 71 71 71 66 66 57 56 52 49 47 46 46 47 50

GFSSW_prec_cthk_093.txt.gz
RH
24 25 23 24 24 25 28 27 29 30 30 32 33 33 33 39 54 69 77 69 68 68 88 90 53 58 59 61 62 89 94 67 54 56 50 55 49 48 54 52 50 49 54 47 43
25 26 25 24 25 27 29 30 28 28 30 33 35 36 37 46 57 68 72 68 57 57 75 92 73 57 68 61 68 83 89 61 52 54 53 62 54 51 50 50 52 53 57 52 49
26 27 26 26 26 27 29 29 29 29 31 35 37 39 43 50 59 64 63 63 65 56 65 90 87 78 74 73 65 72 69 61 65 65 70 74 67 58 55 51 46 50 57 61 52
26 27 27 27 28 27 30 30 27 32 31 34 39 46 48 55 61 57 51 58 72 69 66 78 90 84 80 82 60 68 51 75 75 78 77 78 79 54 57 55 56 49 53 57 60
27 27 29 28 29 29 31 29 32 29 32 37 45 51 55 60 61 57 52 50 56 74 81 81 91 89 86 82 69 58 70 69 80 82 79 76 77 64 54 62 59 52 49 53 55
27 28 29 30 31 31 33 29 31 31 35 41 50 55 59 62 58 54 55 58 58 76 86 85 93 93 90 89 86 57 76 78 70 74 85 83 68 66 59 63 58 53 51 53 52
27 28 29 31 32 33 34 31 34 35 38 44 52 57 58 57 53 54 53 57 59 65 89 83 91 97 86 94 88 81 75 77 74 66 79 76 71 56 53 65 59 56 52 53 54
26 28 29 31 33 34 34 32 34 37 40 46 54 61 68 56 57 54 55 59 57 58 78 80 93 99 92 88 88 84 77 74 73 72 61 65 56 40 53 60 55 54 54 52 54
26 29 28 30 32 32 33 33 35 37 39 45 60 65 74 59 59 56 56 62 62 61 67 87 87 98 96 90 95 93 88 66 71 74 70 63 50 49 45 52 52 43 53 54 53
24 27 26 28 31 30 31 32 36 36 40 51 64 72 82 68 62 57 56 56 63 65 68 86 84 97 98 99 95 89 84 68 67 77 78 69 56 54 54 49 44 40 48 53 54
22 25 25 26 28 30 32 35 41 44 42 53 63 76 79 68 61 59 61 65 66 72 82 88 93 88 91 87 80 90 78 67 59 71 72 70 57 50 52 47 39 34 40 48 51
22 24 25 26 27 29 32 36 38 37 41 55 56 78 81 70 65 60 56 68 73 74 91 95 85 73 80 89 95 95 83 71 62 75 69 72 67 56 49 45 39 33 37 39 45
22 23 25 26 27 31 34 36 35 37 46 60 58 82 88 76 67 62 58 64 64 69 85 92 82 75 78 95 98 96 81 71 64 75 72 77 74 58 45 46 43 36 38 39 36
23 24 25 26 31 32 36 35 35 39 58 62 64 83 92 82 66 56 66 72 76 80 90 87 89 78 87 98 92 94 75 78 71 76 71 67 71 52 43 43 38 36 35 35 34
23 23 24 27 30 35 34 36 36 45 67 57 66 79 96 90 67 62 63 81 78 85 89 97 85 78 79 87 89 94 84 74 77 73 73 70 66 47 34 34 32 34 34 34 36
23 23 24 28 31 33 33 35 40 62 74 60 56 76 97 97 77 62 65 69 80 81 92 96 92 85 84 87 91 93 87 91 82 78 91 69 52 36 38 33 33 34 32 34 33
24 25 27 30 35 32 33 39 53 67 53 62 53 78 97 98 91 60 61 65 76 92 91 88 91 82 92 93 96 98 95 97 96 95 67 60 65 44 37 32 31 30 32 33 33
25 29 27 31 35 31 34 45 63 53 51 58 64 91 97 98 97 76 58 57 68 81 81 80 94 94 95 95 97 98 98 90 81 79 66 64 60 49 40 31 27 27 30 33 35
25 30 31 32 34 29 37 53 53 54 46 70 75 90 94 98 97 91 70 57 55 68 86 79 92 94 91 92 92 98 96 84 78 63 65 58 46 41 39 30 28 26 25 28 34
27 34 34 33 30 33 40 44 35 49 61 74 77 79 91 99 96 98 84 56 49 59 71 89 91 86 91 90 92 98 97 87 83 76 70 61 44 46 37 34 29 28 28 27 29
28 35 33 33 30 35 47 36 38 54 55 59 62 81 93 98 94 97 86 62 61 62 71 82 90 93 88 86 94 98 95 90 79 77 63 67 53 42 39 33 30 25 23 27 29
30 36 31 29 35 33 36 33 44 39 49 65 75 86 89 94 93 99 86 68 57 66 83 91 90 91 93 88 85 89 87 81 79 72 72 74 60 46 43 39 33 31 30 32 32
30 37 29 29 32 33 30 38 34 33 45 52 68 74 75 87 93 98 87 65 63 70 91 92 91 96 95 94 94 91 83 90 78 78 76 74 59 50 50 47 39 36 37 36 35
30 40 31 30 27 31 33 38 38 35 39 49 56 67 72 76 86 94 97 70 73 81 86 92 97 98 87 83 81 86 78 77 85 81 68 69 62 56 52 50 45 44 42 42 41
32 36 28 30 30 28 34 39 38 36 35 42 54 61 77 76 75 88 94 88 81 87 92 94 98 85 79 75 73 75 78 76 80 72 78 68 65 59 55 53 49 44 41 41 46
34 35 29 28 29 30 31 35 37 40 37 41 51 58 71 75 82 91 95 94 96 90 95 90 93 83 81 73 72 73 70 72 73 72 72 71 66 60 56 51 48 46 43 42 44
32 33 31 28 30 30 32 37 36 38 34 40 49 58 70 69 73 78 84 92 93 93 93 86 82 82 85 74 72 74 71 68 68 67 67 71 64 60 57 52 50 47 46 44 45

GFSSW_prec_cthk_096.txt.gz
RH
27 26 25 25 24 25 25 30 29 28 26 29 30 32 32 36 38 46 57 63 64 74 92 77 83 58 55 62 70 72 89 91 68 61 51 56 60 58 54 47 50 55 58 50 45
28 26 26 26 26 27 26 29 28 27 24 30 32 35 36 39 45 53 61 64 61 58 82 82 88 71 50 62 68 78 87 76 60 56 52 61 62 60 57 52 51 57 57 57 48
27 27 27 27 27 28 28 29 29 25 29 31 31 35 41 45 57 60 61 59 54 56 61 71 92 87 53 73 74 74 68 72 69 63 75 74 67 64 52 50 49 55 56 54 61
26 27 27 28 27 29 28 30 27 32 27 30 33 40 47 55 62 58 52 47 51 62 59 64 95 92 66 79 72 77 51 67 75 83 88 83 76 77 59 53 52 54 56 56 56
26 27 28 29 29 30 30 31 30 28 29 33 38 46 56 61 63 63 55 50 46 55 71 66 86 94 87 66 79 69 63 58 78 83 82 88 79 86 71 70 63 55 57 59 58
25 27 29 30 29 30 30 29 28 29 31 36 41 49 62 68 68 63 54 52 55 56 77 80 88 97 89 80 85 75 76 69 76 81 79 89 87 86 85 76 69 60 53 57 60
27 28 30 30 30 30 31 29 28 29 32 36 42 53 64 69 64 60 53 48 52 56 67 91 86 96 95 87 84 94 71 81 81 79 86 87 86 92 77 79 71 65 56 56 55
24 26 30 30 30 30 30 28 28 28 32 36 41 59 74 70 60 58 57 57 52 56 58 81 91 88 99 93 85 97 79 84 78 75 86 92 85 81 81 80 74 63 59 54 52
24 24 26 29 29 29 27 28 27 27 31 35 48 67 81 74 66 63 54 56 58 59 57 71 90 93 98 98 97 98 90 69 73 73 79 83 83 74 76 77 76 59 56 54 52
24 24 26 27 27 25 27 28 28 29 33 39 58 68 83 86 75 58 50 49 54 60 65 69 90 95 97 99 96 92 93 68 60 66 78 69 69 65 62 61 63 56 54 56 53
23 24 26 25 25 26 27 31 37 44 42 45 60 63 78 87 71 60 54 56 60 63 69 74 84 95 90 91 95 91 84 75 57 58 65 70 67 63 65 59 52 53 48 48 53
24 25 26 25 25 27 28 31 35 34 37 50 61 62 81 88 74 65 54 59 74 79 86 81 78 82 92 95 97 98 92 75 73 63 64 64 67 63 64 65 57 47 46 41 46
24 26 27 27 27 29 29 30 31 35 46 60 58 63 87 90 76 66 66 66 66 62 74 85 82 88 91 94 99 96 91 83 84 71 73 70 74 75 67 60 52 48 43 41 39
24 25 28 28 33 31 32 31 31 35 59 66 59 58 93 91 75 59 64 68 77 82 75 82 81 87 86 95 96 93 84 85 82 76 95 82 87 83 70 66 48 43 41 37 39
23 26 30 31 32 33 31 30 32 47 74 59 64 59 96 96 86 63 60 74 73 82 86 95 91 81 92 90 92 91 88 85 89 78 80 82 79 73 71 61 45 38 36 34 35
23 28 31 32 31 31 27 30 41 64 67 67 58 85 96 94 92 61 59 61 73 78 89 95 91 90 85 92 92 95 90 88 93 92 98 79 66 64 59 50 39 37 35 34 32
25 29 32 33 34 29 30 36 57 60 51 61 61 89 95 96 92 72 60 65 77 85 97 93 90 89 88 94 96 97 98 97 98 98 84 67 73 53 45 50 38 32 32 32 32
26 30 33 33 29 27 32 46 55 50 47 53 68 83 93 97 97 88 60 68 71 78 94 86 92 91 91 89 94 94 94 97 90 91 77 71 89 58 54 49 44 39 39 35 33
27 34 37 32 27 28 35 51 46 52 60 64 63 83 90 95 98 94 69 69 69 75 96 88 95 86 94 93 92 98 97 94 87 66 78 64 55 58 54 51 38 34 30 31 32
31 37 38 29 26 27 35 42 34 51 51 55 69 74 88 93 97 93 80 57 60 69 80 86 89 81 84 86 91 91 91 93 93 93 94 66 59 55 49 44 33 30 31 32 34
30 40 39 27 29 33 42 35 37 42 48 64 69 78 83 91 94 90 74 62 60 60 70 77 83 84 81 83 85 87 90 95 90 82 84 78 65 53 47 44 35 29 28 27 27
31 44 35 29 35 37 36 34 36 33 47 55 66 77 77 84 93 90 75 71 64 66 81 89 92 83 84 79 80 79 77 87 90 78 85 88 68 56 46 40 43 36 28 28 29
32 40 33 28 34 35 31 35 31 32 45 50 57 65 70 81 92 77 72 67 77 75 97 90 93 94 93 92 88 87 80 82 86 89 89 96 73 61 52 49 44 39 39 30 33
31 42 36 30 26 29 33 34 34 32 38 44 52 62 71 73 83 81 65 64 74 82 89 91 94 98 98 83 79 84 75 79 88 90 78 93 70 62 58 56 50 41 37 35 36
31 39 34 35 32 28 29 32 33 35 36 42 50 60 73 75 80 86 80 77 81 82 85 90 99 97 83 79 75 76 77 78 82 78 82 77 72 68 62 58 52 49 45 42 40
32 34 31 28 25 29 29 32 32 35 37 40 48 56 66 70 82 84 87 89 83 80 87 85 90 83 87 76 76 79 78 74 74 73 71 70 72 68 65 60 58 54 48 45 44
31 33 31 28 28 29 31 29 30 33 34 40 47 54 60 66 67 72 79 84 88 88 92 87 95 89 91 74 74 82 74 75 72 72 71 77 74 70 66 62 58 56 54 49 45

GFSSW_prec_cthk_099.txt.gz
RH
30 29 28 27 27 26 26 25 28 27 25 24 28 30 32 34 38 38 42 51 59 60 70 92 75 82 68 79 71 73 88 92 70 68 61 59 65 52 58 57 54 55 48 41 62
29 28 27 28 28 28 28 27 27 27 24 29 28 28 31 36 39 44 51 67 66 61 61 92 81 84 79 69 70 79 83 93 81 69 66 71 63 66 63 63 63 56 57 53 52
28 28 27 29 30 29 30 28 28 26 28 24 25 28 35 41 52 59 63 67 63 56 54 77 86 87 85 54 71 71 75 87 87 83 75 74 69 69 69 62 54 56 58 65 57
30 28 28 29 31 30 31 29 28 29 23 24 26 31 37 50 64 59 63 57 50 53 55 69 79 92 95 60 65 71 68 77 84 92 85 82 77 76 68 68 56 52 56 57 66
27 27 27 27 31 31 30 29 27 28 24 25 29 33 43 59 68 68 69 59 55 53 52 70 75 87 96 68 64 74 71 73 86 93 94 89 82 86 82 75 65 54 55 59 61
28 28 27 29 31 30 30 31 27 25 25 27 30 35 50 65 70 71 64 55 52 53 55 70 74 93 97 78 76 78 76 75 80 93 94 92 86 82 80 77 65 59 50 52 60
32 27 26 29 31 29 30 30 26 25 26 29 32 37 53 65 70 67 57 54 47 48 55 64 78 97 98 90 75 81 81 81 82 82 95 91 94 80 83 80 72 71 62 55 54
32 28 27 28 31 30 30 26 25 24 26 30 32 45 55 70 73 62 60 58 53 50 52 59 80 88 97 97 80 86 88 87 81 74 83 88 88 84 91 91 81 77 72 62 54
30 30 27 28 28 30 27 26 23 23 27 29 36 56 61 75 80 67 58 53 52 57 56 60 73 83 94 98 95 88 93 86 80 72 80 87 88 90 90 91 91 87 75 66 56
29 26 27 28 29 28 27 27 26 28 31 35 49 60 62 76 78 66 54 50 51 56 63 63 72 86 96 98 92 85 90 89 78 81 78 77 81 81 85 92 90 83 79 71 57
29 27 27 30 29 29 28 26 29 35 38 44 54 53 61 76 78 64 52 56 62 65 66 68 75 80 96 95 97 85 93 95 73 79 79 72 84 80 83 89 90 86 73 69 62
28 28 28 32 30 30 29 28 30 29 36 46 52 48 71 76 76 62 61 54 65 80 81 72 77 75 91 92 97 98 96 88 78 76 77 78 83 82 74 77 74 72 71 66 66
28 27 30 33 32 30 28 28 29 32 48 51 51 55 77 82 78 58 63 67 70 74 69 80 72 76 86 92 94 97 96 86 79 70 70 74 81 81 74 69 73 68 66 61 56
27 27 32 33 34 31 28 29 29 37 57 51 55 73 82 85 76 53 59 67 73 82 78 75 76 83 83 90 92 98 96 85 82 85 85 77 84 72 65 66 65 68 62 56 51
27 28 34 35 32 29 26 28 32 46 60 52 63 79 87 87 83 59 52 60 72 73 82 90 93 84 91 91 88 98 94 86 85 92 88 96 93 67 67 67 62 58 59 52 48
27 29 35 37 34 27 27 31 44 51 56 58 69 79 85 89 85 62 53 58 77 86 88 95 93 95 91 91 95 90 96 95 96 96 94 90 96 66 65 51 56 55 52 47 48
26 31 35 37 32 26 29 38 47 51 41 55 67 80 86 90 87 67 59 65 76 97 92 96 98 96 94 95 96 96 99 98 99 97 92 82 88 64 56 56 50 52 51 41 43
28 32 36 35 29 26 33 39 45 44 55 58 64 80 85 88 88 72 63 70 67 91 97 93 97 95 92 89 91 98 96 93 93 94 77 80 77 58 53 47 44 46 45 40 35
31 34 38 34 26 28 34 37 38 55 51 57 63 76 84 88 89 77 69 71 67 86 99 95 93 92 87 84 84 98 98 90 84 76 81 76 58 48 49 51 48 46 43 40 35
35 40 39 32 27 29 30 36 39 45 46 57 68 68 79 89 88 77 72 63 66 73 82 83 84 83 88 91 96 95 93 95 90 88 83 66 59 55 55 53 52 51 45 35 38
38 41 40 32 28 28 34 35 34 36 44 57 64 71 78 87 86 79 71 60 58 60 68 75 74 79 76 84 87 90 90 96 91 85 83 78 63 56 55 54 51 47 48 44 41
40 41 36 33 30 34 33 31 29 33 43 51 57 67 72 79 80 75 69 65 64 61 79 81 77 65 75 84 78 77 80 89 87 84 89 81 69 60 59 54 47 43 36 43 42
41 39 37 32 31 34 31 32 28 33 42 46 51 57 67 76 76 67 78 71 71 82 86 80 77 76 79 80 80 82 77 79 89 88 92 92 75 65 60 55 46 40 34 33 35
37 41 40 34 25 29 34 32 31 31 36 45 49 56 70 72 67 64 68 75 78 82 90 90 90 92 84 72 73 80 76 76 85 89 97 95 78 72 61 53 54 49 43 36 33
36 40 38 36 29 28 30 30 30 33 33 44 48 57 65 73 71 72 75 77 75 78 83 91 92 92 83 75 72 71 73 76 81 80 90 86 79 75 68 58 53 50 52 50 44
37 34 35 28 24 29 30 31 29 31 36 42 47 55 60 71 74 79 78 80 80 78 82 83 89 84 85 73 75 78 75 73 81 79 80 79 79 76 71 68 65 59 53 49 49
42 34 32 28 28 30 30 27 27 31 35 40 44 52 54 59 66 70 78 79 83 86 83 82 86 86 88 75 77 83 79 77 80 78 77 78 77 73 72 70 69 66 62 57 50

GFSSW_prec_cthk_102.txt.gz
RH
28 31 32 31 30 30 30 29 28 30 29 25 27 26 25 23 26 30 33 40 47 56 58 64 59 59 69 59 63 83 79 84 92 90 70 64 68 54 59 57 57 51 46 45 52
34 33 32 30 30 32 30 31 29 30 28 28 27 23 23 25 28 35 41 51 75 73 80 56 64 83 92 82 74 97 80 76 88 86 87 80 70 58 68 69 64 55 53 50 50
34 35 33 32 32 33 33 32 31 29 28 27 23 22 25 29 35 49 55 56 62 63 60 53 78 93 90 90 81 96 77 70 87 91 91 90 74 73 71 71 59 60 62 50 51
35 34 34 32 32 34 34 32 32 29 27 23 23 25 29 37 47 53 57 61 62 56 51 52 76 95 90 91 75 93 76 69 93 96 96 93 88 83 80 71 62 57 60 62 59
33 36 35 33 34 35 34 33 32 26 24 24 25 29 34 44 54 59 63 63 59 54 52 54 75 88 89 94 79 79 75 68 89 96 97 92 92 78 76 69 67 67 67 66 69
34 37 36 34 36 36 34 33 31 24 24 25 27 31 40 53 56 59 61 56 50 49 50 55 68 91 88 93 84 72 73 76 86 96 96 98 90 90 81 79 68 68 71 66 65
34 37 37 36 36 35 35 33 29 23 22 26 28 33 41 49 59 65 58 56 53 48 44 54 66 94 95 95 93 70 75 76 84 91 95 96 92 90 85 76 76 71 71 72 67
30 37 37 34 35 34 36 30 26 22 23 27 32 38 44 55 66 64 59 56 53 53 51 55 67 94 97 98 94 72 79 85 79 90 91 92 96 85 91 80 77 76 73 68 67
27 33 37 35 33 37 33 29 24 22 24 29 37 45 48 63 70 70 58 53 52 57 56 61 69 82 95 96 99 87 84 90 77 83 87 91 95 92 84 80 81 79 75 71 64
24 29 32 34 36 36 33 28 25 26 30 35 42 46 55 64 69 72 53 52 51 57 57 65 68 80 95 96 98 88 92 88 81 81 91 91 90 94 92 88 91 86 77 72 71
23 27 30 33 37 36 33 27 25 29 36 39 43 41 61 66 70 66 57 56 59 66 68 66 74 77 85 94 98 96 88 82 76 75 85 87 80 91 93 92 93 85 82 77 69
26 26 29 34 38 38 33 26 26 26 37 40 39 55 62 69 72 56 61 63 67 74 82 71 78 75 73 96 96 95 82 90 84 75 83 87 85 88 92 94 90 90 91 86 78
28 24 30 37 40 39 33 28 28 32 43 41 45 58 65 74 73 56 60 69 67 76 74 76 65 68 85 97 96 96 82 81 92 84 91 90 91 90 80 92 95 92 93 85 83
27 28 32 38 41 40 31 28 29 35 48 43 55 65 72 76 71 57 55 68 70 76 79 75 74 73 80 93 97 95 85 85 93 97 97 94 96 93 83 87 84 85 90 79 81
28 24 34 37 38 36 27 29 32 44 41 41 57 68 77 82 78 61 56 68 79 75 75 75 84 83 92 87 94 99 94 88 88 89 88 93 78 73 79 80 70 67 78 68 70
20 26 34 38 40 34 27 31 39 42 41 52 59 70 79 85 76 63 58 63 79 90 86 95 89 95 95 92 92 97 94 90 87 88 90 80 74 68 70 58 53 59 68 67 62
20 32 35 40 41 31 31 38 37 42 33 45 61 70 81 84 73 67 62 69 85 94 96 92 91 92 90 90 89 98 96 98 99 98 90 85 90 71 62 59 51 53 57 58 62
25 35 36 40 38 31 35 34 39 41 48 48 58 70 80 80 72 65 65 82 84 91 96 97 94 93 89 84 85 97 97 97 96 93 93 83 84 66 56 54 54 54 56 61 60
34 36 39 39 36 33 34 34 38 48 43 49 59 68 74 75 70 68 71 77 77 85 94 93 93 90 84 83 85 93 95 96 89 77 88 88 71 56 52 49 47 49 53 52 50
36 41 38 39 35 31 30 31 40 38 41 54 62 66 75 73 72 70 73 73 75 78 82 83 85 83 91 92 90 95 92 96 91 88 89 78 64 56 50 53 48 46 44 42 42
41 48 36 40 35 25 33 32 33 33 41 52 59 68 67 71 70 69 67 69 72 68 76 79 74 86 80 80 89 88 88 88 81 80 80 76 61 55 56 50 52 51 47 41 39
44 52 37 42 31 29 31 28 27 31 39 50 54 63 67 67 67 62 66 72 72 71 83 75 70 80 78 81 80 84 80 84 80 77 76 69 63 54 53 51 49 48 47 46 41
53 41 40 42 33 30 29 27 27 35 39 44 48 58 61 65 69 60 68 76 76 74 78 73 69 74 75 78 79 82 80 76 77 76 83 75 67 55 55 53 50 50 46 44 48
53 42 42 36 25 27 30 28 30 33 36 42 50 59 59 63 63 63 67 70 74 76 74 75 78 78 72 70 74 80 75 74 76 80 83 81 71 59 57 54 50 48 47 47 47
50 39 38 38 28 28 29 27 30 32 34 42 49 59 62 65 59 62 64 69 71 75 73 75 76 80 77 76 72 72 73 77 82 83 89 84 79 72 62 58 57 55 49 44 38
39 38 35 30 25 28 29 28 28 32 36 40 47 55 60 66 72 70 66 70 75 75 78 79 82 73 74 69 72 73 70 74 81 78 86 91 85 79 74 66 64 59 56 53 47
44 34 31 29 28 30 28 27 27 30 35 37 42 49 56 59 64 70 70 73 72 77 77 77 82 80 81 71 71 80 80 77 79 83 81 86 81 78 75 70 63 63 64 62 57

GFSSW_prec_cthk_108.txt.gz
RH
26 26 26 29 32 35 40 40 37 39 37 36 35 34 33 31 24 21 22 23 24 32 50 62 59 50 49 49 54 61 70 64 56 51 39 57 82 81 72 69 58 59 59 73 80
29 28 29 29 32 36 41 41 42 42 38 38 34 33 33 25 23 23 28 29 39 64 74 71 66 59 57 61 60 64 70 56 43 45 46 52 77 94 87 79 63 60 60 74 78
38 33 32 33 37 38 42 41 43 42 41 39 34 32 28 25 27 30 38 40 49 57 55 54 57 63 66 66 69 66 64 49 47 50 50 56 74 83 96 88 72 64 63 74 76
45 38 37 35 38 39 41 42 44 47 44 35 37 31 27 28 31 37 41 46 48 46 49 53 57 64 64 64 65 69 57 54 46 57 58 65 60 85 95 89 70 61 62 77 76
39 43 35 35 37 38 41 44 44 46 43 35 36 30 29 34 35 43 46 44 42 45 50 55 59 64 65 62 64 67 63 62 56 55 62 73 78 80 93 90 81 68 65 74 79
50 35 32 31 33 39 40 43 44 47 43 37 35 30 33 39 40 45 47 45 51 53 53 54 58 63 65 65 73 75 78 70 62 56 61 73 78 87 76 92 80 74 66 66 76
43 38 33 32 34 36 40 41 43 47 41 36 32 31 36 34 41 49 51 54 57 61 60 57 52 55 61 68 89 88 89 86 77 61 66 81 83 82 72 96 89 74 69 69 69
52 44 36 39 30 30 41 41 45 44 39 35 33 34 33 37 49 53 55 62 64 58 53 53 56 59 64 76 86 98 95 89 73 66 74 82 69 76 79 95 98 79 69 70 73
78 47 36 38 33 30 40 41 44 44 39 34 34 38 38 46 53 56 63 66 54 49 51 54 66 71 77 76 86 93 95 89 83 65 77 78 67 77 82 97 94 89 76 72 73
96 47 36 34 31 28 36 42 45 46 39 32 37 36 42 52 57 63 70 59 52 52 55 60 67 70 74 82 85 89 98 96 85 74 68 73 75 84 90 97 98 98 84 75 74
98 62 39 25 30 29 39 46 47 43 38 33 36 40 50 55 60 67 62 56 60 62 66 70 78 74 74 78 94 90 96 98 82 77 75 77 81 83 93 97 97 97 87 82 76
98 75 42 27 33 31 39 50 42 36 34 35 38 49 54 58 64 61 50 57 66 75 75 72 77 68 70 74 94 96 97 92 74 90 88 87 86 93 95 94 97 97 89 88 85
98 84 46 29 44 38 56 44 40 37 36 41 44 49 54 63 63 55 52 60 75 83 76 80 68 64 72 88 96 92 98 93 84 93 95 92 97 95 96 96 94 87 90 87 85
98 94 49 33 35 50 54 38 42 35 42 40 48 55 59 63 57 55 56 64 72 85 74 75 69 77 83 97 97 95 94 96 91 89 98 96 98 98 95 93 89 94 94 89 86
98 93 45 34 40 54 38 38 39 35 46 36 51 54 61 56 55 56 60 67 72 84 79 67 76 88 93 95 97 98 91 96 95 93 97 97 88 93 88 88 89 92 93 87 83
96 91 56 41 50 50 37 41 37 42 31 46 51 58 60 52 53 58 64 81 79 92 89 82 84 88 96 94 96 91 90 90 92 92 96 96 79 83 94 88 85 82 92 90 85
96 82 55 46 54 46 40 43 41 39 30 42 51 60 56 51 58 68 75 83 88 95 97 94 96 98 98 98 95 86 85 92 90 93 94 86 78 72 79 72 75 72 87 84 85
94 80 60 57 60 41 44 46 41 28 37 40 53 60 57 57 65 69 77 83 82 90 97 97 93 95 93 96 98 89 76 88 89 90 86 81 82 75 70 70 65 69 73 91 86
96 75 67 63 52 46 44 44 26 34 36 42 50 57 53 61 61 66 74 79 77 79 88 88 91 88 82 87 97 93 80 88 86 80 81 84 71 65 65 66 61 63 66 81 84
96 74 68 51 59 50 46 31 32 34 36 44 51 54 59 60 59 60 68 70 77 69 76 78 85 76 79 82 97 95 93 89 80 77 82 79 68 68 65 63 61 62 65 70 80
85 75 60 53 67 51 42 31 32 32 40 47 51 56 54 54 57 59 64 64 72 71 68 70 68 72 71 81 87 93 88 84 78 77 79 81 78 68 66 60 59 61 67 66 69
77 63 57 65 58 43 36 29 28 34 41 44 49 53 50 52 59 58 63 66 67 68 69 66 67 83 80 81 88 88 88 89 81 82 80 78 81 69 66 61 58 62 67 66 63
65 69 59 76 48 41 30 28 28 33 38 42 47 49 50 50 55 58 64 61 67 69 72 73 69 67 65 72 77 84 83 88 82 81 84 79 81 68 67 68 64 66 64 63 63
55 56 67 78 45 35 30 28 30 32 37 40 48 50 51 52 56 60 63 60 63 63 65 64 73 75 74 78 81 82 79 82 76 73 80 76 70 69 64 63 61 61 61 59 56
40 48 66 60 43 31 28 26 30 34 35 41 48 48 49 54 54 56 62 59 62 64 67 72 77 74 77 75 79 78 77 75 75 74 69 70 67 65 63 62 59 54 50 49 50
39 48 64 38 33 28 28 27 30 33 35 40 46 51 51 49 50 55 57 64 70 68 69 73 78 77 75 73 75 75 75 78 78 74 71 70 69 64 62 60 58 56 53 49 47
42 56 49 36 32 28 28 26 29 31 36 37 46 51 51 53 54 52 56 60 66 70 71 74 75 76 73 70 74 75 70 74 76 74 77 74 74 71 69 65 63 60 56 52 50

GFSSW_prec_cthk_111.txt.gz
RH
38 37 36 34 34 35 42 35 39 42 43 41 40 41 40 38 32 28 23 22 22 24 28 43 48 51 49 43 45 50 60 61 53 57 48 39 41 47 78 78 74 66 62 61 65
59 36 41 38 36 35 37 38 39 43 46 44 44 40 39 32 29 26 26 26 29 41 57 61 59 58 56 57 57 60 65 55 42 47 53 54 52 53 67 84 83 73 57 63 73
64 62 48 36 36 38 40 39 41 43 44 45 42 41 41 33 31 29 33 40 47 52 55 55 53 51 54 59 65 72 62 49 47 50 57 61 55 57 74 81 87 80 69 75 68
73 69 52 49 42 42 43 42 44 43 45 45 42 43 38 35 29 35 38 38 41 41 42 46 49 55 56 58 62 69 59 56 51 55 63 61 61 66 68 69 80 82 72 72 90
82 75 51 52 47 38 38 41 42 46 45 42 43 43 39 36 30 36 39 39 38 38 41 48 56 62 64 61 65 65 59 57 57 60 54 61 72 70 71 65 76 84 72 71 79
89 92 66 52 38 34 37 37 41 47 45 42 44 44 40 36 36 38 41 40 42 47 51 55 59 64 68 69 72 67 67 63 62 60 63 56 63 76 64 70 76 84 76 70 77
92 92 87 50 51 41 35 41 47 45 45 43 45 45 40 32 33 40 46 46 51 55 60 59 56 54 54 56 60 68 77 83 63 66 63 57 61 59 56 75 72 88 80 74 77
80 81 98 59 56 37 44 40 43 45 44 46 49 46 35 33 39 48 49 54 59 60 56 57 60 59 64 65 68 71 77 78 66 72 68 66 52 52 57 72 75 79 79 76 76
71 90 97 82 61 40 46 47 41 44 46 49 49 42 36 38 47 52 55 59 55 50 54 59 63 67 69 74 79 76 75 69 66 74 73 71 55 69 63 75 78 81 87 87 77
66 90 94 94 56 43 44 43 40 49 51 49 45 39 36 46 52 57 58 56 52 54 60 66 71 72 72 75 74 80 82 76 81 85 84 78 58 81 70 81 81 88 93 87 83
49 79 97 92 60 42 37 38 45 64 56 42 42 37 45 52 56 55 53 53 59 64 74 81 80 73 73 73 80 82 85 91 74 75 86 81 64 74 73 85 86 94 88 84 84
47 71 85 96 60 45 39 39 59 58 42 44 39 44 50 55 56 51 51 55 63 75 87 80 72 64 64 72 81 88 95 88 72 78 91 78 82 73 81 80 89 93 88 83 80
53 69 95 91 57 47 44 58 57 43 44 45 41 45 51 56 54 54 58 62 71 83 83 76 60 61 75 81 94 94 97 95 93 93 90 81 96 94 82 86 93 93 87 84 81
63 66 80 91 56 50 49 57 57 40 47 41 45 53 57 52 51 55 62 68 74 76 70 64 60 78 89 97 96 98 94 91 87 98 98 93 88 97 91 88 88 84 87 91 85
49 45 66 89 65 53 52 60 48 41 46 39 49 54 53 48 53 59 69 77 84 71 71 67 71 85 88 94 97 98 98 91 90 98 98 93 87 96 92 86 91 87 90 95 87
56 50 64 90 55 50 64 60 40 46 38 46 52 58 52 47 56 66 70 81 86 86 81 84 84 94 96 98 97 91 98 92 87 94 97 98 81 90 91 91 92 89 96 97 83
52 51 72 86 52 52 70 49 45 47 30 42 53 56 50 54 56 67 73 74 84 84 94 94 96 93 94 92 92 91 85 91 91 94 96 95 77 78 81 86 81 90 96 94 81
55 55 77 84 58 64 64 44 46 30 34 40 54 56 54 55 57 65 71 75 75 83 86 86 88 93 93 94 84 86 87 91 86 91 95 84 91 79 72 69 78 85 91 87 91
55 72 82 85 63 79 59 47 34 33 32 44 52 55 54 55 55 58 72 76 69 73 80 85 82 80 96 97 87 84 93 96 88 83 80 88 77 70 74 75 75 79 88 94 88
61 77 93 85 71 74 49 39 36 31 34 44 52 52 56 51 51 57 65 68 75 70 71 75 73 73 90 91 89 85 94 94 86 82 87 82 80 83 75 74 70 69 77 95 87
74 84 97 77 84 59 53 38 35 31 39 47 51 51 49 52 49 58 62 64 72 74 70 73 70 73 80 94 96 96 96 90 85 80 80 80 91 80 74 71 71 72 75 89 89
86 92 94 82 70 66 43 33 31 32 43 45 48 48 44 53 49 57 62 66 72 74 70 71 71 78 77 86 93 91 94 91 84 83 79 78 89 78 74 70 69 71 73 79 88
93 96 86 86 62 54 36 33 29 34 41 43 48 47 44 49 54 54 61 61 64 70 72 69 69 69 64 68 77 86 87 87 81 78 86 83 88 79 77 69 70 71 68 72 77
86 95 87 71 63 44 35 30 31 35 39 42 47 47 47 49 56 56 57 55 59 61 67 72 75 72 78 78 78 79 80 79 73 77 80 81 78 77 76 72 66 65 65 65 71
87 87 75 62 63 44 31 28 30 35 38 43 47 47 50 55 54 57 58 54 57 60 65 70 76 82 79 80 75 76 73 72 73 75 75 75 77 75 70 68 66 65 61 60 60
84 68 66 59 49 39 29 29 28 34 37 42 45 47 49 49 47 54 55 60 63 60 64 67 74 76 76 77 74 71 72 72 74 72 71 70 67 65 64 64 61 59 56 58 57
75 50 41 53 37 32 28 28 28 34 37 39 45 50 52 53 50 48 54 58 61 62 64 68 67 67 70 69 71 71 71 71 72 74 73 76 72 67 62 62 62 59 58 55 51

GFSSW_prec_cthk_114.txt.gz
RH
70 63 52 50 41 42 36 36 39 40 40 44 38 41 42 40 42 39 35 33 30 28 29 33 36 37 39 41 40 39 48 45 37 34 34 42 44 41 35 43 54 69 77 62 65
76 76 66 54 54 39 45 37 40 41 44 43 40 41 43 42 40 38 36 35 33 38 48 51 53 51 51 53 55 52 49 38 35 36 43 52 53 58 49 41 52 73 74 72 63
75 86 75 67 54 61 39 39 44 45 48 45 43 42 41 43 43 46 44 49 48 49 52 49 48 50 50 51 53 53 49 41 39 43 46 53 55 58 63 53 57 67 77 79 66
71 78 88 76 65 62 60 45 41 46 51 47 46 44 46 42 41 48 47 42 38 38 38 42 44 45 47 47 49 52 45 51 46 55 58 53 54 58 64 57 62 64 74 81 67
59 77 86 91 89 60 49 56 47 46 47 49 44 49 45 47 46 47 43 38 35 34 37 44 46 51 51 53 59 57 53 55 54 55 55 59 52 54 60 52 60 68 75 88 75
48 61 79 93 87 69 52 44 47 45 39 42 47 51 50 50 50 47 41 39 39 42 46 51 55 59 58 61 64 59 61 63 64 60 60 61 56 59 48 55 58 68 69 84 82
37 58 68 77 98 80 50 53 47 45 45 45 50 52 51 53 48 40 42 46 46 51 55 55 55 54 53 55 55 57 57 55 51 60 63 68 65 56 36 48 62 64 67 75 76
33 53 65 80 92 81 66 59 53 50 50 46 56 55 54 50 42 46 48 51 53 54 56 50 53 63 67 67 68 69 67 59 40 58 65 77 53 51 46 53 51 63 68 70 84
28 35 57 68 67 85 66 58 55 54 50 47 57 58 52 45 47 49 53 54 53 50 46 51 58 65 70 77 74 67 68 61 58 63 70 76 63 60 52 51 46 63 74 69 83
22 30 42 59 67 90 66 65 56 54 55 56 61 54 44 47 50 54 52 52 54 50 54 61 68 72 79 79 67 63 73 71 69 75 86 77 65 66 58 53 54 64 73 68 81
22 32 57 53 60 75 66 62 50 45 54 59 53 48 44 51 54 49 48 52 55 59 69 72 77 69 62 64 69 75 79 74 65 72 77 83 75 67 68 67 62 68 73 71 78
21 31 52 64 60 66 77 53 42 48 60 61 49 44 49 53 51 47 47 55 61 65 65 72 66 56 60 62 72 83 86 80 78 74 69 77 75 63 67 68 62 67 74 75 74
29 46 68 71 55 64 65 55 52 61 66 53 45 46 51 51 50 50 53 60 65 54 66 70 59 60 69 75 86 88 94 89 86 85 75 76 78 65 74 63 56 63 74 83 74
50 68 74 85 59 69 60 56 50 68 63 48 47 52 56 48 48 49 61 63 60 57 60 58 58 68 75 89 95 96 95 96 94 98 91 73 91 80 76 72 61 69 71 77 79
48 51 78 66 54 68 55 56 61 66 50 43 47 55 51 48 46 57 63 66 68 63 69 68 70 83 89 89 98 95 98 96 98 97 97 78 92 98 89 77 67 71 72 80 75
53 76 64 47 56 67 64 57 68 56 46 44 51 58 48 48 51 60 65 69 74 75 74 73 75 83 86 88 95 97 98 98 99 99 97 87 86 98 96 81 73 72 73 79 73
53 62 50 53 60 68 57 60 72 47 33 45 53 54 48 51 52 61 64 67 75 79 79 78 89 87 84 88 84 92 88 88 95 95 96 96 76 90 83 83 81 76 78 82 77
54 61 62 63 59 65 57 67 52 33 35 42 52 53 51 50 56 61 63 67 69 76 80 82 83 88 83 83 83 94 95 91 93 94 96 89 92 90 79 74 76 83 85 91 84
69 69 66 65 72 64 70 67 35 32 31 44 54 56 49 51 54 57 65 65 63 65 74 77 88 91 81 80 88 89 92 94 90 79 84 95 86 79 78 75 75 86 96 99 88
71 63 58 64 84 69 79 56 31 32 34 44 53 46 47 52 54 58 61 63 68 69 68 76 85 79 78 87 90 94 94 90 81 83 92 92 93 93 79 79 82 95 96 97 95
71 68 57 75 86 76 74 44 34 34 38 47 46 46 40 47 48 59 63 61 67 65 71 73 75 84 81 92 98 93 91 86 78 78 80 84 96 86 86 83 80 92 96 97 95
68 66 68 93 84 89 58 32 32 32 44 47 47 43 41 43 45 58 61 64 67 65 69 70 73 87 93 87 88 88 89 84 83 81 79 77 94 80 81 76 84 84 94 96 94
73 75 84 96 89 77 42 34 31 34 45 46 46 43 44 46 47 50 64 60 64 67 71 71 70 78 78 86 78 83 83 83 79 80 86 74 90 78 75 73 79 82 87 95 94
75 82 94 95 91 51 37 34 32 35 43 43 45 44 43 46 49 47 58 58 60 63 70 68 76 83 82 86 85 86 77 74 73 75 76 78 77 75 70 70 71 74 77 80 85
82 87 92 90 74 44 37 30 31 36 41 44 46 47 46 48 49 53 55 56 57 62 66 69 79 80 78 76 81 76 75 70 76 68 72 72 73 71 69 69 68 66 67 68 70
74 86 91 72 48 44 39 30 30 35 39 41 43 43 46 46 45 53 55 60 63 60 63 66 74 73 76 71 70 70 71 69 67 65 66 67 69 67 67 68 68 66 62 60 62
69 85 75 56 48 45 32 28 27 33 38 40 43 47 48 46 46 50 55 59 61 62 62 65 64 65 71 66 64 65 69 71 69 66 62 62 63 62 59 60 61 60 59 58 56

GFSSW_prec_cthk_117.txt.gz
RH
53 57 61 64 54 51 49 42 42 45 41 47 38 36 37 37 37 39 41 46 44 41 40 46 42 40 38 38 35 37 41 42 34 31 29 28 27 33 36 33 35 45 46 52 56
53 62 65 73 76 65 51 50 41 58 41 42 41 41 40 39 41 40 45 41 42 46 55 57 58 53 52 47 48 45 42 37 33 34 32 31 30 32 39 41 38 40 46 62 72
48 55 64 68 78 87 63 52 55 58 54 46 45 42 41 39 41 50 48 54 57 62 64 64 58 55 51 48 48 47 47 40 41 38 39 40 39 40 42 45 50 51 39 53 52
42 50 58 63 69 69 74 61 52 59 50 40 44 44 47 46 48 57 57 57 55 56 56 55 52 51 46 44 45 47 47 45 44 44 49 48 47 43 45 43 48 53 52 48 70
28 37 51 57 60 73 87 77 65 63 69 57 46 46 46 46 52 60 59 53 51 49 51 53 50 50 48 48 47 48 47 48 47 49 49 51 49 45 48 45 48 54 52 63 65
26 25 36 50 61 64 75 79 62 57 48 53 43 41 46 50 56 59 56 54 53 53 54 49 48 50 51 51 52 52 52 51 49 53 55 57 54 58 53 40 44 48 57 52 56
27 29 38 51 61 73 65 69 57 57 67 67 44 44 51 55 58 59 53 54 56 54 52 51 51 49 48 46 47 49 49 48 42 46 45 54 60 55 37 54 53 51 51 46 58
24 30 39 52 66 66 58 77 78 61 68 63 53 66 60 56 60 53 56 57 54 50 49 51 50 47 49 57 58 63 63 60 39 52 42 55 59 40 51 56 51 42 60 54 56
25 28 38 43 64 59 61 58 51 66 60 62 69 64 68 60 52 56 54 53 52 48 46 48 51 53 58 69 77 69 75 60 52 46 54 62 73 46 54 56 47 40 42 48 53
25 22 29 37 51 63 59 56 55 71 65 65 58 70 70 58 52 52 51 48 49 53 53 55 58 59 65 78 76 68 74 64 63 58 70 82 69 65 61 59 48 41 46 53 63
30 26 27 37 53 62 57 54 50 71 67 54 61 73 60 48 52 48 46 49 52 57 56 62 65 63 65 63 67 68 69 67 56 62 69 68 77 77 63 64 57 53 59 60 65
33 25 29 60 62 73 61 54 49 47 55 59 73 68 47 52 50 47 46 49 56 55 59 60 66 60 58 58 61 65 71 69 61 62 65 65 66 69 69 71 71 66 60 62 65
48 47 40 61 71 87 70 54 41 39 54 76 79 47 51 52 50 50 47 52 54 51 55 62 54 56 59 64 68 75 84 82 83 81 85 76 63 57 57 67 76 74 61 63 65
59 81 87 90 87 80 67 52 46 51 82 76 50 50 55 48 49 48 50 54 54 56 59 60 59 58 64 76 84 94 85 95 90 96 83 70 79 58 55 61 69 70 57 58 69
57 66 86 97 92 87 66 47 47 70 75 54 48 54 51 50 48 54 56 62 61 62 62 59 63 70 77 81 95 89 94 97 96 95 98 87 97 77 69 73 66 62 61 64 79
54 63 73 89 76 71 55 44 58 84 70 49 49 59 51 47 50 55 60 63 64 67 66 74 77 77 79 81 93 96 98 98 96 93 92 83 93 99 97 89 75 76 78 78 69
54 74 89 81 68 67 45 54 83 84 41 50 50 56 48 47 54 58 61 63 67 75 81 75 86 80 80 86 85 91 95 97 97 96 87 96 95 98 96 89 95 89 80 80 80
56 73 78 65 62 62 50 72 85 52 40 41 47 50 52 51 59 57 58 61 61 68 77 90 94 87 83 85 89 92 95 98 96 95 86 75 92 98 93 89 91 87 90 84 74
64 60 63 63 73 55 54 84 68 43 32 40 49 58 47 51 57 53 59 57 57 64 79 90 85 75 89 84 88 84 87 94 97 95 86 96 98 95 91 93 93 93 93 82 74
88 73 74 74 76 60 64 82 58 34 33 40 55 47 53 54 56 58 54 56 61 64 71 89 85 74 84 92 93 88 83 85 92 95 94 94 94 97 96 96 94 96 95 84 77
80 79 74 68 73 71 78 81 53 35 31 42 45 46 45 52 49 55 57 57 61 65 69 82 87 94 91 95 98 91 81 77 84 78 95 90 96 98 93 94 97 97 96 87 82
77 71 65 65 76 77 79 62 39 32 35 44 45 46 44 46 46 54 58 56 63 65 67 74 89 94 84 84 86 84 82 82 94 82 85 81 97 90 90 93 96 98 98 97 92
73 78 69 77 84 80 71 45 33 31 39 45 46 48 42 45 51 50 61 56 62 63 72 72 81 96 79 80 82 83 77 77 77 81 80 79 95 82 78 84 94 97 98 97 99
71 77 74 87 91 85 55 35 33 30 40 43 45 47 48 47 45 50 60 54 62 63 68 75 81 91 86 87 90 91 74 75 84 82 85 87 84 75 73 80 84 88 93 95 96
74 80 82 94 92 64 39 31 30 32 40 44 46 47 48 49 48 51 54 57 56 64 70 73 80 80 75 72 73 80 75 72 73 74 81 80 78 79 75 73 76 72 78 84 84
78 83 89 89 77 52 34 33 29 33 40 43 46 47 48 48 50 53 53 60 62 60 66 67 74 73 70 67 66 73 73 71 67 71 74 76 76 77 74 71 62 64 65 65 70
79 89 89 74 56 48 37 32 29 34 39 43 42 45 47 45 46 52 54 57 59 63 62 65 65 67 69 63 61 66 71 68 66 66 67 71 70 66 67 66 65 61 56 57 56

GFSSW_prec_cthk_120.txt.gz
RH
39 40 43 49 55 55 57 56 56 48 42 43 38 52 39 36 34 37 42 46 45 42 38 47 45 45 44 44 45 47 51 49 42 38 34 30 29 27 27 27 26 20 25 33 44
27 38 47 50 56 56 60 59 66 65 52 48 44 54 41 38 39 43 44 43 41 40 40 53 62 62 56 53 53 49 49 44 36 37 38 34 32 30 27 26 27 25 24 30 36
24 31 44 51 54 54 67 61 68 72 54 53 50 55 42 40 46 45 43 40 45 53 64 69 71 64 61 61 59 57 55 48 45 44 43 41 38 36 32 29 27 29 27 33 36
29 29 33 44 57 55 58 58 62 57 61 57 61 55 50 46 54 54 44 51 56 64 75 76 71 66 60 57 54 53 51 48 45 44 44 42 40 41 37 29 28 33 35 36 39
31 28 26 28 45 52 63 71 62 68 69 66 67 65 58 57 53 56 48 51 54 58 60 62 63 64 61 53 52 55 50 47 46 44 43 41 38 37 34 30 30 33 35 30 39
26 28 29 29 26 50 68 58 64 59 67 56 42 55 62 54 57 54 54 54 59 62 61 59 58 60 59 55 55 50 46 44 42 41 41 44 46 44 40 36 29 33 30 30 37
27 28 30 35 49 52 57 78 57 62 65 57 58 57 65 59 61 60 58 60 64 64 62 60 59 58 53 51 45 45 45 41 36 35 38 41 44 36 31 28 37 38 32 29 40
33 26 29 36 47 61 81 81 70 59 70 70 59 65 66 61 69 67 65 65 63 59 56 54 51 50 50 47 45 49 49 53 38 44 45 51 54 34 29 31 39 37 34 32 29
39 35 27 35 46 55 59 82 81 56 50 57 56 64 71 69 75 71 68 66 57 52 46 48 52 54 52 53 59 56 62 54 46 42 50 48 56 49 38 47 48 42 41 39 34
51 39 31 33 55 61 59 82 69 57 53 54 58 67 70 76 75 61 61 53 48 50 54 53 52 53 53 61 68 63 60 51 45 37 44 45 49 44 58 62 65 49 54 48 41
57 46 40 28 40 53 54 66 74 59 51 57 55 57 67 77 57 55 47 46 48 52 50 55 64 64 57 59 62 67 71 70 55 46 51 48 46 51 58 63 62 75 61 53 44
65 49 34 24 45 72 70 69 67 61 51 45 48 63 79 71 55 48 44 46 50 52 55 66 65 58 57 64 61 59 65 68 65 71 64 64 64 64 63 65 63 62 66 62 48
67 60 60 42 71 88 80 86 83 52 42 46 63 87 70 52 49 50 46 49 50 52 57 63 53 53 59 61 64 68 72 74 77 77 81 71 60 62 57 56 65 69 68 69 63
68 75 97 66 68 89 96 94 68 45 59 76 73 54 53 51 50 51 47 53 54 58 56 61 56 57 61 69 71 78 73 80 85 90 84 75 81 73 67 52 58 74 88 75 64
69 76 91 97 97 98 91 79 56 51 84 83 61 56 55 49 52 52 54 59 64 66 68 71 70 68 70 72 78 79 81 94 94 91 90 78 98 76 56 53 64 65 74 77 68
71 69 89 98 93 92 79 66 56 76 91 71 57 58 52 48 53 56 58 63 64 68 74 76 74 69 66 69 77 79 89 95 98 92 94 81 97 97 91 94 86 64 65 73 74
75 63 78 88 94 77 77 50 69 88 75 59 53 58 51 51 55 55 58 59 64 74 80 82 80 72 74 77 74 89 97 98 97 94 93 97 97 98 98 95 95 82 80 71 67
72 62 83 94 80 79 59 59 85 74 59 54 49 53 51 53 57 53 56 62 61 67 85 90 81 80 76 79 88 95 98 98 97 97 96 99 97 98 97 96 97 91 85 86 74
62 79 97 88 77 68 59 75 89 66 43 44 54 56 49 52 53 51 56 57 61 68 92 83 83 80 84 82 85 91 98 98 96 91 90 98 95 96 98 98 97 94 91 88 81
61 85 82 70 80 64 58 88 72 57 45 44 58 51 53 53 51 54 55 60 62 70 84 90 96 93 87 84 81 91 96 97 98 96 95 97 97 98 98 99 98 98 93 88 78
65 70 70 75 76 68 67 83 74 50 40 50 48 47 49 49 51 57 58 59 61 65 81 88 95 88 93 93 87 85 97 94 95 91 96 96 97 98 99 98 98 98 92 89 86
77 73 70 72 78 83 71 71 61 39 40 48 47 47 45 42 45 56 64 60 62 64 82 87 90 96 93 80 79 83 91 84 93 96 96 96 98 97 98 98 97 98 98 99 92
75 76 70 69 82 85 74 61 42 38 44 46 46 44 42 44 50 51 63 63 61 62 70 80 82 92 91 82 81 83 79 79 81 85 93 96 98 89 91 95 97 98 98 95 93
69 70 75 81 87 82 66 41 37 36 44 46 45 44 42 45 44 47 58 61 63 63 71 85 79 88 98 99 94 95 81 80 84 88 94 97 95 87 85 88 92 95 98 97 99
72 74 82 94 90 75 46 35 35 36 44 44 44 47 53 47 45 48 53 62 64 66 71 81 81 74 80 81 80 81 84 82 78 80 88 87 85 87 83 81 82 87 91 95 97
70 80 89 92 80 53 37 34 33 34 42 44 46 45 46 51 54 52 52 57 66 65 67 70 73 69 69 73 75 77 82 85 87 86 80 83 80 78 71 69 68 73 73 76 91
78 84 83 72 63 53 43 32 30 34 41 41 43 47 48 48 50 53 54 54 59 65 64 63 65 68 66 60 62 73 83 76 74 71 71 73 73 71 68 64 61 60 58 62 63

GFSSW_prec_cthk_123.txt.gz
RH
25 37 38 52 45 47 57 52 45 49 50 42 42 43 36 29 26 30 37 38 38 39 40 42 42 42 43 43 43 47 54 57 52 47 43 35 34 31 31 28 24 28 30 34 30
31 32 37 44 56 56 55 61 49 53 50 54 48 54 44 41 35 36 37 46 44 42 43 49 54 55 51 47 46 51 56 54 48 45 44 43 39 35 33 31 27 21 27 29 32
42 39 37 39 48 57 58 59 60 51 45 58 56 57 42 39 48 53 45 48 46 43 50 58 64 66 64 61 59 56 56 51 47 46 49 47 42 38 36 33 29 28 21 24 28
43 38 39 37 39 47 49 73 57 53 53 56 46 51 60 49 56 59 55 46 55 58 60 64 68 72 65 64 57 63 60 56 53 51 49 48 44 41 38 33 30 27 27 19 26
52 48 43 40 36 35 50 67 59 63 69 58 63 55 47 57 57 60 59 54 59 62 62 65 67 65 65 61 60 60 57 55 55 51 47 44 40 39 36 34 32 28 25 25 18
57 50 41 37 34 31 37 44 67 78 67 63 52 58 45 55 64 65 60 55 57 57 60 64 66 69 67 63 63 58 56 52 52 49 43 44 39 37 34 33 32 29 24 21 24
58 56 45 35 34 45 53 48 50 51 59 59 63 56 60 61 62 65 62 64 67 65 67 66 67 68 65 59 55 53 51 47 41 35 38 38 38 37 32 29 28 25 26 26 22
58 63 46 38 38 58 69 68 72 81 80 77 62 60 62 60 65 68 71 74 75 74 72 70 65 58 57 51 48 48 47 48 31 37 39 49 44 38 33 32 31 28 23 20 20
56 60 53 41 34 46 63 64 88 80 89 80 53 63 66 61 64 78 75 69 70 68 59 54 55 50 45 51 52 45 52 47 41 40 39 42 35 28 31 32 35 34 28 24 22
46 49 54 43 38 62 77 69 78 79 93 77 62 51 45 57 66 76 65 67 59 57 54 50 46 44 46 54 57 57 60 56 54 48 48 48 37 28 28 33 40 37 38 36 33
46 48 58 51 43 61 80 81 73 87 85 61 53 57 49 60 71 71 62 49 50 50 52 49 58 59 51 53 54 57 63 65 51 61 49 46 46 35 34 36 35 38 41 41 40
61 68 58 49 38 41 76 69 66 79 73 62 61 53 60 74 85 66 49 48 50 53 51 58 60 53 58 59 62 63 61 57 48 52 55 52 46 45 41 41 41 41 44 50 54
79 73 81 67 34 46 62 64 64 84 68 57 51 60 83 81 67 54 52 49 54 56 56 64 56 55 58 64 65 67 70 66 64 53 57 61 54 46 40 49 51 44 46 51 61
90 83 97 75 55 83 94 98 97 91 69 67 75 82 65 58 56 58 52 50 56 61 62 68 62 59 58 60 62 68 65 71 74 79 77 67 72 56 53 59 50 45 46 57 65
96 91 93 98 86 93 96 98 93 69 87 89 76 67 61 56 57 57 56 61 63 68 69 69 63 62 64 65 66 73 79 86 89 88 88 81 89 68 73 59 46 45 52 72 71
94 85 86 98 95 95 95 85 80 89 97 81 71 65 55 52 55 59 61 62 61 64 71 72 67 66 65 66 71 76 85 87 89 91 94 83 92 83 91 79 68 60 63 68 75
89 81 87 97 99 95 77 69 85 97 82 68 56 61 55 56 60 59 62 64 67 73 77 73 73 67 69 77 79 85 95 89 90 96 92 95 98 89 97 95 85 80 74 78 76
82 82 90 91 94 92 67 72 94 78 75 59 56 54 58 60 62 60 65 68 65 76 80 86 78 76 78 85 87 89 97 94 94 97 97 98 98 98 98 97 90 85 90 82 81
77 61 89 93 89 75 71 82 81 65 52 53 58 57 65 60 59 58 59 63 68 79 95 95 89 78 82 84 88 93 98 93 98 94 97 94 95 98 97 98 97 96 97 89 78
62 76 96 90 76 76 75 89 69 60 49 57 63 58 58 57 59 61 63 59 68 77 86 92 96 84 84 85 90 98 94 94 97 96 96 94 97 98 97 98 98 97 96 84 90
74 88 88 83 79 69 85 85 68 49 52 60 57 57 58 55 56 62 60 61 61 77 88 93 96 87 87 91 97 98 97 95 95 96 96 97 97 98 98 98 98 97 93 89 92
76 82 70 79 79 74 75 78 54 39 49 55 53 49 47 45 51 60 65 64 65 70 83 91 97 93 89 83 89 88 92 85 92 94 95 98 98 98 98 98 98 98 98 96 81
64 64 71 79 89 90 72 57 41 44 52 50 49 45 42 44 54 62 66 63 61 72 84 87 91 89 79 81 85 88 82 80 80 86 96 96 98 96 96 98 98 98 98 94 87
56 65 73 84 86 80 53 40 39 44 50 49 46 43 45 45 45 55 67 67 66 81 82 86 87 91 92 95 93 92 83 80 81 90 95 97 96 95 96 96 96 98 98 99 99
60 73 82 86 71 53 38 36 39 43 47 47 47 47 50 49 48 53 65 69 69 78 78 79 86 86 81 80 83 86 86 88 83 90 90 93 90 95 94 95 96 96 98 99 97
69 76 81 75 56 45 40 34 39 44 47 47 48 45 46 53 53 53 57 64 69 72 73 70 77 76 73 71 76 85 80 78 78 76 83 79 80 86 88 86 91 92 97 98 98
69 66 58 54 48 46 41 32 36 42 43 45 47 46 49 49 52 52 52 57 61 63 63 63 65 71 68 61 58 70 76 68 68 68 72 74 75 75 73 74 84 86 86 93 98